<?xml version="1.0" encoding="UTF-8"?>
<gpx version="1.0" creator="GPSBabel - http://www.gpsbabel.org" xmlns="http://www.topografix.com/GPX/1/0">
  <time>2020-04-07T23:26:44.324Z</time>
  <bounds minlat="35.496727120" minlon="-107.182571055" maxlat="35.506215480" maxlon="-107.148834740"/>
  <wpt lat="35.504382000" lon="-107.159421000">
    <ele>0.000</ele>
    <name>Down into Canyon</name>
    <cmt>Down into Canyon</cmt>
    <desc>Down into Canyon</desc>
  </wpt>
  <wpt lat="35.502498000" lon="-107.170916000">
    <ele>0.000</ele>
    <name>Gallery #1</name>
    <cmt>Gallery #1</cmt>
    <desc>Gallery #1</desc>
  </wpt>
  <wpt lat="35.501114000" lon="-107.172663000">
    <ele>0.000</ele>
    <name>Gallery #2</name>
    <cmt>Gallery #2</cmt>
    <desc>Gallery #2</desc>
  </wpt>
  <wpt lat="35.500948000" lon="-107.174949000">
    <ele>0.000</ele>
    <name>Gallery #3</name>
    <cmt>Gallery #3</cmt>
    <desc>Gallery #3</desc>
  </wpt>
  <wpt lat="35.500309000" lon="-107.176430000">
    <ele>0.000</ele>
    <name>Gallery #4</name>
    <cmt>Gallery #4</cmt>
    <desc>Gallery #4</desc>
  </wpt>
  <wpt lat="35.498820000" lon="-107.181059000">
    <ele>0.000</ele>
    <name>Gallery #5</name>
    <cmt>Gallery #5</cmt>
    <desc>Gallery #5</desc>
  </wpt>
  <wpt lat="35.504385000" lon="-107.170005000">
    <ele>0.000</ele>
    <name>Access to South Mesa</name>
    <cmt>Access to South Mesa</cmt>
    <desc>Access to South Mesa</desc>
  </wpt>
  <wpt lat="35.500105842" lon="-107.173218154">
    <ele>0.000</ele>
    <name>Torreon</name>
    <cmt>Torreon</cmt>
    <desc>Torreon</desc>
  </wpt>
  <wpt lat="35.499544902" lon="-107.174163590">
    <ele>0.000</ele>
    <name>Ruins</name>
    <cmt>Ruins</cmt>
    <desc>Ruins</desc>
  </wpt>
  <wpt lat="35.497640927" lon="-107.182571055">
    <ele>0.000</ele>
    <name>Arch</name>
    <cmt>Arch</cmt>
    <desc>Arch</desc>
  </wpt>
  <trk>
    <name>Tapia Canyon Hike.Pat.2020-04-06</name>
    <trkseg>
      <trkpt lat="35.506215480" lon="-107.149951950">
        <ele>1805.700</ele>
        <time>2020-04-06T16:25:50Z</time>
      </trkpt>
      <trkpt lat="35.506178060" lon="-107.149954610">
        <ele>1796.600</ele>
        <time>2020-04-06T16:26:10Z</time>
      </trkpt>
      <trkpt lat="35.506144270" lon="-107.149973540">
        <ele>1796.500</ele>
        <time>2020-04-06T16:26:13Z</time>
      </trkpt>
      <trkpt lat="35.506105480" lon="-107.149992700">
        <ele>1796.300</ele>
        <time>2020-04-06T16:26:18Z</time>
      </trkpt>
      <trkpt lat="35.506068690" lon="-107.149989020">
        <ele>1796.100</ele>
        <time>2020-04-06T16:26:23Z</time>
      </trkpt>
      <trkpt lat="35.506079220" lon="-107.150032130">
        <ele>1793.200</ele>
        <time>2020-04-06T16:26:36Z</time>
      </trkpt>
      <trkpt lat="35.506081780" lon="-107.150082460">
        <ele>1793.400</ele>
        <time>2020-04-06T16:26:42Z</time>
      </trkpt>
      <trkpt lat="35.506076790" lon="-107.150139200">
        <ele>1792.000</ele>
        <time>2020-04-06T16:26:48Z</time>
      </trkpt>
      <trkpt lat="35.506062770" lon="-107.150185130">
        <ele>1792.000</ele>
        <time>2020-04-06T16:26:53Z</time>
      </trkpt>
      <trkpt lat="35.506058730" lon="-107.150235420">
        <ele>1792.000</ele>
        <time>2020-04-06T16:26:58Z</time>
      </trkpt>
      <trkpt lat="35.506050930" lon="-107.150281180">
        <ele>1792.500</ele>
        <time>2020-04-06T16:27:03Z</time>
      </trkpt>
      <trkpt lat="35.506050900" lon="-107.150327230">
        <ele>1794.900</ele>
        <time>2020-04-06T16:28:28Z</time>
      </trkpt>
      <trkpt lat="35.506046590" lon="-107.150372690">
        <ele>1796.200</ele>
        <time>2020-04-06T16:28:33Z</time>
      </trkpt>
      <trkpt lat="35.506049210" lon="-107.150421520">
        <ele>1796.200</ele>
        <time>2020-04-06T16:28:37Z</time>
      </trkpt>
      <trkpt lat="35.506056170" lon="-107.150473810">
        <ele>1796.000</ele>
        <time>2020-04-06T16:28:53Z</time>
      </trkpt>
      <trkpt lat="35.506078980" lon="-107.150517030">
        <ele>1795.600</ele>
        <time>2020-04-06T16:29:00Z</time>
      </trkpt>
      <trkpt lat="35.506063720" lon="-107.150560010">
        <ele>1796.700</ele>
        <time>2020-04-06T16:29:09Z</time>
      </trkpt>
      <trkpt lat="35.506046620" lon="-107.150608150">
        <ele>1797.100</ele>
        <time>2020-04-06T16:29:16Z</time>
      </trkpt>
      <trkpt lat="35.506053440" lon="-107.150652260">
        <ele>1798.000</ele>
        <time>2020-04-06T16:29:21Z</time>
      </trkpt>
      <trkpt lat="35.506088540" lon="-107.150688540">
        <ele>1798.200</ele>
        <time>2020-04-06T16:29:25Z</time>
      </trkpt>
      <trkpt lat="35.506100910" lon="-107.150732660">
        <ele>1798.000</ele>
        <time>2020-04-06T16:29:31Z</time>
      </trkpt>
      <trkpt lat="35.506063200" lon="-107.150753180">
        <ele>1798.200</ele>
        <time>2020-04-06T16:29:58Z</time>
      </trkpt>
      <trkpt lat="35.506026260" lon="-107.150761830">
        <ele>1799.300</ele>
        <time>2020-04-06T16:30:08Z</time>
      </trkpt>
      <trkpt lat="35.505991210" lon="-107.150777690">
        <ele>1795.600</ele>
        <time>2020-04-06T16:30:53Z</time>
      </trkpt>
      <trkpt lat="35.506022770" lon="-107.150801320">
        <ele>1795.500</ele>
        <time>2020-04-06T16:31:26Z</time>
      </trkpt>
      <trkpt lat="35.506064630" lon="-107.150811800">
        <ele>1795.100</ele>
        <time>2020-04-06T16:31:34Z</time>
      </trkpt>
      <trkpt lat="35.506103540" lon="-107.150801280">
        <ele>1794.900</ele>
        <time>2020-04-06T16:31:52Z</time>
      </trkpt>
      <trkpt lat="35.506144290" lon="-107.150790010">
        <ele>1795.100</ele>
        <time>2020-04-06T16:31:57Z</time>
      </trkpt>
      <trkpt lat="35.506115950" lon="-107.150760220">
        <ele>1796.000</ele>
        <time>2020-04-06T16:32:10Z</time>
      </trkpt>
      <trkpt lat="35.506090390" lon="-107.150705120">
        <ele>1797.200</ele>
        <time>2020-04-06T16:32:14Z</time>
      </trkpt>
      <trkpt lat="35.506062860" lon="-107.150665970">
        <ele>1798.000</ele>
        <time>2020-04-06T16:32:17Z</time>
      </trkpt>
      <trkpt lat="35.506077200" lon="-107.150618810">
        <ele>1797.400</ele>
        <time>2020-04-06T16:32:28Z</time>
      </trkpt>
      <trkpt lat="35.506101880" lon="-107.150573410">
        <ele>1798.800</ele>
        <time>2020-04-06T16:32:33Z</time>
      </trkpt>
      <trkpt lat="35.506091660" lon="-107.150530430">
        <ele>1798.100</ele>
        <time>2020-04-06T16:32:39Z</time>
      </trkpt>
      <trkpt lat="35.506081840" lon="-107.150487990">
        <ele>1797.600</ele>
        <time>2020-04-06T16:32:44Z</time>
      </trkpt>
      <trkpt lat="35.506076780" lon="-107.150441170">
        <ele>1797.900</ele>
        <time>2020-04-06T16:32:48Z</time>
      </trkpt>
      <trkpt lat="35.506083780" lon="-107.150394160">
        <ele>1798.600</ele>
        <time>2020-04-06T16:32:52Z</time>
      </trkpt>
      <trkpt lat="35.506090410" lon="-107.150350540">
        <ele>1798.900</ele>
        <time>2020-04-06T16:32:59Z</time>
      </trkpt>
      <trkpt lat="35.506107450" lon="-107.150310690">
        <ele>1798.400</ele>
        <time>2020-04-06T16:33:02Z</time>
      </trkpt>
      <trkpt lat="35.506104130" lon="-107.150263900">
        <ele>1796.800</ele>
        <time>2020-04-06T16:33:06Z</time>
      </trkpt>
      <trkpt lat="35.506112660" lon="-107.150209740">
        <ele>1793.300</ele>
        <time>2020-04-06T16:33:10Z</time>
      </trkpt>
      <trkpt lat="35.506088950" lon="-107.150248660">
        <ele>1794.300</ele>
        <time>2020-04-06T16:33:17Z</time>
      </trkpt>
      <trkpt lat="35.506066570" lon="-107.150285750">
        <ele>1794.000</ele>
        <time>2020-04-06T16:33:26Z</time>
      </trkpt>
      <trkpt lat="35.506049810" lon="-107.150331270">
        <ele>1791.900</ele>
        <time>2020-04-06T16:34:00Z</time>
      </trkpt>
      <trkpt lat="35.506033890" lon="-107.150376320">
        <ele>1791.200</ele>
        <time>2020-04-06T16:34:04Z</time>
      </trkpt>
      <trkpt lat="35.506022570" lon="-107.150428970">
        <ele>1790.700</ele>
        <time>2020-04-06T16:34:08Z</time>
      </trkpt>
      <trkpt lat="35.506037010" lon="-107.150475500">
        <ele>1790.100</ele>
        <time>2020-04-06T16:34:11Z</time>
      </trkpt>
      <trkpt lat="35.506064250" lon="-107.150509850">
        <ele>1789.100</ele>
        <time>2020-04-06T16:34:15Z</time>
      </trkpt>
      <trkpt lat="35.506054370" lon="-107.150556490">
        <ele>1791.000</ele>
        <time>2020-04-06T16:34:20Z</time>
      </trkpt>
      <trkpt lat="35.506035170" lon="-107.150597430">
        <ele>1793.300</ele>
        <time>2020-04-06T16:34:26Z</time>
      </trkpt>
      <trkpt lat="35.506025610" lon="-107.150651340">
        <ele>1794.300</ele>
        <time>2020-04-06T16:34:30Z</time>
      </trkpt>
      <trkpt lat="35.506029610" lon="-107.150698010">
        <ele>1794.200</ele>
        <time>2020-04-06T16:34:34Z</time>
      </trkpt>
      <trkpt lat="35.506052630" lon="-107.150735190">
        <ele>1794.400</ele>
        <time>2020-04-06T16:34:38Z</time>
      </trkpt>
      <trkpt lat="35.506019850" lon="-107.150760240">
        <ele>1796.600</ele>
        <time>2020-04-06T16:34:59Z</time>
      </trkpt>
      <trkpt lat="35.505988780" lon="-107.150791120">
        <ele>1794.100</ele>
        <time>2020-04-06T16:35:29Z</time>
      </trkpt>
      <trkpt lat="35.505960660" lon="-107.150820780">
        <ele>1794.800</ele>
        <time>2020-04-06T16:37:03Z</time>
      </trkpt>
      <trkpt lat="35.505930030" lon="-107.150853140">
        <ele>1792.900</ele>
        <time>2020-04-06T16:37:12Z</time>
      </trkpt>
      <trkpt lat="35.505920590" lon="-107.150902430">
        <ele>1791.600</ele>
        <time>2020-04-06T16:37:16Z</time>
      </trkpt>
      <trkpt lat="35.505928470" lon="-107.150960890">
        <ele>1790.800</ele>
        <time>2020-04-06T16:37:20Z</time>
      </trkpt>
      <trkpt lat="35.505943060" lon="-107.151008360">
        <ele>1790.800</ele>
        <time>2020-04-06T16:37:23Z</time>
      </trkpt>
      <trkpt lat="35.505968670" lon="-107.151047160">
        <ele>1791.500</ele>
        <time>2020-04-06T16:37:27Z</time>
      </trkpt>
      <trkpt lat="35.506007900" lon="-107.151065500">
        <ele>1790.900</ele>
        <time>2020-04-06T16:37:33Z</time>
      </trkpt>
      <trkpt lat="35.506009980" lon="-107.151109860">
        <ele>1789.800</ele>
        <time>2020-04-06T16:37:44Z</time>
      </trkpt>
      <trkpt lat="35.505974670" lon="-107.151138710">
        <ele>1790.900</ele>
        <time>2020-04-06T16:37:48Z</time>
      </trkpt>
      <trkpt lat="35.505949010" lon="-107.151169880">
        <ele>1790.800</ele>
        <time>2020-04-06T16:37:51Z</time>
      </trkpt>
      <trkpt lat="35.505937510" lon="-107.151211910">
        <ele>1789.900</ele>
        <time>2020-04-06T16:37:54Z</time>
      </trkpt>
      <trkpt lat="35.505925370" lon="-107.151264770">
        <ele>1789.000</ele>
        <time>2020-04-06T16:37:58Z</time>
      </trkpt>
      <trkpt lat="35.505911790" lon="-107.151320550">
        <ele>1789.800</ele>
        <time>2020-04-06T16:38:02Z</time>
      </trkpt>
      <trkpt lat="35.505902800" lon="-107.151372650">
        <ele>1789.300</ele>
        <time>2020-04-06T16:38:06Z</time>
      </trkpt>
      <trkpt lat="35.505940900" lon="-107.151388460">
        <ele>1789.900</ele>
        <time>2020-04-06T16:38:14Z</time>
      </trkpt>
      <trkpt lat="35.505972690" lon="-107.151413740">
        <ele>1791.700</ele>
        <time>2020-04-06T16:38:27Z</time>
      </trkpt>
      <trkpt lat="35.505997060" lon="-107.151448240">
        <ele>1790.000</ele>
        <time>2020-04-06T16:38:38Z</time>
      </trkpt>
      <trkpt lat="35.505984640" lon="-107.151493880">
        <ele>1790.600</ele>
        <time>2020-04-06T16:38:45Z</time>
      </trkpt>
      <trkpt lat="35.505950000" lon="-107.151522640">
        <ele>1790.900</ele>
        <time>2020-04-06T16:38:50Z</time>
      </trkpt>
      <trkpt lat="35.505944140" lon="-107.151571140">
        <ele>1789.500</ele>
        <time>2020-04-06T16:38:56Z</time>
      </trkpt>
      <trkpt lat="35.505943120" lon="-107.151617310">
        <ele>1789.200</ele>
        <time>2020-04-06T16:39:10Z</time>
      </trkpt>
      <trkpt lat="35.505924350" lon="-107.151656550">
        <ele>1790.800</ele>
        <time>2020-04-06T16:39:20Z</time>
      </trkpt>
      <trkpt lat="35.505912060" lon="-107.151704780">
        <ele>1790.300</ele>
        <time>2020-04-06T16:39:26Z</time>
      </trkpt>
      <trkpt lat="35.505895740" lon="-107.151745510">
        <ele>1790.400</ele>
        <time>2020-04-06T16:39:32Z</time>
      </trkpt>
      <trkpt lat="35.505927780" lon="-107.151777040">
        <ele>1791.900</ele>
        <time>2020-04-06T16:39:45Z</time>
      </trkpt>
      <trkpt lat="35.505926970" lon="-107.151822050">
        <ele>1791.300</ele>
        <time>2020-04-06T16:39:51Z</time>
      </trkpt>
      <trkpt lat="35.505894950" lon="-107.151859060">
        <ele>1789.900</ele>
        <time>2020-04-06T16:39:57Z</time>
      </trkpt>
      <trkpt lat="35.505895520" lon="-107.151908030">
        <ele>1789.900</ele>
        <time>2020-04-06T16:40:01Z</time>
      </trkpt>
      <trkpt lat="35.505902500" lon="-107.151953900">
        <ele>1789.800</ele>
        <time>2020-04-06T16:40:05Z</time>
      </trkpt>
      <trkpt lat="35.505900890" lon="-107.152005550">
        <ele>1789.900</ele>
        <time>2020-04-06T16:40:09Z</time>
      </trkpt>
      <trkpt lat="35.505905350" lon="-107.152058960">
        <ele>1790.400</ele>
        <time>2020-04-06T16:40:13Z</time>
      </trkpt>
      <trkpt lat="35.505920940" lon="-107.152103490">
        <ele>1790.400</ele>
        <time>2020-04-06T16:40:17Z</time>
      </trkpt>
      <trkpt lat="35.505954490" lon="-107.152142790">
        <ele>1790.400</ele>
        <time>2020-04-06T16:40:21Z</time>
      </trkpt>
      <trkpt lat="35.505995240" lon="-107.152163520">
        <ele>1790.400</ele>
        <time>2020-04-06T16:40:25Z</time>
      </trkpt>
      <trkpt lat="35.506025990" lon="-107.152186910">
        <ele>1790.500</ele>
        <time>2020-04-06T16:40:28Z</time>
      </trkpt>
      <trkpt lat="35.506040780" lon="-107.152231960">
        <ele>1791.500</ele>
        <time>2020-04-06T16:40:33Z</time>
      </trkpt>
      <trkpt lat="35.505999990" lon="-107.152237480">
        <ele>1790.400</ele>
        <time>2020-04-06T16:40:40Z</time>
      </trkpt>
      <trkpt lat="35.505958040" lon="-107.152221850">
        <ele>1791.600</ele>
        <time>2020-04-06T16:40:45Z</time>
      </trkpt>
      <trkpt lat="35.505917800" lon="-107.152226470">
        <ele>1791.100</ele>
        <time>2020-04-06T16:40:49Z</time>
      </trkpt>
      <trkpt lat="35.505892880" lon="-107.152272090">
        <ele>1790.100</ele>
        <time>2020-04-06T16:40:53Z</time>
      </trkpt>
      <trkpt lat="35.505881920" lon="-107.152323970">
        <ele>1789.800</ele>
        <time>2020-04-06T16:40:57Z</time>
      </trkpt>
      <trkpt lat="35.505885990" lon="-107.152378480">
        <ele>1789.100</ele>
        <time>2020-04-06T16:41:01Z</time>
      </trkpt>
      <trkpt lat="35.505900270" lon="-107.152426860">
        <ele>1790.200</ele>
        <time>2020-04-06T16:41:05Z</time>
      </trkpt>
      <trkpt lat="35.505922500" lon="-107.152476350">
        <ele>1790.700</ele>
        <time>2020-04-06T16:41:10Z</time>
      </trkpt>
      <trkpt lat="35.505908860" lon="-107.152523150">
        <ele>1791.100</ele>
        <time>2020-04-06T16:41:16Z</time>
      </trkpt>
      <trkpt lat="35.505907710" lon="-107.152576020">
        <ele>1790.900</ele>
        <time>2020-04-06T16:41:21Z</time>
      </trkpt>
      <trkpt lat="35.505908680" lon="-107.152622410">
        <ele>1791.300</ele>
        <time>2020-04-06T16:41:25Z</time>
      </trkpt>
      <trkpt lat="35.505926810" lon="-107.152661730">
        <ele>1792.900</ele>
        <time>2020-04-06T16:41:29Z</time>
      </trkpt>
      <trkpt lat="35.505940630" lon="-107.152704300">
        <ele>1794.000</ele>
        <time>2020-04-06T16:41:34Z</time>
      </trkpt>
      <trkpt lat="35.505954490" lon="-107.152746250">
        <ele>1794.600</ele>
        <time>2020-04-06T16:42:36Z</time>
      </trkpt>
      <trkpt lat="35.505959290" lon="-107.152792970">
        <ele>1794.800</ele>
        <time>2020-04-06T16:42:42Z</time>
      </trkpt>
      <trkpt lat="35.505943550" lon="-107.152838340">
        <ele>1794.500</ele>
        <time>2020-04-06T16:42:47Z</time>
      </trkpt>
      <trkpt lat="35.505921330" lon="-107.152875410">
        <ele>1794.800</ele>
        <time>2020-04-06T16:42:52Z</time>
      </trkpt>
      <trkpt lat="35.505940820" lon="-107.152921380">
        <ele>1795.500</ele>
        <time>2020-04-06T16:42:58Z</time>
      </trkpt>
      <trkpt lat="35.505960180" lon="-107.152958950">
        <ele>1795.500</ele>
        <time>2020-04-06T16:43:02Z</time>
      </trkpt>
      <trkpt lat="35.505960400" lon="-107.153005620">
        <ele>1795.600</ele>
        <time>2020-04-06T16:43:07Z</time>
      </trkpt>
      <trkpt lat="35.505962610" lon="-107.153056650">
        <ele>1794.400</ele>
        <time>2020-04-06T16:43:16Z</time>
      </trkpt>
      <trkpt lat="35.505953290" lon="-107.153099340">
        <ele>1793.500</ele>
        <time>2020-04-06T16:43:24Z</time>
      </trkpt>
      <trkpt lat="35.505942230" lon="-107.153145590">
        <ele>1794.200</ele>
        <time>2020-04-06T16:43:28Z</time>
      </trkpt>
      <trkpt lat="35.505960650" lon="-107.153196320">
        <ele>1793.800</ele>
        <time>2020-04-06T16:43:33Z</time>
      </trkpt>
      <trkpt lat="35.505979030" lon="-107.153234590">
        <ele>1795.000</ele>
        <time>2020-04-06T16:43:37Z</time>
      </trkpt>
      <trkpt lat="35.505980010" lon="-107.153290660">
        <ele>1794.600</ele>
        <time>2020-04-06T16:43:42Z</time>
      </trkpt>
      <trkpt lat="35.505983790" lon="-107.153336190">
        <ele>1794.900</ele>
        <time>2020-04-06T16:43:46Z</time>
      </trkpt>
      <trkpt lat="35.505989200" lon="-107.153387290">
        <ele>1794.200</ele>
        <time>2020-04-06T16:43:51Z</time>
      </trkpt>
      <trkpt lat="35.505980110" lon="-107.153431880">
        <ele>1794.200</ele>
        <time>2020-04-06T16:43:56Z</time>
      </trkpt>
      <trkpt lat="35.505964050" lon="-107.153474540">
        <ele>1794.100</ele>
        <time>2020-04-06T16:44:00Z</time>
      </trkpt>
      <trkpt lat="35.505953490" lon="-107.153519400">
        <ele>1793.800</ele>
        <time>2020-04-06T16:44:05Z</time>
      </trkpt>
      <trkpt lat="35.505929620" lon="-107.153562160">
        <ele>1793.800</ele>
        <time>2020-04-06T16:44:10Z</time>
      </trkpt>
      <trkpt lat="35.505916720" lon="-107.153607280">
        <ele>1793.500</ele>
        <time>2020-04-06T16:44:14Z</time>
      </trkpt>
      <trkpt lat="35.505920020" lon="-107.153658190">
        <ele>1793.600</ele>
        <time>2020-04-06T16:44:18Z</time>
      </trkpt>
      <trkpt lat="35.505931660" lon="-107.153710640">
        <ele>1792.600</ele>
        <time>2020-04-06T16:44:22Z</time>
      </trkpt>
      <trkpt lat="35.505947490" lon="-107.153755940">
        <ele>1792.900</ele>
        <time>2020-04-06T16:44:26Z</time>
      </trkpt>
      <trkpt lat="35.505965120" lon="-107.153802830">
        <ele>1793.700</ele>
        <time>2020-04-06T16:44:31Z</time>
      </trkpt>
      <trkpt lat="35.505981040" lon="-107.153850190">
        <ele>1793.700</ele>
        <time>2020-04-06T16:44:35Z</time>
      </trkpt>
      <trkpt lat="35.506000400" lon="-107.153894030">
        <ele>1792.900</ele>
        <time>2020-04-06T16:44:39Z</time>
      </trkpt>
      <trkpt lat="35.506017640" lon="-107.153939090">
        <ele>1793.300</ele>
        <time>2020-04-06T16:44:44Z</time>
      </trkpt>
      <trkpt lat="35.506038990" lon="-107.153981770">
        <ele>1793.900</ele>
        <time>2020-04-06T16:44:49Z</time>
      </trkpt>
      <trkpt lat="35.506054150" lon="-107.154035370">
        <ele>1793.400</ele>
        <time>2020-04-06T16:44:54Z</time>
      </trkpt>
      <trkpt lat="35.506064100" lon="-107.154085740">
        <ele>1792.900</ele>
        <time>2020-04-06T16:44:59Z</time>
      </trkpt>
      <trkpt lat="35.506059140" lon="-107.154130980">
        <ele>1793.400</ele>
        <time>2020-04-06T16:45:03Z</time>
      </trkpt>
      <trkpt lat="35.506032140" lon="-107.154169850">
        <ele>1793.500</ele>
        <time>2020-04-06T16:45:07Z</time>
      </trkpt>
      <trkpt lat="35.506006450" lon="-107.154205060">
        <ele>1793.700</ele>
        <time>2020-04-06T16:45:11Z</time>
      </trkpt>
      <trkpt lat="35.505982830" lon="-107.154249720">
        <ele>1794.000</ele>
        <time>2020-04-06T16:45:16Z</time>
      </trkpt>
      <trkpt lat="35.505977950" lon="-107.154297210">
        <ele>1792.200</ele>
        <time>2020-04-06T16:45:20Z</time>
      </trkpt>
      <trkpt lat="35.505979800" lon="-107.154347060">
        <ele>1794.300</ele>
        <time>2020-04-06T16:45:24Z</time>
      </trkpt>
      <trkpt lat="35.505982300" lon="-107.154402690">
        <ele>1795.400</ele>
        <time>2020-04-06T16:45:29Z</time>
      </trkpt>
      <trkpt lat="35.505971290" lon="-107.154455720">
        <ele>1795.900</ele>
        <time>2020-04-06T16:45:34Z</time>
      </trkpt>
      <trkpt lat="35.505953980" lon="-107.154500400">
        <ele>1791.200</ele>
        <time>2020-04-06T16:45:39Z</time>
      </trkpt>
      <trkpt lat="35.505931650" lon="-107.154535480">
        <ele>1791.600</ele>
        <time>2020-04-06T16:45:44Z</time>
      </trkpt>
      <trkpt lat="35.505914010" lon="-107.154574320">
        <ele>1793.100</ele>
        <time>2020-04-06T16:45:48Z</time>
      </trkpt>
      <trkpt lat="35.505897850" lon="-107.154615820">
        <ele>1793.400</ele>
        <time>2020-04-06T16:45:52Z</time>
      </trkpt>
      <trkpt lat="35.505882180" lon="-107.154662990">
        <ele>1793.300</ele>
        <time>2020-04-06T16:45:56Z</time>
      </trkpt>
      <trkpt lat="35.505855950" lon="-107.154706290">
        <ele>1792.600</ele>
        <time>2020-04-06T16:46:01Z</time>
      </trkpt>
      <trkpt lat="35.505872350" lon="-107.154745580">
        <ele>1793.700</ele>
        <time>2020-04-06T16:46:27Z</time>
      </trkpt>
      <trkpt lat="35.505877830" lon="-107.154794830">
        <ele>1794.100</ele>
        <time>2020-04-06T16:46:52Z</time>
      </trkpt>
      <trkpt lat="35.505883940" lon="-107.154840340">
        <ele>1794.700</ele>
        <time>2020-04-06T16:46:56Z</time>
      </trkpt>
      <trkpt lat="35.505883920" lon="-107.154891810">
        <ele>1796.100</ele>
        <time>2020-04-06T16:47:01Z</time>
      </trkpt>
      <trkpt lat="35.505919420" lon="-107.154923960">
        <ele>1796.200</ele>
        <time>2020-04-06T16:47:11Z</time>
      </trkpt>
      <trkpt lat="35.505952190" lon="-107.154951960">
        <ele>1797.000</ele>
        <time>2020-04-06T16:47:15Z</time>
      </trkpt>
      <trkpt lat="35.505989210" lon="-107.154973060">
        <ele>1797.500</ele>
        <time>2020-04-06T16:47:19Z</time>
      </trkpt>
      <trkpt lat="35.506030900" lon="-107.154964300">
        <ele>1797.100</ele>
        <time>2020-04-06T16:47:23Z</time>
      </trkpt>
      <trkpt lat="35.506063880" lon="-107.154997340">
        <ele>1797.000</ele>
        <time>2020-04-06T16:47:28Z</time>
      </trkpt>
      <trkpt lat="35.506090300" lon="-107.155037680">
        <ele>1796.400</ele>
        <time>2020-04-06T16:47:35Z</time>
      </trkpt>
      <trkpt lat="35.506101890" lon="-107.155082800">
        <ele>1796.900</ele>
        <time>2020-04-06T16:47:42Z</time>
      </trkpt>
      <trkpt lat="35.506084300" lon="-107.155121610">
        <ele>1795.600</ele>
        <time>2020-04-06T16:47:51Z</time>
      </trkpt>
      <trkpt lat="35.506040420" lon="-107.155125320">
        <ele>1795.700</ele>
        <time>2020-04-06T16:48:08Z</time>
      </trkpt>
      <trkpt lat="35.506007070" lon="-107.155150030">
        <ele>1795.700</ele>
        <time>2020-04-06T16:48:12Z</time>
      </trkpt>
      <trkpt lat="35.505986730" lon="-107.155192750">
        <ele>1796.200</ele>
        <time>2020-04-06T16:48:16Z</time>
      </trkpt>
      <trkpt lat="35.505966990" lon="-107.155234500">
        <ele>1797.500</ele>
        <time>2020-04-06T16:48:20Z</time>
      </trkpt>
      <trkpt lat="35.505941730" lon="-107.155278350">
        <ele>1798.000</ele>
        <time>2020-04-06T16:48:25Z</time>
      </trkpt>
      <trkpt lat="35.505943070" lon="-107.155332740">
        <ele>1798.000</ele>
        <time>2020-04-06T16:48:30Z</time>
      </trkpt>
      <trkpt lat="35.505949930" lon="-107.155382910">
        <ele>1797.900</ele>
        <time>2020-04-06T16:48:35Z</time>
      </trkpt>
      <trkpt lat="35.505950560" lon="-107.155433810">
        <ele>1797.200</ele>
        <time>2020-04-06T16:48:40Z</time>
      </trkpt>
      <trkpt lat="35.505946380" lon="-107.155483760">
        <ele>1801.000</ele>
        <time>2020-04-06T16:48:45Z</time>
      </trkpt>
      <trkpt lat="35.505943590" lon="-107.155535060">
        <ele>1796.600</ele>
        <time>2020-04-06T16:48:56Z</time>
      </trkpt>
      <trkpt lat="35.505947290" lon="-107.155581210">
        <ele>1796.500</ele>
        <time>2020-04-06T16:49:00Z</time>
      </trkpt>
      <trkpt lat="35.505948570" lon="-107.155632990">
        <ele>1796.700</ele>
        <time>2020-04-06T16:49:04Z</time>
      </trkpt>
      <trkpt lat="35.505960420" lon="-107.155681610">
        <ele>1797.000</ele>
        <time>2020-04-06T16:49:08Z</time>
      </trkpt>
      <trkpt lat="35.505976820" lon="-107.155723240">
        <ele>1792.700</ele>
        <time>2020-04-06T16:49:12Z</time>
      </trkpt>
      <trkpt lat="35.506006680" lon="-107.155752370">
        <ele>1794.400</ele>
        <time>2020-04-06T16:49:20Z</time>
      </trkpt>
      <trkpt lat="35.505990820" lon="-107.155792960">
        <ele>1795.700</ele>
        <time>2020-04-06T16:49:34Z</time>
      </trkpt>
      <trkpt lat="35.505964040" lon="-107.155825350">
        <ele>1796.500</ele>
        <time>2020-04-06T16:49:38Z</time>
      </trkpt>
      <trkpt lat="35.505930170" lon="-107.155840970">
        <ele>1798.100</ele>
        <time>2020-04-06T16:49:42Z</time>
      </trkpt>
      <trkpt lat="35.505894790" lon="-107.155830740">
        <ele>1799.500</ele>
        <time>2020-04-06T16:49:46Z</time>
      </trkpt>
      <trkpt lat="35.505875280" lon="-107.155869890">
        <ele>1799.800</ele>
        <time>2020-04-06T16:49:51Z</time>
      </trkpt>
      <trkpt lat="35.505868540" lon="-107.155924560">
        <ele>1804.800</ele>
        <time>2020-04-06T16:49:55Z</time>
      </trkpt>
      <trkpt lat="35.505856660" lon="-107.155971910">
        <ele>1799.200</ele>
        <time>2020-04-06T16:49:59Z</time>
      </trkpt>
      <trkpt lat="35.505847950" lon="-107.156023320">
        <ele>1798.100</ele>
        <time>2020-04-06T16:50:04Z</time>
      </trkpt>
      <trkpt lat="35.505841840" lon="-107.156070270">
        <ele>1798.700</ele>
        <time>2020-04-06T16:50:09Z</time>
      </trkpt>
      <trkpt lat="35.505833340" lon="-107.156125010">
        <ele>1796.100</ele>
        <time>2020-04-06T16:50:14Z</time>
      </trkpt>
      <trkpt lat="35.505826770" lon="-107.156168370">
        <ele>1799.800</ele>
        <time>2020-04-06T16:50:28Z</time>
      </trkpt>
      <trkpt lat="35.505828900" lon="-107.156215890">
        <ele>1800.600</ele>
        <time>2020-04-06T16:50:33Z</time>
      </trkpt>
      <trkpt lat="35.505822860" lon="-107.156265070">
        <ele>1800.000</ele>
        <time>2020-04-06T16:50:40Z</time>
      </trkpt>
      <trkpt lat="35.505794610" lon="-107.156297120">
        <ele>1799.300</ele>
        <time>2020-04-06T16:50:47Z</time>
      </trkpt>
      <trkpt lat="35.505766240" lon="-107.156329140">
        <ele>1799.700</ele>
        <time>2020-04-06T16:52:55Z</time>
      </trkpt>
      <trkpt lat="35.505734160" lon="-107.156367160">
        <ele>1799.800</ele>
        <time>2020-04-06T16:53:00Z</time>
      </trkpt>
      <trkpt lat="35.505703770" lon="-107.156393740">
        <ele>1799.700</ele>
        <time>2020-04-06T16:53:05Z</time>
      </trkpt>
      <trkpt lat="35.505672390" lon="-107.156423860">
        <ele>1799.500</ele>
        <time>2020-04-06T16:53:09Z</time>
      </trkpt>
      <trkpt lat="35.505643880" lon="-107.156458720">
        <ele>1799.500</ele>
        <time>2020-04-06T16:53:13Z</time>
      </trkpt>
      <trkpt lat="35.505643770" lon="-107.156509460">
        <ele>1801.200</ele>
        <time>2020-04-06T16:53:18Z</time>
      </trkpt>
      <trkpt lat="35.505621920" lon="-107.156554220">
        <ele>1801.200</ele>
        <time>2020-04-06T16:53:23Z</time>
      </trkpt>
      <trkpt lat="35.505612780" lon="-107.156603420">
        <ele>1800.300</ele>
        <time>2020-04-06T16:53:30Z</time>
      </trkpt>
      <trkpt lat="35.505572570" lon="-107.156616110">
        <ele>1801.000</ele>
        <time>2020-04-06T16:53:36Z</time>
      </trkpt>
      <trkpt lat="35.505556630" lon="-107.156657630">
        <ele>1800.800</ele>
        <time>2020-04-06T16:53:46Z</time>
      </trkpt>
      <trkpt lat="35.505551650" lon="-107.156702820">
        <ele>1800.200</ele>
        <time>2020-04-06T16:53:54Z</time>
      </trkpt>
      <trkpt lat="35.505543500" lon="-107.156747340">
        <ele>1802.300</ele>
        <time>2020-04-06T16:54:25Z</time>
      </trkpt>
      <trkpt lat="35.505506920" lon="-107.156775700">
        <ele>1800.600</ele>
        <time>2020-04-06T16:55:26Z</time>
      </trkpt>
      <trkpt lat="35.505478290" lon="-107.156809460">
        <ele>1800.900</ele>
        <time>2020-04-06T16:55:31Z</time>
      </trkpt>
      <trkpt lat="35.505459520" lon="-107.156853880">
        <ele>1800.400</ele>
        <time>2020-04-06T16:55:38Z</time>
      </trkpt>
      <trkpt lat="35.505466060" lon="-107.156899120">
        <ele>1800.400</ele>
        <time>2020-04-06T16:55:42Z</time>
      </trkpt>
      <trkpt lat="35.505475090" lon="-107.156945540">
        <ele>1804.800</ele>
        <time>2020-04-06T16:55:48Z</time>
      </trkpt>
      <trkpt lat="35.505472980" lon="-107.156994870">
        <ele>1801.400</ele>
        <time>2020-04-06T16:56:07Z</time>
      </trkpt>
      <trkpt lat="35.505460510" lon="-107.157041390">
        <ele>1801.600</ele>
        <time>2020-04-06T16:56:20Z</time>
      </trkpt>
      <trkpt lat="35.505432320" lon="-107.157078160">
        <ele>1801.600</ele>
        <time>2020-04-06T16:56:30Z</time>
      </trkpt>
      <trkpt lat="35.505401100" lon="-107.157104330">
        <ele>1800.400</ele>
        <time>2020-04-06T16:56:36Z</time>
      </trkpt>
      <trkpt lat="35.505366850" lon="-107.157132350">
        <ele>1800.300</ele>
        <time>2020-04-06T16:56:42Z</time>
      </trkpt>
      <trkpt lat="35.505333310" lon="-107.157151250">
        <ele>1800.900</ele>
        <time>2020-04-06T16:56:46Z</time>
      </trkpt>
      <trkpt lat="35.505296450" lon="-107.157178540">
        <ele>1802.300</ele>
        <time>2020-04-06T16:56:51Z</time>
      </trkpt>
      <trkpt lat="35.505274850" lon="-107.157220950">
        <ele>1802.000</ele>
        <time>2020-04-06T16:56:56Z</time>
      </trkpt>
      <trkpt lat="35.505262690" lon="-107.157272480">
        <ele>1803.100</ele>
        <time>2020-04-06T16:57:01Z</time>
      </trkpt>
      <trkpt lat="35.505254560" lon="-107.157319160">
        <ele>1803.200</ele>
        <time>2020-04-06T16:57:06Z</time>
      </trkpt>
      <trkpt lat="35.505241530" lon="-107.157365180">
        <ele>1803.200</ele>
        <time>2020-04-06T16:57:11Z</time>
      </trkpt>
      <trkpt lat="35.505222740" lon="-107.157405560">
        <ele>1801.600</ele>
        <time>2020-04-06T16:57:17Z</time>
      </trkpt>
      <trkpt lat="35.505202470" lon="-107.157447560">
        <ele>1799.800</ele>
        <time>2020-04-06T16:57:24Z</time>
      </trkpt>
      <trkpt lat="35.505193980" lon="-107.157498850">
        <ele>1799.600</ele>
        <time>2020-04-06T16:57:30Z</time>
      </trkpt>
      <trkpt lat="35.505198600" lon="-107.157544060">
        <ele>1799.500</ele>
        <time>2020-04-06T16:57:39Z</time>
      </trkpt>
      <trkpt lat="35.505187820" lon="-107.157593060">
        <ele>1798.100</ele>
        <time>2020-04-06T16:57:52Z</time>
      </trkpt>
      <trkpt lat="35.505149720" lon="-107.157609970">
        <ele>1798.600</ele>
        <time>2020-04-06T16:57:58Z</time>
      </trkpt>
      <trkpt lat="35.505113240" lon="-107.157631030">
        <ele>1798.100</ele>
        <time>2020-04-06T16:58:05Z</time>
      </trkpt>
      <trkpt lat="35.505076150" lon="-107.157664360">
        <ele>1798.100</ele>
        <time>2020-04-06T16:58:10Z</time>
      </trkpt>
      <trkpt lat="35.505044550" lon="-107.157695270">
        <ele>1798.100</ele>
        <time>2020-04-06T16:58:14Z</time>
      </trkpt>
      <trkpt lat="35.505023530" lon="-107.157736790">
        <ele>1801.200</ele>
        <time>2020-04-06T16:58:20Z</time>
      </trkpt>
      <trkpt lat="35.505005700" lon="-107.157779440">
        <ele>1799.100</ele>
        <time>2020-04-06T16:58:26Z</time>
      </trkpt>
      <trkpt lat="35.504983520" lon="-107.157822850">
        <ele>1799.000</ele>
        <time>2020-04-06T16:58:38Z</time>
      </trkpt>
      <trkpt lat="35.504955970" lon="-107.157863690">
        <ele>1799.900</ele>
        <time>2020-04-06T16:58:43Z</time>
      </trkpt>
      <trkpt lat="35.504939600" lon="-107.157912860">
        <ele>1799.300</ele>
        <time>2020-04-06T16:58:48Z</time>
      </trkpt>
      <trkpt lat="35.504932840" lon="-107.157957070">
        <ele>1799.100</ele>
        <time>2020-04-06T16:58:52Z</time>
      </trkpt>
      <trkpt lat="35.504911850" lon="-107.158003030">
        <ele>1798.400</ele>
        <time>2020-04-06T16:58:57Z</time>
      </trkpt>
      <trkpt lat="35.504894010" lon="-107.158053620">
        <ele>1797.600</ele>
        <time>2020-04-06T16:59:02Z</time>
      </trkpt>
      <trkpt lat="35.504877540" lon="-107.158097380">
        <ele>1798.100</ele>
        <time>2020-04-06T16:59:06Z</time>
      </trkpt>
      <trkpt lat="35.504848090" lon="-107.158135920">
        <ele>1798.100</ele>
        <time>2020-04-06T16:59:11Z</time>
      </trkpt>
      <trkpt lat="35.504817500" lon="-107.158173470">
        <ele>1798.500</ele>
        <time>2020-04-06T16:59:16Z</time>
      </trkpt>
      <trkpt lat="35.504790290" lon="-107.158215270">
        <ele>1799.200</ele>
        <time>2020-04-06T16:59:21Z</time>
      </trkpt>
      <trkpt lat="35.504776010" lon="-107.158265440">
        <ele>1799.900</ele>
        <time>2020-04-06T16:59:26Z</time>
      </trkpt>
      <trkpt lat="35.504757140" lon="-107.158304760">
        <ele>1799.800</ele>
        <time>2020-04-06T16:59:30Z</time>
      </trkpt>
      <trkpt lat="35.504748470" lon="-107.158360850">
        <ele>1799.100</ele>
        <time>2020-04-06T16:59:35Z</time>
      </trkpt>
      <trkpt lat="35.504736260" lon="-107.158405610">
        <ele>1793.800</ele>
        <time>2020-04-06T16:59:39Z</time>
      </trkpt>
      <trkpt lat="35.504731040" lon="-107.158459130">
        <ele>1799.300</ele>
        <time>2020-04-06T16:59:44Z</time>
      </trkpt>
      <trkpt lat="35.504724720" lon="-107.158506490">
        <ele>1800.000</ele>
        <time>2020-04-06T16:59:48Z</time>
      </trkpt>
      <trkpt lat="35.504728990" lon="-107.158561150">
        <ele>1800.400</ele>
        <time>2020-04-06T16:59:53Z</time>
      </trkpt>
      <trkpt lat="35.504733780" lon="-107.158609430">
        <ele>1797.600</ele>
        <time>2020-04-06T16:59:58Z</time>
      </trkpt>
      <trkpt lat="35.504751670" lon="-107.158655840">
        <ele>1799.700</ele>
        <time>2020-04-06T17:00:02Z</time>
      </trkpt>
      <trkpt lat="35.504784180" lon="-107.158679770">
        <ele>1799.000</ele>
        <time>2020-04-06T17:00:27Z</time>
      </trkpt>
      <trkpt lat="35.504784040" lon="-107.158726800">
        <ele>1799.200</ele>
        <time>2020-04-06T17:00:31Z</time>
      </trkpt>
      <trkpt lat="35.504786090" lon="-107.158772960">
        <ele>1798.200</ele>
        <time>2020-04-06T17:01:01Z</time>
      </trkpt>
      <trkpt lat="35.504773770" lon="-107.158823040">
        <ele>1798.200</ele>
        <time>2020-04-06T17:01:06Z</time>
      </trkpt>
      <trkpt lat="35.504741260" lon="-107.158849810">
        <ele>1799.000</ele>
        <time>2020-04-06T17:01:12Z</time>
      </trkpt>
      <trkpt lat="35.504718040" lon="-107.158892970">
        <ele>1798.200</ele>
        <time>2020-04-06T17:01:18Z</time>
      </trkpt>
      <trkpt lat="35.504711850" lon="-107.158943290">
        <ele>1797.800</ele>
        <time>2020-04-06T17:01:44Z</time>
      </trkpt>
      <trkpt lat="35.504700490" lon="-107.158991350">
        <ele>1798.400</ele>
        <time>2020-04-06T17:01:49Z</time>
      </trkpt>
      <trkpt lat="35.504705860" lon="-107.159044190">
        <ele>1797.300</ele>
        <time>2020-04-06T17:02:14Z</time>
      </trkpt>
      <trkpt lat="35.504695470" lon="-107.159088070">
        <ele>1797.500</ele>
        <time>2020-04-06T17:02:19Z</time>
      </trkpt>
      <trkpt lat="35.504680920" lon="-107.159135170">
        <ele>1797.100</ele>
        <time>2020-04-06T17:02:28Z</time>
      </trkpt>
      <trkpt lat="35.504640080" lon="-107.159151610">
        <ele>1796.200</ele>
        <time>2020-04-06T17:02:34Z</time>
      </trkpt>
      <trkpt lat="35.504607840" lon="-107.159179260">
        <ele>1797.100</ele>
        <time>2020-04-06T17:02:39Z</time>
      </trkpt>
      <trkpt lat="35.504586320" lon="-107.159224090">
        <ele>1797.800</ele>
        <time>2020-04-06T17:02:44Z</time>
      </trkpt>
      <trkpt lat="35.504559700" lon="-107.159256030">
        <ele>1797.900</ele>
        <time>2020-04-06T17:02:49Z</time>
      </trkpt>
      <trkpt lat="35.504521720" lon="-107.159274300">
        <ele>1797.400</ele>
        <time>2020-04-06T17:02:58Z</time>
      </trkpt>
      <trkpt lat="35.504496760" lon="-107.159310230">
        <ele>1797.800</ele>
        <time>2020-04-06T17:03:03Z</time>
      </trkpt>
      <trkpt lat="35.504475260" lon="-107.159357070">
        <ele>1797.900</ele>
        <time>2020-04-06T17:03:09Z</time>
      </trkpt>
      <trkpt lat="35.504445510" lon="-107.159390770">
        <ele>1796.900</ele>
        <time>2020-04-06T17:03:15Z</time>
      </trkpt>
      <trkpt lat="35.504405720" lon="-107.159393150">
        <ele>1796.700</ele>
        <time>2020-04-06T17:03:20Z</time>
      </trkpt>
      <trkpt lat="35.504368680" lon="-107.159424250">
        <ele>1796.800</ele>
        <time>2020-04-06T17:04:29Z</time>
      </trkpt>
      <trkpt lat="35.504333370" lon="-107.159452830">
        <ele>1796.600</ele>
        <time>2020-04-06T17:04:33Z</time>
      </trkpt>
      <trkpt lat="35.504306700" lon="-107.159501260">
        <ele>1796.000</ele>
        <time>2020-04-06T17:04:37Z</time>
      </trkpt>
      <trkpt lat="35.504283850" lon="-107.159548600">
        <ele>1796.600</ele>
        <time>2020-04-06T17:04:41Z</time>
      </trkpt>
      <trkpt lat="35.504284500" lon="-107.159597630">
        <ele>1792.800</ele>
        <time>2020-04-06T17:04:45Z</time>
      </trkpt>
      <trkpt lat="35.504260660" lon="-107.159634980">
        <ele>1795.100</ele>
        <time>2020-04-06T17:04:49Z</time>
      </trkpt>
      <trkpt lat="35.504224780" lon="-107.159665550">
        <ele>1795.500</ele>
        <time>2020-04-06T17:04:54Z</time>
      </trkpt>
      <trkpt lat="35.504196950" lon="-107.159698440">
        <ele>1795.600</ele>
        <time>2020-04-06T17:04:58Z</time>
      </trkpt>
      <trkpt lat="35.504178130" lon="-107.159743330">
        <ele>1796.400</ele>
        <time>2020-04-06T17:05:02Z</time>
      </trkpt>
      <trkpt lat="35.504157890" lon="-107.159781930">
        <ele>1796.000</ele>
        <time>2020-04-06T17:05:05Z</time>
      </trkpt>
      <trkpt lat="35.504132620" lon="-107.159818480">
        <ele>1796.500</ele>
        <time>2020-04-06T17:05:09Z</time>
      </trkpt>
      <trkpt lat="35.504113570" lon="-107.159861190">
        <ele>1788.100</ele>
        <time>2020-04-06T17:05:13Z</time>
      </trkpt>
      <trkpt lat="35.504089070" lon="-107.159904440">
        <ele>1796.100</ele>
        <time>2020-04-06T17:05:17Z</time>
      </trkpt>
      <trkpt lat="35.504051350" lon="-107.159928180">
        <ele>1797.400</ele>
        <time>2020-04-06T17:05:21Z</time>
      </trkpt>
      <trkpt lat="35.504010650" lon="-107.159950910">
        <ele>1798.000</ele>
        <time>2020-04-06T17:05:25Z</time>
      </trkpt>
      <trkpt lat="35.503970930" lon="-107.159975130">
        <ele>1798.800</ele>
        <time>2020-04-06T17:05:29Z</time>
      </trkpt>
      <trkpt lat="35.503943800" lon="-107.160014320">
        <ele>1802.700</ele>
        <time>2020-04-06T17:05:33Z</time>
      </trkpt>
      <trkpt lat="35.503912600" lon="-107.160050560">
        <ele>1800.900</ele>
        <time>2020-04-06T17:05:37Z</time>
      </trkpt>
      <trkpt lat="35.503872840" lon="-107.160080770">
        <ele>1799.700</ele>
        <time>2020-04-06T17:05:41Z</time>
      </trkpt>
      <trkpt lat="35.503846530" lon="-107.160115240">
        <ele>1799.500</ele>
        <time>2020-04-06T17:05:45Z</time>
      </trkpt>
      <trkpt lat="35.503822900" lon="-107.160154250">
        <ele>1789.900</ele>
        <time>2020-04-06T17:05:48Z</time>
      </trkpt>
      <trkpt lat="35.503798720" lon="-107.160194450">
        <ele>1797.600</ele>
        <time>2020-04-06T17:05:52Z</time>
      </trkpt>
      <trkpt lat="35.503773350" lon="-107.160239950">
        <ele>1799.300</ele>
        <time>2020-04-06T17:05:56Z</time>
      </trkpt>
      <trkpt lat="35.503767900" lon="-107.160291580">
        <ele>1799.400</ele>
        <time>2020-04-06T17:06:00Z</time>
      </trkpt>
      <trkpt lat="35.503745160" lon="-107.160333540">
        <ele>1799.900</ele>
        <time>2020-04-06T17:06:04Z</time>
      </trkpt>
      <trkpt lat="35.503717720" lon="-107.160365290">
        <ele>1799.600</ele>
        <time>2020-04-06T17:06:07Z</time>
      </trkpt>
      <trkpt lat="35.503689980" lon="-107.160405090">
        <ele>1799.500</ele>
        <time>2020-04-06T17:06:11Z</time>
      </trkpt>
      <trkpt lat="35.503669690" lon="-107.160452300">
        <ele>1799.900</ele>
        <time>2020-04-06T17:06:15Z</time>
      </trkpt>
      <trkpt lat="35.503629400" lon="-107.160469630">
        <ele>1800.400</ele>
        <time>2020-04-06T17:06:20Z</time>
      </trkpt>
      <trkpt lat="35.503591920" lon="-107.160489650">
        <ele>1799.900</ele>
        <time>2020-04-06T17:06:24Z</time>
      </trkpt>
      <trkpt lat="35.503561060" lon="-107.160529030">
        <ele>1799.800</ele>
        <time>2020-04-06T17:06:28Z</time>
      </trkpt>
      <trkpt lat="35.503526960" lon="-107.160560470">
        <ele>1800.800</ele>
        <time>2020-04-06T17:06:32Z</time>
      </trkpt>
      <trkpt lat="35.503498290" lon="-107.160603420">
        <ele>1801.200</ele>
        <time>2020-04-06T17:06:37Z</time>
      </trkpt>
      <trkpt lat="35.503462400" lon="-107.160632980">
        <ele>1801.600</ele>
        <time>2020-04-06T17:06:41Z</time>
      </trkpt>
      <trkpt lat="35.503458910" lon="-107.160683570">
        <ele>1801.700</ele>
        <time>2020-04-06T17:06:45Z</time>
      </trkpt>
      <trkpt lat="35.503464130" lon="-107.160728680">
        <ele>1802.100</ele>
        <time>2020-04-06T17:06:51Z</time>
      </trkpt>
      <trkpt lat="35.503474640" lon="-107.160775050">
        <ele>1801.800</ele>
        <time>2020-04-06T17:07:29Z</time>
      </trkpt>
      <trkpt lat="35.503460150" lon="-107.160818810">
        <ele>1801.700</ele>
        <time>2020-04-06T17:07:33Z</time>
      </trkpt>
      <trkpt lat="35.503444970" lon="-107.160862480">
        <ele>1801.500</ele>
        <time>2020-04-06T17:07:37Z</time>
      </trkpt>
      <trkpt lat="35.503437480" lon="-107.160909960">
        <ele>1801.000</ele>
        <time>2020-04-06T17:07:42Z</time>
      </trkpt>
      <trkpt lat="35.503419140" lon="-107.160952720">
        <ele>1800.100</ele>
        <time>2020-04-06T17:08:40Z</time>
      </trkpt>
      <trkpt lat="35.503442410" lon="-107.160990710">
        <ele>1800.500</ele>
        <time>2020-04-06T17:08:44Z</time>
      </trkpt>
      <trkpt lat="35.503451100" lon="-107.161041130">
        <ele>1800.900</ele>
        <time>2020-04-06T17:08:48Z</time>
      </trkpt>
      <trkpt lat="35.503466020" lon="-107.161085420">
        <ele>1802.000</ele>
        <time>2020-04-06T17:08:52Z</time>
      </trkpt>
      <trkpt lat="35.503451890" lon="-107.161133710">
        <ele>1802.200</ele>
        <time>2020-04-06T17:08:56Z</time>
      </trkpt>
      <trkpt lat="35.503436070" lon="-107.161174130">
        <ele>1800.900</ele>
        <time>2020-04-06T17:09:00Z</time>
      </trkpt>
      <trkpt lat="35.503448770" lon="-107.161220610">
        <ele>1802.500</ele>
        <time>2020-04-06T17:09:04Z</time>
      </trkpt>
      <trkpt lat="35.503435560" lon="-107.161274390">
        <ele>1802.000</ele>
        <time>2020-04-06T17:09:08Z</time>
      </trkpt>
      <trkpt lat="35.503421480" lon="-107.161321890">
        <ele>1801.500</ele>
        <time>2020-04-06T17:09:12Z</time>
      </trkpt>
      <trkpt lat="35.503440670" lon="-107.161370580">
        <ele>1801.400</ele>
        <time>2020-04-06T17:09:16Z</time>
      </trkpt>
      <trkpt lat="35.503449730" lon="-107.161421770">
        <ele>1802.500</ele>
        <time>2020-04-06T17:09:21Z</time>
      </trkpt>
      <trkpt lat="35.503451320" lon="-107.161469460">
        <ele>1803.200</ele>
        <time>2020-04-06T17:09:27Z</time>
      </trkpt>
      <trkpt lat="35.503414920" lon="-107.161497270">
        <ele>1802.800</ele>
        <time>2020-04-06T17:09:32Z</time>
      </trkpt>
      <trkpt lat="35.503408020" lon="-107.161545140">
        <ele>1803.700</ele>
        <time>2020-04-06T17:09:36Z</time>
      </trkpt>
      <trkpt lat="35.503393480" lon="-107.161588980">
        <ele>1803.600</ele>
        <time>2020-04-06T17:10:04Z</time>
      </trkpt>
      <trkpt lat="35.503391680" lon="-107.161638820">
        <ele>1803.700</ele>
        <time>2020-04-06T17:10:09Z</time>
      </trkpt>
      <trkpt lat="35.503391180" lon="-107.161686840">
        <ele>1803.200</ele>
        <time>2020-04-06T17:10:14Z</time>
      </trkpt>
      <trkpt lat="35.503417840" lon="-107.161732200">
        <ele>1804.100</ele>
        <time>2020-04-06T17:10:19Z</time>
      </trkpt>
      <trkpt lat="35.503410970" lon="-107.161782090">
        <ele>1803.000</ele>
        <time>2020-04-06T17:10:23Z</time>
      </trkpt>
      <trkpt lat="35.503396990" lon="-107.161822980">
        <ele>1803.300</ele>
        <time>2020-04-06T17:10:28Z</time>
      </trkpt>
      <trkpt lat="35.503402880" lon="-107.161871900">
        <ele>1802.900</ele>
        <time>2020-04-06T17:10:33Z</time>
      </trkpt>
      <trkpt lat="35.503415840" lon="-107.161913820">
        <ele>1802.200</ele>
        <time>2020-04-06T17:10:37Z</time>
      </trkpt>
      <trkpt lat="35.503448110" lon="-107.161939740">
        <ele>1801.800</ele>
        <time>2020-04-06T17:10:42Z</time>
      </trkpt>
      <trkpt lat="35.503433650" lon="-107.161989110">
        <ele>1802.600</ele>
        <time>2020-04-06T17:10:47Z</time>
      </trkpt>
      <trkpt lat="35.503419280" lon="-107.162040630">
        <ele>1802.900</ele>
        <time>2020-04-06T17:10:52Z</time>
      </trkpt>
      <trkpt lat="35.503414410" lon="-107.162088480">
        <ele>1802.900</ele>
        <time>2020-04-06T17:10:56Z</time>
      </trkpt>
      <trkpt lat="35.503406450" lon="-107.162136530">
        <ele>1802.300</ele>
        <time>2020-04-06T17:11:00Z</time>
      </trkpt>
      <trkpt lat="35.503389750" lon="-107.162179600">
        <ele>1802.500</ele>
        <time>2020-04-06T17:11:05Z</time>
      </trkpt>
      <trkpt lat="35.503367280" lon="-107.162226750">
        <ele>1802.500</ele>
        <time>2020-04-06T17:11:10Z</time>
      </trkpt>
      <trkpt lat="35.503341310" lon="-107.162272230">
        <ele>1801.900</ele>
        <time>2020-04-06T17:11:14Z</time>
      </trkpt>
      <trkpt lat="35.503330720" lon="-107.162322000">
        <ele>1801.900</ele>
        <time>2020-04-06T17:11:18Z</time>
      </trkpt>
      <trkpt lat="35.503333090" lon="-107.162372870">
        <ele>1802.200</ele>
        <time>2020-04-06T17:11:25Z</time>
      </trkpt>
      <trkpt lat="35.503339610" lon="-107.162423490">
        <ele>1802.600</ele>
        <time>2020-04-06T17:11:29Z</time>
      </trkpt>
      <trkpt lat="35.503343250" lon="-107.162468970">
        <ele>1802.700</ele>
        <time>2020-04-06T17:11:33Z</time>
      </trkpt>
      <trkpt lat="35.503330880" lon="-107.162515440">
        <ele>1801.800</ele>
        <time>2020-04-06T17:11:37Z</time>
      </trkpt>
      <trkpt lat="35.503330890" lon="-107.162568780">
        <ele>1801.900</ele>
        <time>2020-04-06T17:11:41Z</time>
      </trkpt>
      <trkpt lat="35.503351600" lon="-107.162613700">
        <ele>1802.800</ele>
        <time>2020-04-06T17:11:45Z</time>
      </trkpt>
      <trkpt lat="35.503345040" lon="-107.162659130">
        <ele>1802.700</ele>
        <time>2020-04-06T17:11:49Z</time>
      </trkpt>
      <trkpt lat="35.503329900" lon="-107.162704180">
        <ele>1802.100</ele>
        <time>2020-04-06T17:11:53Z</time>
      </trkpt>
      <trkpt lat="35.503343180" lon="-107.162746870">
        <ele>1801.900</ele>
        <time>2020-04-06T17:11:57Z</time>
      </trkpt>
      <trkpt lat="35.503353390" lon="-107.162790210">
        <ele>1802.700</ele>
        <time>2020-04-06T17:12:01Z</time>
      </trkpt>
      <trkpt lat="35.503366300" lon="-107.162833030">
        <ele>1802.700</ele>
        <time>2020-04-06T17:12:05Z</time>
      </trkpt>
      <trkpt lat="35.503382700" lon="-107.162878010">
        <ele>1803.200</ele>
        <time>2020-04-06T17:12:10Z</time>
      </trkpt>
      <trkpt lat="35.503405390" lon="-107.162913930">
        <ele>1803.500</ele>
        <time>2020-04-06T17:12:14Z</time>
      </trkpt>
      <trkpt lat="35.503411370" lon="-107.162965370">
        <ele>1803.900</ele>
        <time>2020-04-06T17:12:19Z</time>
      </trkpt>
      <trkpt lat="35.503409950" lon="-107.163015720">
        <ele>1804.000</ele>
        <time>2020-04-06T17:12:24Z</time>
      </trkpt>
      <trkpt lat="35.503407660" lon="-107.163069800">
        <ele>1804.200</ele>
        <time>2020-04-06T17:12:29Z</time>
      </trkpt>
      <trkpt lat="35.503398710" lon="-107.163115630">
        <ele>1804.400</ele>
        <time>2020-04-06T17:12:33Z</time>
      </trkpt>
      <trkpt lat="35.503405680" lon="-107.163167530">
        <ele>1805.300</ele>
        <time>2020-04-06T17:12:38Z</time>
      </trkpt>
      <trkpt lat="35.503417450" lon="-107.163211380">
        <ele>1805.800</ele>
        <time>2020-04-06T17:12:42Z</time>
      </trkpt>
      <trkpt lat="35.503413400" lon="-107.163259920">
        <ele>1806.100</ele>
        <time>2020-04-06T17:12:46Z</time>
      </trkpt>
      <trkpt lat="35.503409420" lon="-107.163308100">
        <ele>1806.100</ele>
        <time>2020-04-06T17:12:50Z</time>
      </trkpt>
      <trkpt lat="35.503429960" lon="-107.163357350">
        <ele>1806.200</ele>
        <time>2020-04-06T17:12:55Z</time>
      </trkpt>
      <trkpt lat="35.503446630" lon="-107.163407540">
        <ele>1805.900</ele>
        <time>2020-04-06T17:13:00Z</time>
      </trkpt>
      <trkpt lat="35.503454950" lon="-107.163451300">
        <ele>1805.600</ele>
        <time>2020-04-06T17:13:04Z</time>
      </trkpt>
      <trkpt lat="35.503466120" lon="-107.163504810">
        <ele>1806.100</ele>
        <time>2020-04-06T17:13:09Z</time>
      </trkpt>
      <trkpt lat="35.503481270" lon="-107.163551890">
        <ele>1805.600</ele>
        <time>2020-04-06T17:13:13Z</time>
      </trkpt>
      <trkpt lat="35.503490460" lon="-107.163603920">
        <ele>1806.000</ele>
        <time>2020-04-06T17:13:17Z</time>
      </trkpt>
      <trkpt lat="35.503506890" lon="-107.163647140">
        <ele>1806.100</ele>
        <time>2020-04-06T17:13:21Z</time>
      </trkpt>
      <trkpt lat="35.503517210" lon="-107.163694830">
        <ele>1806.000</ele>
        <time>2020-04-06T17:13:25Z</time>
      </trkpt>
      <trkpt lat="35.503527170" lon="-107.163746340">
        <ele>1806.600</ele>
        <time>2020-04-06T17:13:30Z</time>
      </trkpt>
      <trkpt lat="35.503521800" lon="-107.163796960">
        <ele>1806.700</ele>
        <time>2020-04-06T17:13:35Z</time>
      </trkpt>
      <trkpt lat="35.503535930" lon="-107.163838280">
        <ele>1807.000</ele>
        <time>2020-04-06T17:13:39Z</time>
      </trkpt>
      <trkpt lat="35.503549090" lon="-107.163887940">
        <ele>1805.700</ele>
        <time>2020-04-06T17:13:51Z</time>
      </trkpt>
      <trkpt lat="35.503562570" lon="-107.163932620">
        <ele>1804.600</ele>
        <time>2020-04-06T17:15:30Z</time>
      </trkpt>
      <trkpt lat="35.503602580" lon="-107.163948390">
        <ele>1805.400</ele>
        <time>2020-04-06T17:15:35Z</time>
      </trkpt>
      <trkpt lat="35.503632810" lon="-107.163990300">
        <ele>1805.400</ele>
        <time>2020-04-06T17:15:40Z</time>
      </trkpt>
      <trkpt lat="35.503667210" lon="-107.164018260">
        <ele>1804.600</ele>
        <time>2020-04-06T17:15:45Z</time>
      </trkpt>
      <trkpt lat="35.503698390" lon="-107.164040620">
        <ele>1804.700</ele>
        <time>2020-04-06T17:15:50Z</time>
      </trkpt>
      <trkpt lat="35.503728430" lon="-107.164074860">
        <ele>1804.800</ele>
        <time>2020-04-06T17:15:55Z</time>
      </trkpt>
      <trkpt lat="35.503733000" lon="-107.164127210">
        <ele>1805.100</ele>
        <time>2020-04-06T17:16:01Z</time>
      </trkpt>
      <trkpt lat="35.503739430" lon="-107.164172870">
        <ele>1805.000</ele>
        <time>2020-04-06T17:16:05Z</time>
      </trkpt>
      <trkpt lat="35.503736170" lon="-107.164220120">
        <ele>1804.400</ele>
        <time>2020-04-06T17:16:10Z</time>
      </trkpt>
      <trkpt lat="35.503717600" lon="-107.164263250">
        <ele>1804.000</ele>
        <time>2020-04-06T17:16:15Z</time>
      </trkpt>
      <trkpt lat="35.503738020" lon="-107.164302080">
        <ele>1803.000</ele>
        <time>2020-04-06T17:16:20Z</time>
      </trkpt>
      <trkpt lat="35.503763340" lon="-107.164334720">
        <ele>1803.200</ele>
        <time>2020-04-06T17:16:24Z</time>
      </trkpt>
      <trkpt lat="35.503789920" lon="-107.164370170">
        <ele>1804.200</ele>
        <time>2020-04-06T17:16:28Z</time>
      </trkpt>
      <trkpt lat="35.503815220" lon="-107.164402630">
        <ele>1804.200</ele>
        <time>2020-04-06T17:16:32Z</time>
      </trkpt>
      <trkpt lat="35.503835330" lon="-107.164440750">
        <ele>1803.900</ele>
        <time>2020-04-06T17:16:37Z</time>
      </trkpt>
      <trkpt lat="35.503836500" lon="-107.164486390">
        <ele>1805.000</ele>
        <time>2020-04-06T17:17:02Z</time>
      </trkpt>
      <trkpt lat="35.503828230" lon="-107.164436580">
        <ele>1806.000</ele>
        <time>2020-04-06T17:19:12Z</time>
      </trkpt>
      <trkpt lat="35.503794800" lon="-107.164462370">
        <ele>1804.600</ele>
        <time>2020-04-06T17:19:23Z</time>
      </trkpt>
      <trkpt lat="35.503777980" lon="-107.164503210">
        <ele>1803.500</ele>
        <time>2020-04-06T17:19:32Z</time>
      </trkpt>
      <trkpt lat="35.503773540" lon="-107.164552980">
        <ele>1802.800</ele>
        <time>2020-04-06T17:19:37Z</time>
      </trkpt>
      <trkpt lat="35.503744260" lon="-107.164586290">
        <ele>1801.800</ele>
        <time>2020-04-06T17:19:47Z</time>
      </trkpt>
      <trkpt lat="35.503713340" lon="-107.164614270">
        <ele>1801.100</ele>
        <time>2020-04-06T17:19:53Z</time>
      </trkpt>
      <trkpt lat="35.503731770" lon="-107.164653940">
        <ele>1800.200</ele>
        <time>2020-04-06T17:19:59Z</time>
      </trkpt>
      <trkpt lat="35.503746950" lon="-107.164695940">
        <ele>1800.600</ele>
        <time>2020-04-06T17:20:49Z</time>
      </trkpt>
      <trkpt lat="35.503769440" lon="-107.164733440">
        <ele>1801.900</ele>
        <time>2020-04-06T17:20:55Z</time>
      </trkpt>
      <trkpt lat="35.503787420" lon="-107.164776180">
        <ele>1802.000</ele>
        <time>2020-04-06T17:21:00Z</time>
      </trkpt>
      <trkpt lat="35.503795240" lon="-107.164826280">
        <ele>1802.100</ele>
        <time>2020-04-06T17:21:05Z</time>
      </trkpt>
      <trkpt lat="35.503803370" lon="-107.164872080">
        <ele>1802.100</ele>
        <time>2020-04-06T17:21:13Z</time>
      </trkpt>
      <trkpt lat="35.503805600" lon="-107.164916560">
        <ele>1802.000</ele>
        <time>2020-04-06T17:21:19Z</time>
      </trkpt>
      <trkpt lat="35.503824520" lon="-107.164963930">
        <ele>1801.500</ele>
        <time>2020-04-06T17:21:25Z</time>
      </trkpt>
      <trkpt lat="35.503830570" lon="-107.165008990">
        <ele>1801.200</ele>
        <time>2020-04-06T17:21:29Z</time>
      </trkpt>
      <trkpt lat="35.503846370" lon="-107.165058400">
        <ele>1801.100</ele>
        <time>2020-04-06T17:21:34Z</time>
      </trkpt>
      <trkpt lat="35.503865980" lon="-107.165096890">
        <ele>1800.900</ele>
        <time>2020-04-06T17:21:38Z</time>
      </trkpt>
      <trkpt lat="35.503893190" lon="-107.165131290">
        <ele>1801.100</ele>
        <time>2020-04-06T17:21:42Z</time>
      </trkpt>
      <trkpt lat="35.503920470" lon="-107.165170010">
        <ele>1801.400</ele>
        <time>2020-04-06T17:21:47Z</time>
      </trkpt>
      <trkpt lat="35.503945440" lon="-107.165202470">
        <ele>1801.100</ele>
        <time>2020-04-06T17:21:52Z</time>
      </trkpt>
      <trkpt lat="35.503971260" lon="-107.165240440">
        <ele>1800.900</ele>
        <time>2020-04-06T17:22:08Z</time>
      </trkpt>
      <trkpt lat="35.504004750" lon="-107.165264990">
        <ele>1801.500</ele>
        <time>2020-04-06T17:22:14Z</time>
      </trkpt>
      <trkpt lat="35.504034900" lon="-107.165299210">
        <ele>1801.800</ele>
        <time>2020-04-06T17:22:19Z</time>
      </trkpt>
      <trkpt lat="35.504064170" lon="-107.165326100">
        <ele>1801.600</ele>
        <time>2020-04-06T17:22:25Z</time>
      </trkpt>
      <trkpt lat="35.504098200" lon="-107.165346730">
        <ele>1800.600</ele>
        <time>2020-04-06T17:22:37Z</time>
      </trkpt>
      <trkpt lat="35.504129240" lon="-107.165382890">
        <ele>1800.100</ele>
        <time>2020-04-06T17:22:43Z</time>
      </trkpt>
      <trkpt lat="35.504127790" lon="-107.165336640">
        <ele>1798.100</ele>
        <time>2020-04-06T17:23:09Z</time>
      </trkpt>
      <trkpt lat="35.504090340" lon="-107.165314920">
        <ele>1798.200</ele>
        <time>2020-04-06T17:23:15Z</time>
      </trkpt>
      <trkpt lat="35.504060820" lon="-107.165283170">
        <ele>1798.600</ele>
        <time>2020-04-06T17:23:21Z</time>
      </trkpt>
      <trkpt lat="35.504036580" lon="-107.165250520">
        <ele>1798.800</ele>
        <time>2020-04-06T17:23:26Z</time>
      </trkpt>
      <trkpt lat="35.504000250" lon="-107.165249160">
        <ele>1798.200</ele>
        <time>2020-04-06T17:23:33Z</time>
      </trkpt>
      <trkpt lat="35.503985700" lon="-107.165295320">
        <ele>1798.400</ele>
        <time>2020-04-06T17:23:44Z</time>
      </trkpt>
      <trkpt lat="35.503985850" lon="-107.165353180">
        <ele>1798.500</ele>
        <time>2020-04-06T17:24:09Z</time>
      </trkpt>
      <trkpt lat="35.504000620" lon="-107.165393570">
        <ele>1798.800</ele>
        <time>2020-04-06T17:24:29Z</time>
      </trkpt>
      <trkpt lat="35.504031320" lon="-107.165422220">
        <ele>1799.200</ele>
        <time>2020-04-06T17:24:36Z</time>
      </trkpt>
      <trkpt lat="35.504063610" lon="-107.165458450">
        <ele>1800.500</ele>
        <time>2020-04-06T17:24:42Z</time>
      </trkpt>
      <trkpt lat="35.504086720" lon="-107.165497800">
        <ele>1798.800</ele>
        <time>2020-04-06T17:24:47Z</time>
      </trkpt>
      <trkpt lat="35.504100580" lon="-107.165539080">
        <ele>1798.500</ele>
        <time>2020-04-06T17:24:52Z</time>
      </trkpt>
      <trkpt lat="35.504113440" lon="-107.165585210">
        <ele>1797.700</ele>
        <time>2020-04-06T17:24:57Z</time>
      </trkpt>
      <trkpt lat="35.504126210" lon="-107.165628690">
        <ele>1798.000</ele>
        <time>2020-04-06T17:25:03Z</time>
      </trkpt>
      <trkpt lat="35.504144640" lon="-107.165671940">
        <ele>1798.400</ele>
        <time>2020-04-06T17:25:18Z</time>
      </trkpt>
      <trkpt lat="35.504143790" lon="-107.165722890">
        <ele>1798.900</ele>
        <time>2020-04-06T17:25:30Z</time>
      </trkpt>
      <trkpt lat="35.504159460" lon="-107.165771580">
        <ele>1799.100</ele>
        <time>2020-04-06T17:25:36Z</time>
      </trkpt>
      <trkpt lat="35.504158650" lon="-107.165819920">
        <ele>1799.700</ele>
        <time>2020-04-06T17:25:42Z</time>
      </trkpt>
      <trkpt lat="35.504142090" lon="-107.165868920">
        <ele>1800.600</ele>
        <time>2020-04-06T17:25:48Z</time>
      </trkpt>
      <trkpt lat="35.504137860" lon="-107.165920340">
        <ele>1800.800</ele>
        <time>2020-04-06T17:25:53Z</time>
      </trkpt>
      <trkpt lat="35.504156120" lon="-107.165966930">
        <ele>1801.800</ele>
        <time>2020-04-06T17:25:58Z</time>
      </trkpt>
      <trkpt lat="35.504181260" lon="-107.166002500">
        <ele>1802.800</ele>
        <time>2020-04-06T17:26:02Z</time>
      </trkpt>
      <trkpt lat="35.504206250" lon="-107.166046830">
        <ele>1801.600</ele>
        <time>2020-04-06T17:26:07Z</time>
      </trkpt>
      <trkpt lat="35.504227890" lon="-107.166091990">
        <ele>1801.000</ele>
        <time>2020-04-06T17:26:12Z</time>
      </trkpt>
      <trkpt lat="35.504228110" lon="-107.166143560">
        <ele>1801.100</ele>
        <time>2020-04-06T17:26:18Z</time>
      </trkpt>
      <trkpt lat="35.504243850" lon="-107.166191090">
        <ele>1800.900</ele>
        <time>2020-04-06T17:26:31Z</time>
      </trkpt>
      <trkpt lat="35.504253310" lon="-107.166234420">
        <ele>1800.700</ele>
        <time>2020-04-06T17:26:46Z</time>
      </trkpt>
      <trkpt lat="35.504259820" lon="-107.166287420">
        <ele>1801.500</ele>
        <time>2020-04-06T17:26:52Z</time>
      </trkpt>
      <trkpt lat="35.504272710" lon="-107.166333230">
        <ele>1800.200</ele>
        <time>2020-04-06T17:26:56Z</time>
      </trkpt>
      <trkpt lat="35.504272500" lon="-107.166377620">
        <ele>1800.300</ele>
        <time>2020-04-06T17:27:00Z</time>
      </trkpt>
      <trkpt lat="35.504270830" lon="-107.166427650">
        <ele>1800.900</ele>
        <time>2020-04-06T17:27:05Z</time>
      </trkpt>
      <trkpt lat="35.504272430" lon="-107.166473000">
        <ele>1800.500</ele>
        <time>2020-04-06T17:27:09Z</time>
      </trkpt>
      <trkpt lat="35.504264300" lon="-107.166517200">
        <ele>1799.900</ele>
        <time>2020-04-06T17:27:13Z</time>
      </trkpt>
      <trkpt lat="35.504277220" lon="-107.166569580">
        <ele>1800.700</ele>
        <time>2020-04-06T17:27:18Z</time>
      </trkpt>
      <trkpt lat="35.504286510" lon="-107.166612390">
        <ele>1801.200</ele>
        <time>2020-04-06T17:27:22Z</time>
      </trkpt>
      <trkpt lat="35.504287530" lon="-107.166659700">
        <ele>1801.700</ele>
        <time>2020-04-06T17:27:27Z</time>
      </trkpt>
      <trkpt lat="35.504284860" lon="-107.166706860">
        <ele>1801.300</ele>
        <time>2020-04-06T17:27:32Z</time>
      </trkpt>
      <trkpt lat="35.504287420" lon="-107.166762950">
        <ele>1800.900</ele>
        <time>2020-04-06T17:27:50Z</time>
      </trkpt>
      <trkpt lat="35.504287120" lon="-107.166808870">
        <ele>1801.100</ele>
        <time>2020-04-06T17:27:58Z</time>
      </trkpt>
      <trkpt lat="35.504284400" lon="-107.166853420">
        <ele>1801.400</ele>
        <time>2020-04-06T17:28:14Z</time>
      </trkpt>
      <trkpt lat="35.504283080" lon="-107.166902040">
        <ele>1802.300</ele>
        <time>2020-04-06T17:28:19Z</time>
      </trkpt>
      <trkpt lat="35.504288800" lon="-107.166946220">
        <ele>1802.900</ele>
        <time>2020-04-06T17:28:25Z</time>
      </trkpt>
      <trkpt lat="35.504287980" lon="-107.166999020">
        <ele>1802.900</ele>
        <time>2020-04-06T17:28:30Z</time>
      </trkpt>
      <trkpt lat="35.504281910" lon="-107.167046550">
        <ele>1802.300</ele>
        <time>2020-04-06T17:28:35Z</time>
      </trkpt>
      <trkpt lat="35.504278420" lon="-107.167091950">
        <ele>1802.900</ele>
        <time>2020-04-06T17:28:40Z</time>
      </trkpt>
      <trkpt lat="35.504267530" lon="-107.167142060">
        <ele>1803.400</ele>
        <time>2020-04-06T17:28:46Z</time>
      </trkpt>
      <trkpt lat="35.504253780" lon="-107.167186110">
        <ele>1804.200</ele>
        <time>2020-04-06T17:28:52Z</time>
      </trkpt>
      <trkpt lat="35.504239690" lon="-107.167232870">
        <ele>1804.800</ele>
        <time>2020-04-06T17:28:58Z</time>
      </trkpt>
      <trkpt lat="35.504226510" lon="-107.167275420">
        <ele>1804.200</ele>
        <time>2020-04-06T17:29:02Z</time>
      </trkpt>
      <trkpt lat="35.504195580" lon="-107.167313360">
        <ele>1803.700</ele>
        <time>2020-04-06T17:29:08Z</time>
      </trkpt>
      <trkpt lat="35.504178340" lon="-107.167358600">
        <ele>1803.800</ele>
        <time>2020-04-06T17:29:14Z</time>
      </trkpt>
      <trkpt lat="35.504219030" lon="-107.167375770">
        <ele>1800.400</ele>
        <time>2020-04-06T17:29:33Z</time>
      </trkpt>
      <trkpt lat="35.504254630" lon="-107.167401400">
        <ele>1798.800</ele>
        <time>2020-04-06T17:29:40Z</time>
      </trkpt>
      <trkpt lat="35.504261270" lon="-107.167446860">
        <ele>1799.400</ele>
        <time>2020-04-06T17:29:46Z</time>
      </trkpt>
      <trkpt lat="35.504253020" lon="-107.167489820">
        <ele>1798.600</ele>
        <time>2020-04-06T17:29:50Z</time>
      </trkpt>
      <trkpt lat="35.504248190" lon="-107.167535690">
        <ele>1798.700</ele>
        <time>2020-04-06T17:30:00Z</time>
      </trkpt>
      <trkpt lat="35.504238200" lon="-107.167584740">
        <ele>1799.100</ele>
        <time>2020-04-06T17:30:08Z</time>
      </trkpt>
      <trkpt lat="35.504223410" lon="-107.167632530">
        <ele>1800.700</ele>
        <time>2020-04-06T17:30:14Z</time>
      </trkpt>
      <trkpt lat="35.504201880" lon="-107.167672400">
        <ele>1800.100</ele>
        <time>2020-04-06T17:30:19Z</time>
      </trkpt>
      <trkpt lat="35.504217600" lon="-107.167715520">
        <ele>1801.200</ele>
        <time>2020-04-06T17:31:21Z</time>
      </trkpt>
      <trkpt lat="35.504254820" lon="-107.167741620">
        <ele>1802.100</ele>
        <time>2020-04-06T17:31:26Z</time>
      </trkpt>
      <trkpt lat="35.504263710" lon="-107.167787160">
        <ele>1804.500</ele>
        <time>2020-04-06T17:31:31Z</time>
      </trkpt>
      <trkpt lat="35.504272600" lon="-107.167832160">
        <ele>1806.300</ele>
        <time>2020-04-06T17:31:36Z</time>
      </trkpt>
      <trkpt lat="35.504284850" lon="-107.167875470">
        <ele>1807.200</ele>
        <time>2020-04-06T17:31:40Z</time>
      </trkpt>
      <trkpt lat="35.504284110" lon="-107.167925320">
        <ele>1808.700</ele>
        <time>2020-04-06T17:31:45Z</time>
      </trkpt>
      <trkpt lat="35.504290420" lon="-107.167979010">
        <ele>1808.200</ele>
        <time>2020-04-06T17:31:50Z</time>
      </trkpt>
      <trkpt lat="35.504295990" lon="-107.168035740">
        <ele>1808.800</ele>
        <time>2020-04-06T17:31:55Z</time>
      </trkpt>
      <trkpt lat="35.504302200" lon="-107.168086340">
        <ele>1809.400</ele>
        <time>2020-04-06T17:31:59Z</time>
      </trkpt>
      <trkpt lat="35.504312900" lon="-107.168133110">
        <ele>1809.300</ele>
        <time>2020-04-06T17:32:03Z</time>
      </trkpt>
      <trkpt lat="35.504322900" lon="-107.168182360">
        <ele>1809.800</ele>
        <time>2020-04-06T17:32:07Z</time>
      </trkpt>
      <trkpt lat="35.504334060" lon="-107.168224660">
        <ele>1811.200</ele>
        <time>2020-04-06T17:32:11Z</time>
      </trkpt>
      <trkpt lat="35.504353810" lon="-107.168269450">
        <ele>1811.800</ele>
        <time>2020-04-06T17:32:15Z</time>
      </trkpt>
      <trkpt lat="35.504364910" lon="-107.168317250">
        <ele>1811.600</ele>
        <time>2020-04-06T17:32:19Z</time>
      </trkpt>
      <trkpt lat="35.504364320" lon="-107.168368350">
        <ele>1811.500</ele>
        <time>2020-04-06T17:32:50Z</time>
      </trkpt>
      <trkpt lat="35.504357840" lon="-107.168413490">
        <ele>1811.100</ele>
        <time>2020-04-06T17:32:55Z</time>
      </trkpt>
      <trkpt lat="35.504362330" lon="-107.168461880">
        <ele>1810.800</ele>
        <time>2020-04-06T17:32:59Z</time>
      </trkpt>
      <trkpt lat="35.504368830" lon="-107.168514150">
        <ele>1810.300</ele>
        <time>2020-04-06T17:33:03Z</time>
      </trkpt>
      <trkpt lat="35.504371260" lon="-107.168571330">
        <ele>1809.200</ele>
        <time>2020-04-06T17:33:07Z</time>
      </trkpt>
      <trkpt lat="35.504368950" lon="-107.168625280">
        <ele>1810.900</ele>
        <time>2020-04-06T17:33:11Z</time>
      </trkpt>
      <trkpt lat="35.504371670" lon="-107.168674720">
        <ele>1810.600</ele>
        <time>2020-04-06T17:33:15Z</time>
      </trkpt>
      <trkpt lat="35.504378300" lon="-107.168721220">
        <ele>1809.700</ele>
        <time>2020-04-06T17:33:19Z</time>
      </trkpt>
      <trkpt lat="35.504392520" lon="-107.168772280">
        <ele>1810.200</ele>
        <time>2020-04-06T17:33:23Z</time>
      </trkpt>
      <trkpt lat="35.504390820" lon="-107.168824270">
        <ele>1809.800</ele>
        <time>2020-04-06T17:33:28Z</time>
      </trkpt>
      <trkpt lat="35.504394960" lon="-107.168872550">
        <ele>1810.100</ele>
        <time>2020-04-06T17:33:32Z</time>
      </trkpt>
      <trkpt lat="35.504395510" lon="-107.168927210">
        <ele>1810.900</ele>
        <time>2020-04-06T17:33:36Z</time>
      </trkpt>
      <trkpt lat="35.504401820" lon="-107.168979780">
        <ele>1811.400</ele>
        <time>2020-04-06T17:33:40Z</time>
      </trkpt>
      <trkpt lat="35.504416530" lon="-107.169030690">
        <ele>1811.100</ele>
        <time>2020-04-06T17:33:44Z</time>
      </trkpt>
      <trkpt lat="35.504430550" lon="-107.169086500">
        <ele>1811.100</ele>
        <time>2020-04-06T17:33:48Z</time>
      </trkpt>
      <trkpt lat="35.504434460" lon="-107.169136150">
        <ele>1811.300</ele>
        <time>2020-04-06T17:33:52Z</time>
      </trkpt>
      <trkpt lat="35.504432640" lon="-107.169190950">
        <ele>1811.300</ele>
        <time>2020-04-06T17:33:56Z</time>
      </trkpt>
      <trkpt lat="35.504440850" lon="-107.169243560">
        <ele>1810.400</ele>
        <time>2020-04-06T17:34:00Z</time>
      </trkpt>
      <trkpt lat="35.504441630" lon="-107.169287750">
        <ele>1810.700</ele>
        <time>2020-04-06T17:34:03Z</time>
      </trkpt>
      <trkpt lat="35.504446350" lon="-107.169345460">
        <ele>1810.900</ele>
        <time>2020-04-06T17:34:07Z</time>
      </trkpt>
      <trkpt lat="35.504444410" lon="-107.169390020">
        <ele>1811.400</ele>
        <time>2020-04-06T17:34:11Z</time>
      </trkpt>
      <trkpt lat="35.504439180" lon="-107.169435620">
        <ele>1812.100</ele>
        <time>2020-04-06T17:34:15Z</time>
      </trkpt>
      <trkpt lat="35.504425140" lon="-107.169478340">
        <ele>1811.100</ele>
        <time>2020-04-06T17:34:18Z</time>
      </trkpt>
      <trkpt lat="35.504406680" lon="-107.169524510">
        <ele>1810.400</ele>
        <time>2020-04-06T17:34:22Z</time>
      </trkpt>
      <trkpt lat="35.504400900" lon="-107.169576470">
        <ele>1811.600</ele>
        <time>2020-04-06T17:34:26Z</time>
      </trkpt>
      <trkpt lat="35.504386570" lon="-107.169624810">
        <ele>1811.500</ele>
        <time>2020-04-06T17:34:30Z</time>
      </trkpt>
      <trkpt lat="35.504367300" lon="-107.169673940">
        <ele>1811.700</ele>
        <time>2020-04-06T17:34:34Z</time>
      </trkpt>
      <trkpt lat="35.504355620" lon="-107.169727810">
        <ele>1811.000</ele>
        <time>2020-04-06T17:34:38Z</time>
      </trkpt>
      <trkpt lat="35.504334540" lon="-107.169771880">
        <ele>1811.100</ele>
        <time>2020-04-06T17:34:42Z</time>
      </trkpt>
      <trkpt lat="35.504319870" lon="-107.169815760">
        <ele>1811.400</ele>
        <time>2020-04-06T17:34:45Z</time>
      </trkpt>
      <trkpt lat="35.504306150" lon="-107.169871780">
        <ele>1811.000</ele>
        <time>2020-04-06T17:34:49Z</time>
      </trkpt>
      <trkpt lat="35.504286770" lon="-107.169923780">
        <ele>1811.100</ele>
        <time>2020-04-06T17:34:53Z</time>
      </trkpt>
      <trkpt lat="35.504267740" lon="-107.169974970">
        <ele>1810.300</ele>
        <time>2020-04-06T17:34:57Z</time>
      </trkpt>
      <trkpt lat="35.504249990" lon="-107.170027570">
        <ele>1810.500</ele>
        <time>2020-04-06T17:35:01Z</time>
      </trkpt>
      <trkpt lat="35.504231470" lon="-107.170069420">
        <ele>1810.500</ele>
        <time>2020-04-06T17:35:05Z</time>
      </trkpt>
      <trkpt lat="35.504217810" lon="-107.170119410">
        <ele>1809.700</ele>
        <time>2020-04-06T17:35:10Z</time>
      </trkpt>
      <trkpt lat="35.504205130" lon="-107.170165700">
        <ele>1809.200</ele>
        <time>2020-04-06T17:35:15Z</time>
      </trkpt>
      <trkpt lat="35.504196000" lon="-107.170213830">
        <ele>1809.100</ele>
        <time>2020-04-06T17:35:20Z</time>
      </trkpt>
      <trkpt lat="35.504189200" lon="-107.170262230">
        <ele>1809.300</ele>
        <time>2020-04-06T17:35:25Z</time>
      </trkpt>
      <trkpt lat="35.504182440" lon="-107.170308640">
        <ele>1809.800</ele>
        <time>2020-04-06T17:35:30Z</time>
      </trkpt>
      <trkpt lat="35.504161440" lon="-107.170355020">
        <ele>1809.800</ele>
        <time>2020-04-06T17:35:35Z</time>
      </trkpt>
      <trkpt lat="35.504141290" lon="-107.170394670">
        <ele>1810.300</ele>
        <time>2020-04-06T17:35:39Z</time>
      </trkpt>
      <trkpt lat="35.504125600" lon="-107.170437360">
        <ele>1810.100</ele>
        <time>2020-04-06T17:35:43Z</time>
      </trkpt>
      <trkpt lat="35.504098980" lon="-107.170483060">
        <ele>1809.700</ele>
        <time>2020-04-06T17:35:48Z</time>
      </trkpt>
      <trkpt lat="35.504082300" lon="-107.170527310">
        <ele>1808.600</ele>
        <time>2020-04-06T17:37:23Z</time>
      </trkpt>
      <trkpt lat="35.504058000" lon="-107.170562990">
        <ele>1809.100</ele>
        <time>2020-04-06T17:37:29Z</time>
      </trkpt>
      <trkpt lat="35.504037230" lon="-107.170604450">
        <ele>1807.100</ele>
        <time>2020-04-06T17:37:34Z</time>
      </trkpt>
      <trkpt lat="35.504010640" lon="-107.170645690">
        <ele>1807.100</ele>
        <time>2020-04-06T17:37:39Z</time>
      </trkpt>
      <trkpt lat="35.503983300" lon="-107.170684810">
        <ele>1807.000</ele>
        <time>2020-04-06T17:37:44Z</time>
      </trkpt>
      <trkpt lat="35.503955520" lon="-107.170715200">
        <ele>1807.800</ele>
        <time>2020-04-06T17:37:49Z</time>
      </trkpt>
      <trkpt lat="35.503924030" lon="-107.170742090">
        <ele>1808.200</ele>
        <time>2020-04-06T17:37:54Z</time>
      </trkpt>
      <trkpt lat="35.503882590" lon="-107.170733380">
        <ele>1807.700</ele>
        <time>2020-04-06T17:37:59Z</time>
      </trkpt>
      <trkpt lat="35.503848150" lon="-107.170766380">
        <ele>1807.200</ele>
        <time>2020-04-06T17:38:04Z</time>
      </trkpt>
      <trkpt lat="35.503811400" lon="-107.170771800">
        <ele>1806.900</ele>
        <time>2020-04-06T17:38:10Z</time>
      </trkpt>
      <trkpt lat="35.503776590" lon="-107.170790980">
        <ele>1808.500</ele>
        <time>2020-04-06T17:39:01Z</time>
      </trkpt>
      <trkpt lat="35.503760540" lon="-107.170838170">
        <ele>1805.900</ele>
        <time>2020-04-06T17:39:11Z</time>
      </trkpt>
      <trkpt lat="35.503731970" lon="-107.170875950">
        <ele>1805.800</ele>
        <time>2020-04-06T17:39:16Z</time>
      </trkpt>
      <trkpt lat="35.503707990" lon="-107.170909130">
        <ele>1804.800</ele>
        <time>2020-04-06T17:39:20Z</time>
      </trkpt>
      <trkpt lat="35.503676840" lon="-107.170934980">
        <ele>1804.600</ele>
        <time>2020-04-06T17:39:29Z</time>
      </trkpt>
      <trkpt lat="35.503647760" lon="-107.170966990">
        <ele>1806.300</ele>
        <time>2020-04-06T17:39:44Z</time>
      </trkpt>
      <trkpt lat="35.503616870" lon="-107.171008530">
        <ele>1805.700</ele>
        <time>2020-04-06T17:39:54Z</time>
      </trkpt>
      <trkpt lat="35.503583070" lon="-107.171024830">
        <ele>1804.800</ele>
        <time>2020-04-06T17:39:58Z</time>
      </trkpt>
      <trkpt lat="35.503547690" lon="-107.171047240">
        <ele>1804.700</ele>
        <time>2020-04-06T17:40:04Z</time>
      </trkpt>
      <trkpt lat="35.503523920" lon="-107.171085050">
        <ele>1806.100</ele>
        <time>2020-04-06T17:40:11Z</time>
      </trkpt>
      <trkpt lat="35.503507540" lon="-107.171126130">
        <ele>1806.900</ele>
        <time>2020-04-06T17:40:15Z</time>
      </trkpt>
      <trkpt lat="35.503486850" lon="-107.171167620">
        <ele>1807.100</ele>
        <time>2020-04-06T17:40:19Z</time>
      </trkpt>
      <trkpt lat="35.503457160" lon="-107.171195600">
        <ele>1807.300</ele>
        <time>2020-04-06T17:40:25Z</time>
      </trkpt>
      <trkpt lat="35.503423670" lon="-107.171218980">
        <ele>1806.700</ele>
        <time>2020-04-06T17:40:34Z</time>
      </trkpt>
      <trkpt lat="35.503393140" lon="-107.171243120">
        <ele>1807.300</ele>
        <time>2020-04-06T17:40:38Z</time>
      </trkpt>
      <trkpt lat="35.503364300" lon="-107.171283650">
        <ele>1806.900</ele>
        <time>2020-04-06T17:40:43Z</time>
      </trkpt>
      <trkpt lat="35.503327900" lon="-107.171309640">
        <ele>1807.700</ele>
        <time>2020-04-06T17:40:48Z</time>
      </trkpt>
      <trkpt lat="35.503294050" lon="-107.171342410">
        <ele>1807.100</ele>
        <time>2020-04-06T17:40:57Z</time>
      </trkpt>
      <trkpt lat="35.503253540" lon="-107.171360870">
        <ele>1807.500</ele>
        <time>2020-04-06T17:41:02Z</time>
      </trkpt>
      <trkpt lat="35.503217410" lon="-107.171377890">
        <ele>1807.400</ele>
        <time>2020-04-06T17:41:08Z</time>
      </trkpt>
      <trkpt lat="35.503176280" lon="-107.171375570">
        <ele>1807.300</ele>
        <time>2020-04-06T17:41:16Z</time>
      </trkpt>
      <trkpt lat="35.503139060" lon="-107.171373150">
        <ele>1807.300</ele>
        <time>2020-04-06T17:41:21Z</time>
      </trkpt>
      <trkpt lat="35.503101170" lon="-107.171370140">
        <ele>1807.700</ele>
        <time>2020-04-06T17:41:27Z</time>
      </trkpt>
      <trkpt lat="35.503062540" lon="-107.171369480">
        <ele>1808.100</ele>
        <time>2020-04-06T17:41:32Z</time>
      </trkpt>
      <trkpt lat="35.503021910" lon="-107.171349850">
        <ele>1806.600</ele>
        <time>2020-04-06T17:41:41Z</time>
      </trkpt>
      <trkpt lat="35.502983350" lon="-107.171336760">
        <ele>1806.900</ele>
        <time>2020-04-06T17:41:46Z</time>
      </trkpt>
      <trkpt lat="35.502943780" lon="-107.171330060">
        <ele>1807.500</ele>
        <time>2020-04-06T17:41:51Z</time>
      </trkpt>
      <trkpt lat="35.502906720" lon="-107.171317310">
        <ele>1807.100</ele>
        <time>2020-04-06T17:41:56Z</time>
      </trkpt>
      <trkpt lat="35.502867640" lon="-107.171312680">
        <ele>1805.000</ele>
        <time>2020-04-06T17:42:02Z</time>
      </trkpt>
      <trkpt lat="35.502834750" lon="-107.171279210">
        <ele>1806.200</ele>
        <time>2020-04-06T17:42:07Z</time>
      </trkpt>
      <trkpt lat="35.502806970" lon="-107.171244740">
        <ele>1806.400</ele>
        <time>2020-04-06T17:42:11Z</time>
      </trkpt>
      <trkpt lat="35.502770820" lon="-107.171211290">
        <ele>1807.000</ele>
        <time>2020-04-06T17:42:20Z</time>
      </trkpt>
      <trkpt lat="35.502744150" lon="-107.171171370">
        <ele>1807.700</ele>
        <time>2020-04-06T17:42:25Z</time>
      </trkpt>
      <trkpt lat="35.502715060" lon="-107.171133770">
        <ele>1807.600</ele>
        <time>2020-04-06T17:42:30Z</time>
      </trkpt>
      <trkpt lat="35.502681620" lon="-107.171105370">
        <ele>1808.900</ele>
        <time>2020-04-06T17:42:35Z</time>
      </trkpt>
      <trkpt lat="35.502645910" lon="-107.171087150">
        <ele>1809.800</ele>
        <time>2020-04-06T17:42:42Z</time>
      </trkpt>
      <trkpt lat="35.502621880" lon="-107.171052660">
        <ele>1809.500</ele>
        <time>2020-04-06T17:42:47Z</time>
      </trkpt>
      <trkpt lat="35.502596000" lon="-107.171021570">
        <ele>1808.900</ele>
        <time>2020-04-06T17:42:55Z</time>
      </trkpt>
      <trkpt lat="35.502573150" lon="-107.170971020">
        <ele>1807.500</ele>
        <time>2020-04-06T17:42:59Z</time>
      </trkpt>
      <trkpt lat="35.502554190" lon="-107.170931280">
        <ele>1809.200</ele>
        <time>2020-04-06T17:43:19Z</time>
      </trkpt>
      <trkpt lat="35.502524650" lon="-107.170905990">
        <ele>1808.400</ele>
        <time>2020-04-06T17:43:33Z</time>
      </trkpt>
      <trkpt lat="35.502486850" lon="-107.170907900">
        <ele>1808.800</ele>
        <time>2020-04-06T17:45:12Z</time>
      </trkpt>
      <trkpt lat="35.502461320" lon="-107.170876620">
        <ele>1810.300</ele>
        <time>2020-04-06T17:46:09Z</time>
      </trkpt>
      <trkpt lat="35.502422320" lon="-107.170876680">
        <ele>1810.300</ele>
        <time>2020-04-06T17:46:38Z</time>
      </trkpt>
      <trkpt lat="35.502388920" lon="-107.170859100">
        <ele>1811.300</ele>
        <time>2020-04-06T17:46:45Z</time>
      </trkpt>
      <trkpt lat="35.502349300" lon="-107.170857580">
        <ele>1809.900</ele>
        <time>2020-04-06T17:46:52Z</time>
      </trkpt>
      <trkpt lat="35.502311360" lon="-107.170849670">
        <ele>1808.800</ele>
        <time>2020-04-06T17:47:04Z</time>
      </trkpt>
      <trkpt lat="35.502271940" lon="-107.170838290">
        <ele>1809.000</ele>
        <time>2020-04-06T17:47:19Z</time>
      </trkpt>
      <trkpt lat="35.502239070" lon="-107.170812600">
        <ele>1809.500</ele>
        <time>2020-04-06T17:47:54Z</time>
      </trkpt>
      <trkpt lat="35.502202000" lon="-107.170804610">
        <ele>1810.400</ele>
        <time>2020-04-06T17:49:45Z</time>
      </trkpt>
      <trkpt lat="35.502182930" lon="-107.170842730">
        <ele>1808.700</ele>
        <time>2020-04-06T17:51:47Z</time>
      </trkpt>
      <trkpt lat="35.502147780" lon="-107.170825420">
        <ele>1809.200</ele>
        <time>2020-04-06T17:52:05Z</time>
      </trkpt>
      <trkpt lat="35.502109550" lon="-107.170812210">
        <ele>1810.800</ele>
        <time>2020-04-06T17:53:49Z</time>
      </trkpt>
      <trkpt lat="35.502073270" lon="-107.170795000">
        <ele>1810.600</ele>
        <time>2020-04-06T17:53:54Z</time>
      </trkpt>
      <trkpt lat="35.502035900" lon="-107.170802000">
        <ele>1811.300</ele>
        <time>2020-04-06T17:53:59Z</time>
      </trkpt>
      <trkpt lat="35.502032740" lon="-107.170847850">
        <ele>1813.900</ele>
        <time>2020-04-06T17:54:06Z</time>
      </trkpt>
      <trkpt lat="35.501997090" lon="-107.170865270">
        <ele>1813.000</ele>
        <time>2020-04-06T17:54:28Z</time>
      </trkpt>
      <trkpt lat="35.501958450" lon="-107.170880750">
        <ele>1815.600</ele>
        <time>2020-04-06T17:54:33Z</time>
      </trkpt>
      <trkpt lat="35.501918200" lon="-107.170881110">
        <ele>1815.900</ele>
        <time>2020-04-06T17:54:39Z</time>
      </trkpt>
      <trkpt lat="35.501881630" lon="-107.170892520">
        <ele>1816.300</ele>
        <time>2020-04-06T17:54:45Z</time>
      </trkpt>
      <trkpt lat="35.501846840" lon="-107.170906350">
        <ele>1815.700</ele>
        <time>2020-04-06T17:54:50Z</time>
      </trkpt>
      <trkpt lat="35.501813340" lon="-107.170927670">
        <ele>1815.500</ele>
        <time>2020-04-06T17:54:55Z</time>
      </trkpt>
      <trkpt lat="35.501789160" lon="-107.170962130">
        <ele>1816.400</ele>
        <time>2020-04-06T17:54:59Z</time>
      </trkpt>
      <trkpt lat="35.501759030" lon="-107.170993970">
        <ele>1816.600</ele>
        <time>2020-04-06T17:55:04Z</time>
      </trkpt>
      <trkpt lat="35.501723510" lon="-107.171016060">
        <ele>1815.900</ele>
        <time>2020-04-06T17:55:11Z</time>
      </trkpt>
      <trkpt lat="35.501682600" lon="-107.171031400">
        <ele>1815.600</ele>
        <time>2020-04-06T17:55:17Z</time>
      </trkpt>
      <trkpt lat="35.501644790" lon="-107.171054510">
        <ele>1815.800</ele>
        <time>2020-04-06T17:55:22Z</time>
      </trkpt>
      <trkpt lat="35.501619940" lon="-107.171090120">
        <ele>1816.500</ele>
        <time>2020-04-06T17:55:27Z</time>
      </trkpt>
      <trkpt lat="35.501588570" lon="-107.171126400">
        <ele>1815.700</ele>
        <time>2020-04-06T17:55:33Z</time>
      </trkpt>
      <trkpt lat="35.501563970" lon="-107.171163880">
        <ele>1816.000</ele>
        <time>2020-04-06T17:55:39Z</time>
      </trkpt>
      <trkpt lat="35.501540530" lon="-107.171205340">
        <ele>1818.200</ele>
        <time>2020-04-06T17:55:44Z</time>
      </trkpt>
      <trkpt lat="35.501518970" lon="-107.171242490">
        <ele>1818.400</ele>
        <time>2020-04-06T17:55:50Z</time>
      </trkpt>
      <trkpt lat="35.501521850" lon="-107.171288220">
        <ele>1817.200</ele>
        <time>2020-04-06T17:58:10Z</time>
      </trkpt>
      <trkpt lat="35.501487400" lon="-107.171314480">
        <ele>1817.200</ele>
        <time>2020-04-06T17:58:15Z</time>
      </trkpt>
      <trkpt lat="35.501461350" lon="-107.171359150">
        <ele>1816.200</ele>
        <time>2020-04-06T17:58:21Z</time>
      </trkpt>
      <trkpt lat="35.501440980" lon="-107.171396190">
        <ele>1818.700</ele>
        <time>2020-04-06T17:58:28Z</time>
      </trkpt>
      <trkpt lat="35.501415030" lon="-107.171431810">
        <ele>1817.500</ele>
        <time>2020-04-06T17:58:33Z</time>
      </trkpt>
      <trkpt lat="35.501386200" lon="-107.171459980">
        <ele>1815.700</ele>
        <time>2020-04-06T17:58:39Z</time>
      </trkpt>
      <trkpt lat="35.501361600" lon="-107.171494840">
        <ele>1816.400</ele>
        <time>2020-04-06T17:58:54Z</time>
      </trkpt>
      <trkpt lat="35.501320360" lon="-107.171501050">
        <ele>1818.900</ele>
        <time>2020-04-06T17:59:00Z</time>
      </trkpt>
      <trkpt lat="35.501346590" lon="-107.171531580">
        <ele>1819.800</ele>
        <time>2020-04-06T17:59:07Z</time>
      </trkpt>
      <trkpt lat="35.501366250" lon="-107.171569340">
        <ele>1821.000</ele>
        <time>2020-04-06T17:59:23Z</time>
      </trkpt>
      <trkpt lat="35.501329070" lon="-107.171583450">
        <ele>1820.800</ele>
        <time>2020-04-06T17:59:28Z</time>
      </trkpt>
      <trkpt lat="35.501285380" lon="-107.171590420">
        <ele>1820.900</ele>
        <time>2020-04-06T17:59:33Z</time>
      </trkpt>
      <trkpt lat="35.501247530" lon="-107.171605080">
        <ele>1820.300</ele>
        <time>2020-04-06T17:59:38Z</time>
      </trkpt>
      <trkpt lat="35.501208560" lon="-107.171603080">
        <ele>1819.500</ele>
        <time>2020-04-06T18:00:02Z</time>
      </trkpt>
      <trkpt lat="35.501219220" lon="-107.171646630">
        <ele>1820.100</ele>
        <time>2020-04-06T18:00:39Z</time>
      </trkpt>
      <trkpt lat="35.501194370" lon="-107.171686850">
        <ele>1820.400</ele>
        <time>2020-04-06T18:00:50Z</time>
      </trkpt>
      <trkpt lat="35.501189010" lon="-107.171732040">
        <ele>1820.800</ele>
        <time>2020-04-06T18:00:55Z</time>
      </trkpt>
      <trkpt lat="35.501183960" lon="-107.171776160">
        <ele>1821.200</ele>
        <time>2020-04-06T18:01:00Z</time>
      </trkpt>
      <trkpt lat="35.501150990" lon="-107.171805340">
        <ele>1820.100</ele>
        <time>2020-04-06T18:01:06Z</time>
      </trkpt>
      <trkpt lat="35.501123110" lon="-107.171840930">
        <ele>1820.200</ele>
        <time>2020-04-06T18:01:13Z</time>
      </trkpt>
      <trkpt lat="35.501088400" lon="-107.171855790">
        <ele>1819.800</ele>
        <time>2020-04-06T18:01:20Z</time>
      </trkpt>
      <trkpt lat="35.501053920" lon="-107.171882590">
        <ele>1819.200</ele>
        <time>2020-04-06T18:01:37Z</time>
      </trkpt>
      <trkpt lat="35.501033640" lon="-107.171922000">
        <ele>1818.200</ele>
        <time>2020-04-06T18:01:41Z</time>
      </trkpt>
      <trkpt lat="35.501006800" lon="-107.171960310">
        <ele>1818.700</ele>
        <time>2020-04-06T18:01:46Z</time>
      </trkpt>
      <trkpt lat="35.500985330" lon="-107.172009040">
        <ele>1817.200</ele>
        <time>2020-04-06T18:01:51Z</time>
      </trkpt>
      <trkpt lat="35.500961000" lon="-107.172044170">
        <ele>1816.500</ele>
        <time>2020-04-06T18:02:01Z</time>
      </trkpt>
      <trkpt lat="35.500932640" lon="-107.172082380">
        <ele>1817.100</ele>
        <time>2020-04-06T18:02:12Z</time>
      </trkpt>
      <trkpt lat="35.500914670" lon="-107.172125250">
        <ele>1816.700</ele>
        <time>2020-04-06T18:02:18Z</time>
      </trkpt>
      <trkpt lat="35.500886510" lon="-107.172155750">
        <ele>1815.600</ele>
        <time>2020-04-06T18:02:29Z</time>
      </trkpt>
      <trkpt lat="35.500861260" lon="-107.172188890">
        <ele>1814.500</ele>
        <time>2020-04-06T18:02:37Z</time>
      </trkpt>
      <trkpt lat="35.500863770" lon="-107.172235350">
        <ele>1813.000</ele>
        <time>2020-04-06T18:02:47Z</time>
      </trkpt>
      <trkpt lat="35.500844230" lon="-107.172278730">
        <ele>1812.200</ele>
        <time>2020-04-06T18:03:06Z</time>
      </trkpt>
      <trkpt lat="35.500842690" lon="-107.172330360">
        <ele>1811.700</ele>
        <time>2020-04-06T18:03:13Z</time>
      </trkpt>
      <trkpt lat="35.500837260" lon="-107.172374760">
        <ele>1811.500</ele>
        <time>2020-04-06T18:03:18Z</time>
      </trkpt>
      <trkpt lat="35.500850780" lon="-107.172423880">
        <ele>1811.300</ele>
        <time>2020-04-06T18:03:23Z</time>
      </trkpt>
      <trkpt lat="35.500854640" lon="-107.172469820">
        <ele>1812.200</ele>
        <time>2020-04-06T18:03:29Z</time>
      </trkpt>
      <trkpt lat="35.500876670" lon="-107.172512610">
        <ele>1814.000</ele>
        <time>2020-04-06T18:03:36Z</time>
      </trkpt>
      <trkpt lat="35.500910290" lon="-107.172532070">
        <ele>1815.600</ele>
        <time>2020-04-06T18:03:41Z</time>
      </trkpt>
      <trkpt lat="35.500943640" lon="-107.172549920">
        <ele>1816.600</ele>
        <time>2020-04-06T18:03:45Z</time>
      </trkpt>
      <trkpt lat="35.500973720" lon="-107.172583920">
        <ele>1818.300</ele>
        <time>2020-04-06T18:03:50Z</time>
      </trkpt>
      <trkpt lat="35.501008710" lon="-107.172608520">
        <ele>1819.700</ele>
        <time>2020-04-06T18:03:55Z</time>
      </trkpt>
      <trkpt lat="35.501044170" lon="-107.172620000">
        <ele>1822.200</ele>
        <time>2020-04-06T18:04:01Z</time>
      </trkpt>
      <trkpt lat="35.501075600" lon="-107.172642870">
        <ele>1824.900</ele>
        <time>2020-04-06T18:04:17Z</time>
      </trkpt>
      <trkpt lat="35.501103530" lon="-107.172673630">
        <ele>1825.000</ele>
        <time>2020-04-06T18:06:11Z</time>
      </trkpt>
      <trkpt lat="35.501069670" lon="-107.172703250">
        <ele>1823.200</ele>
        <time>2020-04-06T18:06:18Z</time>
      </trkpt>
      <trkpt lat="35.501047530" lon="-107.172744040">
        <ele>1823.300</ele>
        <time>2020-04-06T18:06:25Z</time>
      </trkpt>
      <trkpt lat="35.501032820" lon="-107.172785750">
        <ele>1822.800</ele>
        <time>2020-04-06T18:06:41Z</time>
      </trkpt>
      <trkpt lat="35.501051350" lon="-107.172823720">
        <ele>1823.200</ele>
        <time>2020-04-06T18:06:52Z</time>
      </trkpt>
      <trkpt lat="35.501040940" lon="-107.172866040">
        <ele>1823.300</ele>
        <time>2020-04-06T18:06:56Z</time>
      </trkpt>
      <trkpt lat="35.501025240" lon="-107.172908530">
        <ele>1824.400</ele>
        <time>2020-04-06T18:07:03Z</time>
      </trkpt>
      <trkpt lat="35.500997670" lon="-107.172942440">
        <ele>1824.500</ele>
        <time>2020-04-06T18:07:20Z</time>
      </trkpt>
      <trkpt lat="35.500964430" lon="-107.172961560">
        <ele>1822.500</ele>
        <time>2020-04-06T18:07:36Z</time>
      </trkpt>
      <trkpt lat="35.500943940" lon="-107.173003910">
        <ele>1820.400</ele>
        <time>2020-04-06T18:07:41Z</time>
      </trkpt>
      <trkpt lat="35.500948560" lon="-107.173051850">
        <ele>1818.900</ele>
        <time>2020-04-06T18:07:47Z</time>
      </trkpt>
      <trkpt lat="35.500922640" lon="-107.173010270">
        <ele>1817.400</ele>
        <time>2020-04-06T18:07:59Z</time>
      </trkpt>
      <trkpt lat="35.500904950" lon="-107.172964740">
        <ele>1818.400</ele>
        <time>2020-04-06T18:08:03Z</time>
      </trkpt>
      <trkpt lat="35.500886470" lon="-107.172918550">
        <ele>1817.900</ele>
        <time>2020-04-06T18:08:07Z</time>
      </trkpt>
      <trkpt lat="35.500892610" lon="-107.172863910">
        <ele>1817.900</ele>
        <time>2020-04-06T18:08:11Z</time>
      </trkpt>
      <trkpt lat="35.500918150" lon="-107.172821990">
        <ele>1816.800</ele>
        <time>2020-04-06T18:08:18Z</time>
      </trkpt>
      <trkpt lat="35.500936210" lon="-107.172778880">
        <ele>1817.600</ele>
        <time>2020-04-06T18:08:23Z</time>
      </trkpt>
      <trkpt lat="35.500941430" lon="-107.172726610">
        <ele>1817.300</ele>
        <time>2020-04-06T18:08:29Z</time>
      </trkpt>
      <trkpt lat="35.500963470" lon="-107.172684900">
        <ele>1817.000</ele>
        <time>2020-04-06T18:08:34Z</time>
      </trkpt>
      <trkpt lat="35.501004690" lon="-107.172686940">
        <ele>1819.100</ele>
        <time>2020-04-06T18:08:40Z</time>
      </trkpt>
      <trkpt lat="35.501038580" lon="-107.172703440">
        <ele>1820.900</ele>
        <time>2020-04-06T18:08:45Z</time>
      </trkpt>
      <trkpt lat="35.501082540" lon="-107.172701140">
        <ele>1821.000</ele>
        <time>2020-04-06T18:08:50Z</time>
      </trkpt>
      <trkpt lat="35.501118220" lon="-107.172673540">
        <ele>1820.500</ele>
        <time>2020-04-06T18:08:56Z</time>
      </trkpt>
      <trkpt lat="35.501082340" lon="-107.172690480">
        <ele>1821.900</ele>
        <time>2020-04-06T18:09:52Z</time>
      </trkpt>
      <trkpt lat="35.501039770" lon="-107.172705820">
        <ele>1821.300</ele>
        <time>2020-04-06T18:09:57Z</time>
      </trkpt>
      <trkpt lat="35.501001060" lon="-107.172712220">
        <ele>1818.500</ele>
        <time>2020-04-06T18:10:02Z</time>
      </trkpt>
      <trkpt lat="35.500959770" lon="-107.172712250">
        <ele>1816.700</ele>
        <time>2020-04-06T18:10:07Z</time>
      </trkpt>
      <trkpt lat="35.500930970" lon="-107.172740240">
        <ele>1817.500</ele>
        <time>2020-04-06T18:10:11Z</time>
      </trkpt>
      <trkpt lat="35.500932930" lon="-107.172786730">
        <ele>1816.600</ele>
        <time>2020-04-06T18:10:15Z</time>
      </trkpt>
      <trkpt lat="35.500919750" lon="-107.172828340">
        <ele>1815.900</ele>
        <time>2020-04-06T18:10:19Z</time>
      </trkpt>
      <trkpt lat="35.500895770" lon="-107.172866470">
        <ele>1815.700</ele>
        <time>2020-04-06T18:10:23Z</time>
      </trkpt>
      <trkpt lat="35.500880700" lon="-107.172915550">
        <ele>1814.800</ele>
        <time>2020-04-06T18:10:28Z</time>
      </trkpt>
      <trkpt lat="35.500878500" lon="-107.172965850">
        <ele>1814.800</ele>
        <time>2020-04-06T18:10:32Z</time>
      </trkpt>
      <trkpt lat="35.500877480" lon="-107.173015450">
        <ele>1814.800</ele>
        <time>2020-04-06T18:10:36Z</time>
      </trkpt>
      <trkpt lat="35.500875830" lon="-107.173061900">
        <ele>1814.600</ele>
        <time>2020-04-06T18:10:40Z</time>
      </trkpt>
      <trkpt lat="35.500859940" lon="-107.173108630">
        <ele>1815.200</ele>
        <time>2020-04-06T18:10:44Z</time>
      </trkpt>
      <trkpt lat="35.500854200" lon="-107.173154730">
        <ele>1814.800</ele>
        <time>2020-04-06T18:10:48Z</time>
      </trkpt>
      <trkpt lat="35.500873140" lon="-107.173200690">
        <ele>1815.100</ele>
        <time>2020-04-06T18:10:52Z</time>
      </trkpt>
      <trkpt lat="35.500905000" lon="-107.173226060">
        <ele>1814.500</ele>
        <time>2020-04-06T18:10:56Z</time>
      </trkpt>
      <trkpt lat="35.500937810" lon="-107.173255280">
        <ele>1815.200</ele>
        <time>2020-04-06T18:11:01Z</time>
      </trkpt>
      <trkpt lat="35.500938960" lon="-107.173310040">
        <ele>1816.200</ele>
        <time>2020-04-06T18:11:07Z</time>
      </trkpt>
      <trkpt lat="35.500935020" lon="-107.173354470">
        <ele>1816.900</ele>
        <time>2020-04-06T18:11:12Z</time>
      </trkpt>
      <trkpt lat="35.500953470" lon="-107.173405380">
        <ele>1817.900</ele>
        <time>2020-04-06T18:11:23Z</time>
      </trkpt>
      <trkpt lat="35.500968450" lon="-107.173445700">
        <ele>1817.600</ele>
        <time>2020-04-06T18:11:26Z</time>
      </trkpt>
      <trkpt lat="35.500982810" lon="-107.173494110">
        <ele>1818.400</ele>
        <time>2020-04-06T18:11:30Z</time>
      </trkpt>
      <trkpt lat="35.501000450" lon="-107.173549080">
        <ele>1819.200</ele>
        <time>2020-04-06T18:11:34Z</time>
      </trkpt>
      <trkpt lat="35.501016480" lon="-107.173597910">
        <ele>1819.700</ele>
        <time>2020-04-06T18:11:38Z</time>
      </trkpt>
      <trkpt lat="35.501035820" lon="-107.173639080">
        <ele>1820.200</ele>
        <time>2020-04-06T18:11:42Z</time>
      </trkpt>
      <trkpt lat="35.501033550" lon="-107.173686970">
        <ele>1819.400</ele>
        <time>2020-04-06T18:11:47Z</time>
      </trkpt>
      <trkpt lat="35.501043200" lon="-107.173737590">
        <ele>1821.400</ele>
        <time>2020-04-06T18:11:52Z</time>
      </trkpt>
      <trkpt lat="35.501073450" lon="-107.173768910">
        <ele>1821.000</ele>
        <time>2020-04-06T18:11:55Z</time>
      </trkpt>
      <trkpt lat="35.501090160" lon="-107.173809880">
        <ele>1821.400</ele>
        <time>2020-04-06T18:12:00Z</time>
      </trkpt>
      <trkpt lat="35.501103000" lon="-107.173852450">
        <ele>1821.300</ele>
        <time>2020-04-06T18:12:04Z</time>
      </trkpt>
      <trkpt lat="35.501118810" lon="-107.173901520">
        <ele>1820.900</ele>
        <time>2020-04-06T18:12:08Z</time>
      </trkpt>
      <trkpt lat="35.501111440" lon="-107.173952690">
        <ele>1821.600</ele>
        <time>2020-04-06T18:12:13Z</time>
      </trkpt>
      <trkpt lat="35.501105460" lon="-107.173998110">
        <ele>1821.100</ele>
        <time>2020-04-06T18:12:17Z</time>
      </trkpt>
      <trkpt lat="35.501100960" lon="-107.174046930">
        <ele>1820.100</ele>
        <time>2020-04-06T18:12:21Z</time>
      </trkpt>
      <trkpt lat="35.501100470" lon="-107.174100820">
        <ele>1821.300</ele>
        <time>2020-04-06T18:12:25Z</time>
      </trkpt>
      <trkpt lat="35.501106580" lon="-107.174152040">
        <ele>1821.900</ele>
        <time>2020-04-06T18:12:29Z</time>
      </trkpt>
      <trkpt lat="35.501116510" lon="-107.174204300">
        <ele>1821.900</ele>
        <time>2020-04-06T18:12:33Z</time>
      </trkpt>
      <trkpt lat="35.501118820" lon="-107.174253260">
        <ele>1821.800</ele>
        <time>2020-04-06T18:12:37Z</time>
      </trkpt>
      <trkpt lat="35.501103250" lon="-107.174301090">
        <ele>1823.000</ele>
        <time>2020-04-06T18:12:41Z</time>
      </trkpt>
      <trkpt lat="35.501088580" lon="-107.174351120">
        <ele>1820.600</ele>
        <time>2020-04-06T18:12:45Z</time>
      </trkpt>
      <trkpt lat="35.501068350" lon="-107.174391470">
        <ele>1819.200</ele>
        <time>2020-04-06T18:12:49Z</time>
      </trkpt>
      <trkpt lat="35.501039000" lon="-107.174428190">
        <ele>1818.200</ele>
        <time>2020-04-06T18:12:54Z</time>
      </trkpt>
      <trkpt lat="35.501008700" lon="-107.174455490">
        <ele>1817.300</ele>
        <time>2020-04-06T18:13:38Z</time>
      </trkpt>
      <trkpt lat="35.500987750" lon="-107.174491990">
        <ele>1817.000</ele>
        <time>2020-04-06T18:13:42Z</time>
      </trkpt>
      <trkpt lat="35.500962390" lon="-107.174526150">
        <ele>1816.000</ele>
        <time>2020-04-06T18:13:47Z</time>
      </trkpt>
      <trkpt lat="35.500925010" lon="-107.174533710">
        <ele>1816.900</ele>
        <time>2020-04-06T18:13:52Z</time>
      </trkpt>
      <trkpt lat="35.500883250" lon="-107.174541780">
        <ele>1819.200</ele>
        <time>2020-04-06T18:14:06Z</time>
      </trkpt>
      <trkpt lat="35.500845370" lon="-107.174559040">
        <ele>1818.900</ele>
        <time>2020-04-06T18:14:11Z</time>
      </trkpt>
      <trkpt lat="35.500812230" lon="-107.174591430">
        <ele>1819.100</ele>
        <time>2020-04-06T18:14:16Z</time>
      </trkpt>
      <trkpt lat="35.500776960" lon="-107.174581290">
        <ele>1819.500</ele>
        <time>2020-04-06T18:14:20Z</time>
      </trkpt>
      <trkpt lat="35.500736460" lon="-107.174574780">
        <ele>1819.500</ele>
        <time>2020-04-06T18:14:25Z</time>
      </trkpt>
      <trkpt lat="35.500700710" lon="-107.174595190">
        <ele>1819.800</ele>
        <time>2020-04-06T18:14:29Z</time>
      </trkpt>
      <trkpt lat="35.500661630" lon="-107.174613890">
        <ele>1818.800</ele>
        <time>2020-04-06T18:14:34Z</time>
      </trkpt>
      <trkpt lat="35.500624930" lon="-107.174614970">
        <ele>1815.900</ele>
        <time>2020-04-06T18:14:39Z</time>
      </trkpt>
      <trkpt lat="35.500653750" lon="-107.174647680">
        <ele>1816.100</ele>
        <time>2020-04-06T18:15:41Z</time>
      </trkpt>
      <trkpt lat="35.500673540" lon="-107.174685150">
        <ele>1816.700</ele>
        <time>2020-04-06T18:15:48Z</time>
      </trkpt>
      <trkpt lat="35.500690830" lon="-107.174724880">
        <ele>1816.600</ele>
        <time>2020-04-06T18:15:57Z</time>
      </trkpt>
      <trkpt lat="35.500725770" lon="-107.174749460">
        <ele>1818.800</ele>
        <time>2020-04-06T18:16:06Z</time>
      </trkpt>
      <trkpt lat="35.500711740" lon="-107.174796090">
        <ele>1822.100</ele>
        <time>2020-04-06T18:16:22Z</time>
      </trkpt>
      <trkpt lat="35.500743270" lon="-107.174828580">
        <ele>1823.200</ele>
        <time>2020-04-06T18:16:29Z</time>
      </trkpt>
      <trkpt lat="35.500782360" lon="-107.174840500">
        <ele>1823.300</ele>
        <time>2020-04-06T18:16:43Z</time>
      </trkpt>
      <trkpt lat="35.500824470" lon="-107.174844980">
        <ele>1823.500</ele>
        <time>2020-04-06T18:16:48Z</time>
      </trkpt>
      <trkpt lat="35.500850960" lon="-107.174878800">
        <ele>1824.300</ele>
        <time>2020-04-06T18:17:06Z</time>
      </trkpt>
      <trkpt lat="35.500886070" lon="-107.174895560">
        <ele>1824.700</ele>
        <time>2020-04-06T18:17:42Z</time>
      </trkpt>
      <trkpt lat="35.500905500" lon="-107.174936190">
        <ele>1825.900</ele>
        <time>2020-04-06T18:17:47Z</time>
      </trkpt>
      <trkpt lat="35.500942590" lon="-107.174941360">
        <ele>1824.000</ele>
        <time>2020-04-06T18:18:44Z</time>
      </trkpt>
      <trkpt lat="35.500980960" lon="-107.174944790">
        <ele>1822.200</ele>
        <time>2020-04-06T18:19:32Z</time>
      </trkpt>
      <trkpt lat="35.501018290" lon="-107.174960350">
        <ele>1823.700</ele>
        <time>2020-04-06T18:20:15Z</time>
      </trkpt>
      <trkpt lat="35.501044840" lon="-107.174928650">
        <ele>1823.800</ele>
        <time>2020-04-06T18:21:01Z</time>
      </trkpt>
      <trkpt lat="35.501016790" lon="-107.174894070">
        <ele>1822.700</ele>
        <time>2020-04-06T18:23:44Z</time>
      </trkpt>
      <trkpt lat="35.501006320" lon="-107.174939040">
        <ele>1821.400</ele>
        <time>2020-04-06T18:25:05Z</time>
      </trkpt>
      <trkpt lat="35.500976570" lon="-107.174907480">
        <ele>1821.300</ele>
        <time>2020-04-06T18:25:23Z</time>
      </trkpt>
      <trkpt lat="35.500939400" lon="-107.174917080">
        <ele>1819.800</ele>
        <time>2020-04-06T18:25:29Z</time>
      </trkpt>
      <trkpt lat="35.500902880" lon="-107.174914200">
        <ele>1819.400</ele>
        <time>2020-04-06T18:25:34Z</time>
      </trkpt>
      <trkpt lat="35.500857740" lon="-107.174923290">
        <ele>1818.800</ele>
        <time>2020-04-06T18:25:40Z</time>
      </trkpt>
      <trkpt lat="35.500835790" lon="-107.174961410">
        <ele>1818.900</ele>
        <time>2020-04-06T18:25:45Z</time>
      </trkpt>
      <trkpt lat="35.500797300" lon="-107.174979590">
        <ele>1819.100</ele>
        <time>2020-04-06T18:25:51Z</time>
      </trkpt>
      <trkpt lat="35.500760730" lon="-107.174984170">
        <ele>1818.300</ele>
        <time>2020-04-06T18:25:56Z</time>
      </trkpt>
      <trkpt lat="35.500720940" lon="-107.175001720">
        <ele>1819.200</ele>
        <time>2020-04-06T18:26:38Z</time>
      </trkpt>
      <trkpt lat="35.500680510" lon="-107.175005960">
        <ele>1819.700</ele>
        <time>2020-04-06T18:26:42Z</time>
      </trkpt>
      <trkpt lat="35.500642090" lon="-107.175027030">
        <ele>1820.000</ele>
        <time>2020-04-06T18:26:46Z</time>
      </trkpt>
      <trkpt lat="35.500607950" lon="-107.175056940">
        <ele>1820.400</ele>
        <time>2020-04-06T18:26:51Z</time>
      </trkpt>
      <trkpt lat="35.500577040" lon="-107.175090410">
        <ele>1820.900</ele>
        <time>2020-04-06T18:26:57Z</time>
      </trkpt>
      <trkpt lat="35.500542010" lon="-107.175104130">
        <ele>1820.900</ele>
        <time>2020-04-06T18:27:01Z</time>
      </trkpt>
      <trkpt lat="35.500499250" lon="-107.175100950">
        <ele>1819.900</ele>
        <time>2020-04-06T18:27:06Z</time>
      </trkpt>
      <trkpt lat="35.500457040" lon="-107.175095500">
        <ele>1820.300</ele>
        <time>2020-04-06T18:27:11Z</time>
      </trkpt>
      <trkpt lat="35.500412710" lon="-107.175089180">
        <ele>1820.300</ele>
        <time>2020-04-06T18:27:16Z</time>
      </trkpt>
      <trkpt lat="35.500376420" lon="-107.175081060">
        <ele>1821.000</ele>
        <time>2020-04-06T18:27:20Z</time>
      </trkpt>
      <trkpt lat="35.500342040" lon="-107.175102140">
        <ele>1822.200</ele>
        <time>2020-04-06T18:27:25Z</time>
      </trkpt>
      <trkpt lat="35.500309730" lon="-107.175133130">
        <ele>1821.700</ele>
        <time>2020-04-06T18:27:29Z</time>
      </trkpt>
      <trkpt lat="35.500273520" lon="-107.175156840">
        <ele>1822.500</ele>
        <time>2020-04-06T18:27:34Z</time>
      </trkpt>
      <trkpt lat="35.500235360" lon="-107.175173200">
        <ele>1822.700</ele>
        <time>2020-04-06T18:27:39Z</time>
      </trkpt>
      <trkpt lat="35.500194530" lon="-107.175179570">
        <ele>1823.500</ele>
        <time>2020-04-06T18:27:45Z</time>
      </trkpt>
      <trkpt lat="35.500157900" lon="-107.175183480">
        <ele>1824.400</ele>
        <time>2020-04-06T18:27:50Z</time>
      </trkpt>
      <trkpt lat="35.500116730" lon="-107.175194300">
        <ele>1824.500</ele>
        <time>2020-04-06T18:27:56Z</time>
      </trkpt>
      <trkpt lat="35.500089810" lon="-107.175225270">
        <ele>1823.600</ele>
        <time>2020-04-06T18:28:01Z</time>
      </trkpt>
      <trkpt lat="35.500064630" lon="-107.175262920">
        <ele>1824.200</ele>
        <time>2020-04-06T18:28:06Z</time>
      </trkpt>
      <trkpt lat="35.500039780" lon="-107.175301080">
        <ele>1824.300</ele>
        <time>2020-04-06T18:28:17Z</time>
      </trkpt>
      <trkpt lat="35.500022670" lon="-107.175344450">
        <ele>1822.800</ele>
        <time>2020-04-06T18:28:24Z</time>
      </trkpt>
      <trkpt lat="35.500004390" lon="-107.175300390">
        <ele>1823.700</ele>
        <time>2020-04-06T18:29:28Z</time>
      </trkpt>
      <trkpt lat="35.500005220" lon="-107.175254340">
        <ele>1822.800</ele>
        <time>2020-04-06T18:29:34Z</time>
      </trkpt>
      <trkpt lat="35.500010470" lon="-107.175204910">
        <ele>1822.900</ele>
        <time>2020-04-06T18:29:40Z</time>
      </trkpt>
      <trkpt lat="35.500024520" lon="-107.175159080">
        <ele>1822.600</ele>
        <time>2020-04-06T18:29:46Z</time>
      </trkpt>
      <trkpt lat="35.500026700" lon="-107.175110200">
        <ele>1822.500</ele>
        <time>2020-04-06T18:29:51Z</time>
      </trkpt>
      <trkpt lat="35.500025450" lon="-107.175061330">
        <ele>1822.600</ele>
        <time>2020-04-06T18:29:57Z</time>
      </trkpt>
      <trkpt lat="35.500006960" lon="-107.175021650">
        <ele>1821.900</ele>
        <time>2020-04-06T18:30:03Z</time>
      </trkpt>
      <trkpt lat="35.499984280" lon="-107.174986360">
        <ele>1820.100</ele>
        <time>2020-04-06T18:30:09Z</time>
      </trkpt>
      <trkpt lat="35.499950580" lon="-107.174963780">
        <ele>1819.100</ele>
        <time>2020-04-06T18:30:16Z</time>
      </trkpt>
      <trkpt lat="35.499916920" lon="-107.174935870">
        <ele>1819.400</ele>
        <time>2020-04-06T18:31:38Z</time>
      </trkpt>
      <trkpt lat="35.499890140" lon="-107.174968450">
        <ele>1820.800</ele>
        <time>2020-04-06T18:31:53Z</time>
      </trkpt>
      <trkpt lat="35.499875110" lon="-107.175017810">
        <ele>1822.500</ele>
        <time>2020-04-06T18:31:57Z</time>
      </trkpt>
      <trkpt lat="35.499861390" lon="-107.175059520">
        <ele>1819.600</ele>
        <time>2020-04-06T18:32:02Z</time>
      </trkpt>
      <trkpt lat="35.499872770" lon="-107.175106490">
        <ele>1816.700</ele>
        <time>2020-04-06T18:32:07Z</time>
      </trkpt>
      <trkpt lat="35.499886050" lon="-107.175151970">
        <ele>1815.700</ele>
        <time>2020-04-06T18:32:11Z</time>
      </trkpt>
      <trkpt lat="35.499897480" lon="-107.175200080">
        <ele>1816.800</ele>
        <time>2020-04-06T18:32:16Z</time>
      </trkpt>
      <trkpt lat="35.499889990" lon="-107.175246480">
        <ele>1815.700</ele>
        <time>2020-04-06T18:32:21Z</time>
      </trkpt>
      <trkpt lat="35.499901310" lon="-107.175297930">
        <ele>1817.300</ele>
        <time>2020-04-06T18:32:26Z</time>
      </trkpt>
      <trkpt lat="35.499910380" lon="-107.175344020">
        <ele>1816.600</ele>
        <time>2020-04-06T18:32:30Z</time>
      </trkpt>
      <trkpt lat="35.499918370" lon="-107.175394050">
        <ele>1815.300</ele>
        <time>2020-04-06T18:32:35Z</time>
      </trkpt>
      <trkpt lat="35.499931730" lon="-107.175442540">
        <ele>1815.000</ele>
        <time>2020-04-06T18:32:42Z</time>
      </trkpt>
      <trkpt lat="35.499941010" lon="-107.175488320">
        <ele>1814.100</ele>
        <time>2020-04-06T18:32:48Z</time>
      </trkpt>
      <trkpt lat="35.499958680" lon="-107.175526960">
        <ele>1812.800</ele>
        <time>2020-04-06T18:32:52Z</time>
      </trkpt>
      <trkpt lat="35.499968780" lon="-107.175583180">
        <ele>1810.200</ele>
        <time>2020-04-06T18:32:56Z</time>
      </trkpt>
      <trkpt lat="35.499988310" lon="-107.175628650">
        <ele>1800.500</ele>
        <time>2020-04-06T18:33:02Z</time>
      </trkpt>
      <trkpt lat="35.499989190" lon="-107.175673910">
        <ele>1810.200</ele>
        <time>2020-04-06T18:33:10Z</time>
      </trkpt>
      <trkpt lat="35.499976360" lon="-107.175718930">
        <ele>1812.000</ele>
        <time>2020-04-06T18:33:15Z</time>
      </trkpt>
      <trkpt lat="35.500000290" lon="-107.175762610">
        <ele>1812.200</ele>
        <time>2020-04-06T18:33:19Z</time>
      </trkpt>
      <trkpt lat="35.500017220" lon="-107.175805330">
        <ele>1815.300</ele>
        <time>2020-04-06T18:33:24Z</time>
      </trkpt>
      <trkpt lat="35.500031350" lon="-107.175850470">
        <ele>1816.500</ele>
        <time>2020-04-06T18:33:32Z</time>
      </trkpt>
      <trkpt lat="35.500046300" lon="-107.175892720">
        <ele>1815.200</ele>
        <time>2020-04-06T18:33:36Z</time>
      </trkpt>
      <trkpt lat="35.500077920" lon="-107.175917610">
        <ele>1814.500</ele>
        <time>2020-04-06T18:33:44Z</time>
      </trkpt>
      <trkpt lat="35.500102750" lon="-107.175950540">
        <ele>1814.900</ele>
        <time>2020-04-06T18:33:50Z</time>
      </trkpt>
      <trkpt lat="35.500115420" lon="-107.175992040">
        <ele>1811.800</ele>
        <time>2020-04-06T18:34:00Z</time>
      </trkpt>
      <trkpt lat="35.500122000" lon="-107.176042720">
        <ele>1812.200</ele>
        <time>2020-04-06T18:34:06Z</time>
      </trkpt>
      <trkpt lat="35.500147940" lon="-107.176076530">
        <ele>1813.100</ele>
        <time>2020-04-06T18:34:16Z</time>
      </trkpt>
      <trkpt lat="35.500167180" lon="-107.176118510">
        <ele>1811.400</ele>
        <time>2020-04-06T18:34:21Z</time>
      </trkpt>
      <trkpt lat="35.500184660" lon="-107.176157880">
        <ele>1810.100</ele>
        <time>2020-04-06T18:34:25Z</time>
      </trkpt>
      <trkpt lat="35.500209870" lon="-107.176202230">
        <ele>1808.900</ele>
        <time>2020-04-06T18:34:30Z</time>
      </trkpt>
      <trkpt lat="35.500230490" lon="-107.176245060">
        <ele>1809.900</ele>
        <time>2020-04-06T18:34:36Z</time>
      </trkpt>
      <trkpt lat="35.500250780" lon="-107.176284440">
        <ele>1808.400</ele>
        <time>2020-04-06T18:34:40Z</time>
      </trkpt>
      <trkpt lat="35.500254660" lon="-107.176334640">
        <ele>1808.800</ele>
        <time>2020-04-06T18:34:45Z</time>
      </trkpt>
      <trkpt lat="35.500268110" lon="-107.176375970">
        <ele>1811.400</ele>
        <time>2020-04-06T18:35:22Z</time>
      </trkpt>
      <trkpt lat="35.500294140" lon="-107.176409110">
        <ele>1810.200</ele>
        <time>2020-04-06T18:35:26Z</time>
      </trkpt>
      <trkpt lat="35.500323020" lon="-107.176450710">
        <ele>1811.800</ele>
        <time>2020-04-06T18:36:12Z</time>
      </trkpt>
      <trkpt lat="35.500330560" lon="-107.176494030">
        <ele>1811.400</ele>
        <time>2020-04-06T18:36:16Z</time>
      </trkpt>
      <trkpt lat="35.500315320" lon="-107.176536150">
        <ele>1812.000</ele>
        <time>2020-04-06T18:36:22Z</time>
      </trkpt>
      <trkpt lat="35.500302390" lon="-107.176580370">
        <ele>1813.800</ele>
        <time>2020-04-06T18:36:37Z</time>
      </trkpt>
      <trkpt lat="35.500274410" lon="-107.176610160">
        <ele>1813.500</ele>
        <time>2020-04-06T18:37:01Z</time>
      </trkpt>
      <trkpt lat="35.500249110" lon="-107.176653680">
        <ele>1814.500</ele>
        <time>2020-04-06T18:37:06Z</time>
      </trkpt>
      <trkpt lat="35.500238860" lon="-107.176697550">
        <ele>1814.200</ele>
        <time>2020-04-06T18:37:10Z</time>
      </trkpt>
      <trkpt lat="35.500230820" lon="-107.176748310">
        <ele>1816.900</ele>
        <time>2020-04-06T18:37:48Z</time>
      </trkpt>
      <trkpt lat="35.500211580" lon="-107.176791520">
        <ele>1816.300</ele>
        <time>2020-04-06T18:37:53Z</time>
      </trkpt>
      <trkpt lat="35.500200140" lon="-107.176836580">
        <ele>1816.300</ele>
        <time>2020-04-06T18:37:58Z</time>
      </trkpt>
      <trkpt lat="35.500206090" lon="-107.176880210">
        <ele>1816.000</ele>
        <time>2020-04-06T18:38:02Z</time>
      </trkpt>
      <trkpt lat="35.500191980" lon="-107.176928550">
        <ele>1816.900</ele>
        <time>2020-04-06T18:38:06Z</time>
      </trkpt>
      <trkpt lat="35.500185300" lon="-107.176978110">
        <ele>1815.200</ele>
        <time>2020-04-06T18:38:14Z</time>
      </trkpt>
      <trkpt lat="35.500160800" lon="-107.177022110">
        <ele>1816.500</ele>
        <time>2020-04-06T18:38:19Z</time>
      </trkpt>
      <trkpt lat="35.500130520" lon="-107.177056620">
        <ele>1816.600</ele>
        <time>2020-04-06T18:38:23Z</time>
      </trkpt>
      <trkpt lat="35.500108010" lon="-107.177095970">
        <ele>1817.100</ele>
        <time>2020-04-06T18:38:27Z</time>
      </trkpt>
      <trkpt lat="35.500086690" lon="-107.177132570">
        <ele>1817.400</ele>
        <time>2020-04-06T18:38:31Z</time>
      </trkpt>
      <trkpt lat="35.500059070" lon="-107.177167070">
        <ele>1818.600</ele>
        <time>2020-04-06T18:38:35Z</time>
      </trkpt>
      <trkpt lat="35.500034670" lon="-107.177202050">
        <ele>1819.100</ele>
        <time>2020-04-06T18:38:39Z</time>
      </trkpt>
      <trkpt lat="35.500009300" lon="-107.177240630">
        <ele>1819.400</ele>
        <time>2020-04-06T18:38:43Z</time>
      </trkpt>
      <trkpt lat="35.499992250" lon="-107.177285620">
        <ele>1820.100</ele>
        <time>2020-04-06T18:38:48Z</time>
      </trkpt>
      <trkpt lat="35.499967670" lon="-107.177328260">
        <ele>1819.900</ele>
        <time>2020-04-06T18:38:53Z</time>
      </trkpt>
      <trkpt lat="35.499942100" lon="-107.177365550">
        <ele>1821.000</ele>
        <time>2020-04-06T18:39:04Z</time>
      </trkpt>
      <trkpt lat="35.499914900" lon="-107.177408760">
        <ele>1821.300</ele>
        <time>2020-04-06T18:39:09Z</time>
      </trkpt>
      <trkpt lat="35.499882740" lon="-107.177446690">
        <ele>1822.200</ele>
        <time>2020-04-06T18:39:14Z</time>
      </trkpt>
      <trkpt lat="35.499851410" lon="-107.177477850">
        <ele>1822.900</ele>
        <time>2020-04-06T18:39:19Z</time>
      </trkpt>
      <trkpt lat="35.499810940" lon="-107.177484330">
        <ele>1822.600</ele>
        <time>2020-04-06T18:39:24Z</time>
      </trkpt>
      <trkpt lat="35.499775750" lon="-107.177502250">
        <ele>1823.400</ele>
        <time>2020-04-06T18:39:29Z</time>
      </trkpt>
      <trkpt lat="35.499756250" lon="-107.177545250">
        <ele>1823.400</ele>
        <time>2020-04-06T18:39:34Z</time>
      </trkpt>
      <trkpt lat="35.499728350" lon="-107.177575630">
        <ele>1822.000</ele>
        <time>2020-04-06T18:39:42Z</time>
      </trkpt>
      <trkpt lat="35.499715990" lon="-107.177621930">
        <ele>1821.000</ele>
        <time>2020-04-06T18:39:48Z</time>
      </trkpt>
      <trkpt lat="35.499689600" lon="-107.177653010">
        <ele>1815.200</ele>
        <time>2020-04-06T18:40:42Z</time>
      </trkpt>
      <trkpt lat="35.499654950" lon="-107.177681800">
        <ele>1820.400</ele>
        <time>2020-04-06T18:40:48Z</time>
      </trkpt>
      <trkpt lat="35.499619770" lon="-107.177707210">
        <ele>1821.300</ele>
        <time>2020-04-06T18:40:54Z</time>
      </trkpt>
      <trkpt lat="35.499587480" lon="-107.177730130">
        <ele>1821.200</ele>
        <time>2020-04-06T18:40:59Z</time>
      </trkpt>
      <trkpt lat="35.499552770" lon="-107.177753990">
        <ele>1821.100</ele>
        <time>2020-04-06T18:41:04Z</time>
      </trkpt>
      <trkpt lat="35.499513660" lon="-107.177775880">
        <ele>1821.300</ele>
        <time>2020-04-06T18:41:09Z</time>
      </trkpt>
      <trkpt lat="35.499478090" lon="-107.177791220">
        <ele>1821.600</ele>
        <time>2020-04-06T18:41:14Z</time>
      </trkpt>
      <trkpt lat="35.499450320" lon="-107.177820270">
        <ele>1821.300</ele>
        <time>2020-04-06T18:41:18Z</time>
      </trkpt>
      <trkpt lat="35.499414270" lon="-107.177847040">
        <ele>1820.600</ele>
        <time>2020-04-06T18:41:23Z</time>
      </trkpt>
      <trkpt lat="35.499394950" lon="-107.177886340">
        <ele>1820.600</ele>
        <time>2020-04-06T18:41:27Z</time>
      </trkpt>
      <trkpt lat="35.499365480" lon="-107.177916430">
        <ele>1817.700</ele>
        <time>2020-04-06T18:41:33Z</time>
      </trkpt>
      <trkpt lat="35.499335330" lon="-107.177949760">
        <ele>1818.100</ele>
        <time>2020-04-06T18:41:38Z</time>
      </trkpt>
      <trkpt lat="35.499298320" lon="-107.177966070">
        <ele>1818.800</ele>
        <time>2020-04-06T18:41:44Z</time>
      </trkpt>
      <trkpt lat="35.499262940" lon="-107.177988950">
        <ele>1819.900</ele>
        <time>2020-04-06T18:41:53Z</time>
      </trkpt>
      <trkpt lat="35.499228880" lon="-107.178004780">
        <ele>1819.100</ele>
        <time>2020-04-06T18:41:58Z</time>
      </trkpt>
      <trkpt lat="35.499199390" lon="-107.178036060">
        <ele>1818.200</ele>
        <time>2020-04-06T18:42:04Z</time>
      </trkpt>
      <trkpt lat="35.499163860" lon="-107.178049360">
        <ele>1818.300</ele>
        <time>2020-04-06T18:42:09Z</time>
      </trkpt>
      <trkpt lat="35.499122690" lon="-107.178053820">
        <ele>1817.400</ele>
        <time>2020-04-06T18:42:16Z</time>
      </trkpt>
      <trkpt lat="35.499084800" lon="-107.178052040">
        <ele>1819.500</ele>
        <time>2020-04-06T18:42:22Z</time>
      </trkpt>
      <trkpt lat="35.499042890" lon="-107.178050420">
        <ele>1819.600</ele>
        <time>2020-04-06T18:42:28Z</time>
      </trkpt>
      <trkpt lat="35.499004610" lon="-107.178051170">
        <ele>1820.600</ele>
        <time>2020-04-06T18:42:34Z</time>
      </trkpt>
      <trkpt lat="35.498966640" lon="-107.178058200">
        <ele>1821.400</ele>
        <time>2020-04-06T18:42:42Z</time>
      </trkpt>
      <trkpt lat="35.498929060" lon="-107.178063220">
        <ele>1821.700</ele>
        <time>2020-04-06T18:42:47Z</time>
      </trkpt>
      <trkpt lat="35.498884970" lon="-107.178069240">
        <ele>1813.000</ele>
        <time>2020-04-06T18:42:52Z</time>
      </trkpt>
      <trkpt lat="35.498848150" lon="-107.178062520">
        <ele>1818.600</ele>
        <time>2020-04-06T18:42:57Z</time>
      </trkpt>
      <trkpt lat="35.498846750" lon="-107.178112620">
        <ele>1818.000</ele>
        <time>2020-04-06T18:43:16Z</time>
      </trkpt>
      <trkpt lat="35.498846570" lon="-107.178156770">
        <ele>1817.800</ele>
        <time>2020-04-06T18:43:20Z</time>
      </trkpt>
      <trkpt lat="35.498842630" lon="-107.178205250">
        <ele>1817.900</ele>
        <time>2020-04-06T18:43:24Z</time>
      </trkpt>
      <trkpt lat="35.498828520" lon="-107.178250760">
        <ele>1820.800</ele>
        <time>2020-04-06T18:43:40Z</time>
      </trkpt>
      <trkpt lat="35.498799120" lon="-107.178281290">
        <ele>1823.200</ele>
        <time>2020-04-06T18:44:24Z</time>
      </trkpt>
      <trkpt lat="35.498786840" lon="-107.178325780">
        <ele>1822.600</ele>
        <time>2020-04-06T18:44:29Z</time>
      </trkpt>
      <trkpt lat="35.498761120" lon="-107.178371660">
        <ele>1822.800</ele>
        <time>2020-04-06T18:44:34Z</time>
      </trkpt>
      <trkpt lat="35.498748570" lon="-107.178422340">
        <ele>1824.500</ele>
        <time>2020-04-06T18:44:38Z</time>
      </trkpt>
      <trkpt lat="35.498749110" lon="-107.178473700">
        <ele>1824.400</ele>
        <time>2020-04-06T18:44:42Z</time>
      </trkpt>
      <trkpt lat="35.498733400" lon="-107.178523080">
        <ele>1825.700</ele>
        <time>2020-04-06T18:44:47Z</time>
      </trkpt>
      <trkpt lat="35.498721750" lon="-107.178572190">
        <ele>1822.700</ele>
        <time>2020-04-06T18:44:53Z</time>
      </trkpt>
      <trkpt lat="35.498721210" lon="-107.178622250">
        <ele>1821.200</ele>
        <time>2020-04-06T18:44:57Z</time>
      </trkpt>
      <trkpt lat="35.498722070" lon="-107.178669450">
        <ele>1820.700</ele>
        <time>2020-04-06T18:45:01Z</time>
      </trkpt>
      <trkpt lat="35.498717480" lon="-107.178716380">
        <ele>1822.200</ele>
        <time>2020-04-06T18:45:06Z</time>
      </trkpt>
      <trkpt lat="35.498702600" lon="-107.178760500">
        <ele>1821.700</ele>
        <time>2020-04-06T18:45:10Z</time>
      </trkpt>
      <trkpt lat="35.498704830" lon="-107.178816130">
        <ele>1819.200</ele>
        <time>2020-04-06T18:45:14Z</time>
      </trkpt>
      <trkpt lat="35.498682100" lon="-107.178852230">
        <ele>1820.400</ele>
        <time>2020-04-06T18:45:18Z</time>
      </trkpt>
      <trkpt lat="35.498678830" lon="-107.178909830">
        <ele>1819.600</ele>
        <time>2020-04-06T18:45:22Z</time>
      </trkpt>
      <trkpt lat="35.498688910" lon="-107.178959980">
        <ele>1821.000</ele>
        <time>2020-04-06T18:45:26Z</time>
      </trkpt>
      <trkpt lat="35.498683700" lon="-107.179012260">
        <ele>1822.400</ele>
        <time>2020-04-06T18:45:31Z</time>
      </trkpt>
      <trkpt lat="35.498688490" lon="-107.179068550">
        <ele>1823.200</ele>
        <time>2020-04-06T18:45:35Z</time>
      </trkpt>
      <trkpt lat="35.498699120" lon="-107.179114070">
        <ele>1821.000</ele>
        <time>2020-04-06T18:45:38Z</time>
      </trkpt>
      <trkpt lat="35.498698710" lon="-107.179159370">
        <ele>1820.600</ele>
        <time>2020-04-06T18:45:41Z</time>
      </trkpt>
      <trkpt lat="35.498692950" lon="-107.179213910">
        <ele>1820.900</ele>
        <time>2020-04-06T18:45:45Z</time>
      </trkpt>
      <trkpt lat="35.498688080" lon="-107.179271080">
        <ele>1821.000</ele>
        <time>2020-04-06T18:45:49Z</time>
      </trkpt>
      <trkpt lat="35.498683800" lon="-107.179325450">
        <ele>1821.100</ele>
        <time>2020-04-06T18:45:53Z</time>
      </trkpt>
      <trkpt lat="35.498665550" lon="-107.179375290">
        <ele>1821.200</ele>
        <time>2020-04-06T18:45:58Z</time>
      </trkpt>
      <trkpt lat="35.498637880" lon="-107.179404370">
        <ele>1822.000</ele>
        <time>2020-04-06T18:46:02Z</time>
      </trkpt>
      <trkpt lat="35.498628890" lon="-107.179448910">
        <ele>1821.400</ele>
        <time>2020-04-06T18:46:06Z</time>
      </trkpt>
      <trkpt lat="35.498623430" lon="-107.179493640">
        <ele>1821.400</ele>
        <time>2020-04-06T18:46:10Z</time>
      </trkpt>
      <trkpt lat="35.498619090" lon="-107.179539920">
        <ele>1820.600</ele>
        <time>2020-04-06T18:46:14Z</time>
      </trkpt>
      <trkpt lat="35.498606200" lon="-107.179583520">
        <ele>1821.200</ele>
        <time>2020-04-06T18:46:18Z</time>
      </trkpt>
      <trkpt lat="35.498595040" lon="-107.179632550">
        <ele>1820.300</ele>
        <time>2020-04-06T18:46:22Z</time>
      </trkpt>
      <trkpt lat="35.498577040" lon="-107.179676200">
        <ele>1820.700</ele>
        <time>2020-04-06T18:46:26Z</time>
      </trkpt>
      <trkpt lat="35.498579930" lon="-107.179725490">
        <ele>1818.700</ele>
        <time>2020-04-06T18:46:30Z</time>
      </trkpt>
      <trkpt lat="35.498573350" lon="-107.179779260">
        <ele>1819.100</ele>
        <time>2020-04-06T18:46:37Z</time>
      </trkpt>
      <trkpt lat="35.498552000" lon="-107.179828420">
        <ele>1817.900</ele>
        <time>2020-04-06T18:46:41Z</time>
      </trkpt>
      <trkpt lat="35.498527780" lon="-107.179872190">
        <ele>1819.000</ele>
        <time>2020-04-06T18:46:45Z</time>
      </trkpt>
      <trkpt lat="35.498505040" lon="-107.179917920">
        <ele>1818.900</ele>
        <time>2020-04-06T18:46:49Z</time>
      </trkpt>
      <trkpt lat="35.498481980" lon="-107.179959570">
        <ele>1818.800</ele>
        <time>2020-04-06T18:46:53Z</time>
      </trkpt>
      <trkpt lat="35.498463720" lon="-107.180008190">
        <ele>1819.500</ele>
        <time>2020-04-06T18:46:58Z</time>
      </trkpt>
      <trkpt lat="35.498438110" lon="-107.180040680">
        <ele>1821.200</ele>
        <time>2020-04-06T18:47:02Z</time>
      </trkpt>
      <trkpt lat="35.498418540" lon="-107.180090960">
        <ele>1822.300</ele>
        <time>2020-04-06T18:47:07Z</time>
      </trkpt>
      <trkpt lat="35.498390010" lon="-107.180135730">
        <ele>1821.000</ele>
        <time>2020-04-06T18:47:11Z</time>
      </trkpt>
      <trkpt lat="35.498371930" lon="-107.180179470">
        <ele>1818.900</ele>
        <time>2020-04-06T18:47:23Z</time>
      </trkpt>
      <trkpt lat="35.498350770" lon="-107.180216520">
        <ele>1821.700</ele>
        <time>2020-04-06T18:47:29Z</time>
      </trkpt>
      <trkpt lat="35.498390850" lon="-107.180220390">
        <ele>1825.100</ele>
        <time>2020-04-06T18:49:37Z</time>
      </trkpt>
      <trkpt lat="35.498426600" lon="-107.180230930">
        <ele>1825.700</ele>
        <time>2020-04-06T18:49:44Z</time>
      </trkpt>
      <trkpt lat="35.498461220" lon="-107.180244400">
        <ele>1827.000</ele>
        <time>2020-04-06T18:49:53Z</time>
      </trkpt>
      <trkpt lat="35.498483900" lon="-107.180284370">
        <ele>1825.300</ele>
        <time>2020-04-06T18:50:04Z</time>
      </trkpt>
      <trkpt lat="35.498468270" lon="-107.180328390">
        <ele>1825.900</ele>
        <time>2020-04-06T18:50:12Z</time>
      </trkpt>
      <trkpt lat="35.498490500" lon="-107.180372610">
        <ele>1826.000</ele>
        <time>2020-04-06T18:50:20Z</time>
      </trkpt>
      <trkpt lat="35.498509990" lon="-107.180416760">
        <ele>1826.800</ele>
        <time>2020-04-06T18:50:26Z</time>
      </trkpt>
      <trkpt lat="35.498526290" lon="-107.180456150">
        <ele>1825.700</ele>
        <time>2020-04-06T18:50:30Z</time>
      </trkpt>
      <trkpt lat="35.498547960" lon="-107.180496750">
        <ele>1825.900</ele>
        <time>2020-04-06T18:50:36Z</time>
      </trkpt>
      <trkpt lat="35.498579730" lon="-107.180526280">
        <ele>1825.500</ele>
        <time>2020-04-06T18:50:40Z</time>
      </trkpt>
      <trkpt lat="35.498578370" lon="-107.180575200">
        <ele>1826.100</ele>
        <time>2020-04-06T18:50:46Z</time>
      </trkpt>
      <trkpt lat="35.498571820" lon="-107.180620130">
        <ele>1824.600</ele>
        <time>2020-04-06T18:50:53Z</time>
      </trkpt>
      <trkpt lat="35.498571500" lon="-107.180670040">
        <ele>1823.000</ele>
        <time>2020-04-06T18:50:59Z</time>
      </trkpt>
      <trkpt lat="35.498591380" lon="-107.180707600">
        <ele>1822.800</ele>
        <time>2020-04-06T18:51:08Z</time>
      </trkpt>
      <trkpt lat="35.498602980" lon="-107.180750160">
        <ele>1821.500</ele>
        <time>2020-04-06T18:51:14Z</time>
      </trkpt>
      <trkpt lat="35.498623290" lon="-107.180788790">
        <ele>1822.800</ele>
        <time>2020-04-06T18:51:24Z</time>
      </trkpt>
      <trkpt lat="35.498645900" lon="-107.180830690">
        <ele>1823.900</ele>
        <time>2020-04-06T18:51:30Z</time>
      </trkpt>
      <trkpt lat="35.498661350" lon="-107.180871200">
        <ele>1813.000</ele>
        <time>2020-04-06T18:51:35Z</time>
      </trkpt>
      <trkpt lat="35.498681790" lon="-107.180910560">
        <ele>1822.800</ele>
        <time>2020-04-06T18:51:40Z</time>
      </trkpt>
      <trkpt lat="35.498695650" lon="-107.180957460">
        <ele>1826.400</ele>
        <time>2020-04-06T18:51:53Z</time>
      </trkpt>
      <trkpt lat="35.498730150" lon="-107.180978480">
        <ele>1815.500</ele>
        <time>2020-04-06T18:51:58Z</time>
      </trkpt>
      <trkpt lat="35.498763550" lon="-107.181006350">
        <ele>1828.500</ele>
        <time>2020-04-06T18:52:03Z</time>
      </trkpt>
      <trkpt lat="35.498789330" lon="-107.181045460">
        <ele>1828.300</ele>
        <time>2020-04-06T18:52:09Z</time>
      </trkpt>
      <trkpt lat="35.498757750" lon="-107.181069900">
        <ele>1830.800</ele>
        <time>2020-04-06T18:53:14Z</time>
      </trkpt>
      <trkpt lat="35.498721100" lon="-107.181080770">
        <ele>1831.800</ele>
        <time>2020-04-06T18:53:23Z</time>
      </trkpt>
      <trkpt lat="35.498692190" lon="-107.181110340">
        <ele>1833.100</ele>
        <time>2020-04-06T18:54:34Z</time>
      </trkpt>
      <trkpt lat="35.498664810" lon="-107.181139370">
        <ele>1831.000</ele>
        <time>2020-04-06T18:54:56Z</time>
      </trkpt>
      <trkpt lat="35.498653170" lon="-107.181184910">
        <ele>1831.700</ele>
        <time>2020-04-06T18:55:05Z</time>
      </trkpt>
      <trkpt lat="35.498617020" lon="-107.181198490">
        <ele>1831.800</ele>
        <time>2020-04-06T18:55:11Z</time>
      </trkpt>
      <trkpt lat="35.498579380" lon="-107.181188460">
        <ele>1818.700</ele>
        <time>2020-04-06T18:55:17Z</time>
      </trkpt>
      <trkpt lat="35.498539480" lon="-107.181170910">
        <ele>1829.600</ele>
        <time>2020-04-06T18:55:23Z</time>
      </trkpt>
      <trkpt lat="35.498501680" lon="-107.181168130">
        <ele>1827.000</ele>
        <time>2020-04-06T18:55:43Z</time>
      </trkpt>
      <trkpt lat="35.498463920" lon="-107.181189450">
        <ele>1831.900</ele>
        <time>2020-04-06T18:56:15Z</time>
      </trkpt>
      <trkpt lat="35.498434550" lon="-107.181224760">
        <ele>1832.400</ele>
        <time>2020-04-06T18:56:24Z</time>
      </trkpt>
      <trkpt lat="35.498402400" lon="-107.181257030">
        <ele>1833.200</ele>
        <time>2020-04-06T18:56:31Z</time>
      </trkpt>
      <trkpt lat="35.498368670" lon="-107.181275160">
        <ele>1833.900</ele>
        <time>2020-04-06T18:56:38Z</time>
      </trkpt>
      <trkpt lat="35.498332380" lon="-107.181298600">
        <ele>1833.100</ele>
        <time>2020-04-06T18:56:50Z</time>
      </trkpt>
      <trkpt lat="35.498316150" lon="-107.181340360">
        <ele>1832.000</ele>
        <time>2020-04-06T18:57:00Z</time>
      </trkpt>
      <trkpt lat="35.498286650" lon="-107.181368840">
        <ele>1831.400</ele>
        <time>2020-04-06T18:57:11Z</time>
      </trkpt>
      <trkpt lat="35.498249840" lon="-107.181368330">
        <ele>1832.100</ele>
        <time>2020-04-06T18:57:17Z</time>
      </trkpt>
      <trkpt lat="35.498209780" lon="-107.181377930">
        <ele>1832.200</ele>
        <time>2020-04-06T18:57:24Z</time>
      </trkpt>
      <trkpt lat="35.498174910" lon="-107.181406470">
        <ele>1832.800</ele>
        <time>2020-04-06T18:57:30Z</time>
      </trkpt>
      <trkpt lat="35.498141560" lon="-107.181426950">
        <ele>1832.200</ele>
        <time>2020-04-06T18:57:36Z</time>
      </trkpt>
      <trkpt lat="35.498139520" lon="-107.181472720">
        <ele>1831.600</ele>
        <time>2020-04-06T18:57:41Z</time>
      </trkpt>
      <trkpt lat="35.498114270" lon="-107.181506440">
        <ele>1832.300</ele>
        <time>2020-04-06T18:57:46Z</time>
      </trkpt>
      <trkpt lat="35.498095620" lon="-107.181546580">
        <ele>1831.400</ele>
        <time>2020-04-06T18:57:52Z</time>
      </trkpt>
      <trkpt lat="35.498074970" lon="-107.181585850">
        <ele>1831.400</ele>
        <time>2020-04-06T18:57:58Z</time>
      </trkpt>
      <trkpt lat="35.498045420" lon="-107.181618620">
        <ele>1831.300</ele>
        <time>2020-04-06T18:58:09Z</time>
      </trkpt>
      <trkpt lat="35.498020470" lon="-107.181654610">
        <ele>1831.600</ele>
        <time>2020-04-06T18:58:14Z</time>
      </trkpt>
      <trkpt lat="35.497996350" lon="-107.181692540">
        <ele>1832.600</ele>
        <time>2020-04-06T18:58:20Z</time>
      </trkpt>
      <trkpt lat="35.497974840" lon="-107.181732140">
        <ele>1833.900</ele>
        <time>2020-04-06T18:58:53Z</time>
      </trkpt>
      <trkpt lat="35.497937920" lon="-107.181758650">
        <ele>1832.800</ele>
        <time>2020-04-06T18:59:11Z</time>
      </trkpt>
      <trkpt lat="35.497904940" lon="-107.181734630">
        <ele>1832.600</ele>
        <time>2020-04-06T18:59:20Z</time>
      </trkpt>
      <trkpt lat="35.497868930" lon="-107.181728410">
        <ele>1830.800</ele>
        <time>2020-04-06T18:59:26Z</time>
      </trkpt>
      <trkpt lat="35.497831570" lon="-107.181740090">
        <ele>1828.100</ele>
        <time>2020-04-06T18:59:33Z</time>
      </trkpt>
      <trkpt lat="35.497796880" lon="-107.181764170">
        <ele>1828.100</ele>
        <time>2020-04-06T18:59:40Z</time>
      </trkpt>
      <trkpt lat="35.497754080" lon="-107.181772440">
        <ele>1826.900</ele>
        <time>2020-04-06T18:59:46Z</time>
      </trkpt>
      <trkpt lat="35.497717990" lon="-107.181797300">
        <ele>1827.100</ele>
        <time>2020-04-06T18:59:51Z</time>
      </trkpt>
      <trkpt lat="35.497673890" lon="-107.181813870">
        <ele>1827.200</ele>
        <time>2020-04-06T18:59:56Z</time>
      </trkpt>
      <trkpt lat="35.497631510" lon="-107.181828050">
        <ele>1826.800</ele>
        <time>2020-04-06T19:00:15Z</time>
      </trkpt>
      <trkpt lat="35.497593820" lon="-107.181840900">
        <ele>1826.600</ele>
        <time>2020-04-06T19:00:19Z</time>
      </trkpt>
      <trkpt lat="35.497556170" lon="-107.181858820">
        <ele>1826.600</ele>
        <time>2020-04-06T19:00:25Z</time>
      </trkpt>
      <trkpt lat="35.497521990" lon="-107.181891870">
        <ele>1826.900</ele>
        <time>2020-04-06T19:00:31Z</time>
      </trkpt>
      <trkpt lat="35.497491470" lon="-107.181926680">
        <ele>1827.000</ele>
        <time>2020-04-06T19:00:37Z</time>
      </trkpt>
      <trkpt lat="35.497462090" lon="-107.181962370">
        <ele>1826.800</ele>
        <time>2020-04-06T19:00:50Z</time>
      </trkpt>
      <trkpt lat="35.497435160" lon="-107.182002090">
        <ele>1827.000</ele>
        <time>2020-04-06T19:00:56Z</time>
      </trkpt>
      <trkpt lat="35.497408660" lon="-107.182032490">
        <ele>1827.300</ele>
        <time>2020-04-06T19:01:01Z</time>
      </trkpt>
      <trkpt lat="35.497395580" lon="-107.182075710">
        <ele>1826.800</ele>
        <time>2020-04-06T19:01:22Z</time>
      </trkpt>
      <trkpt lat="35.497403030" lon="-107.182121180">
        <ele>1828.400</ele>
        <time>2020-04-06T19:01:45Z</time>
      </trkpt>
      <trkpt lat="35.497418580" lon="-107.182166870">
        <ele>1829.100</ele>
        <time>2020-04-06T19:01:50Z</time>
      </trkpt>
      <trkpt lat="35.497396980" lon="-107.182125950">
        <ele>1832.000</ele>
        <time>2020-04-06T19:04:12Z</time>
      </trkpt>
      <trkpt lat="35.497424400" lon="-107.182095440">
        <ele>1832.500</ele>
        <time>2020-04-06T19:04:17Z</time>
      </trkpt>
      <trkpt lat="35.497451010" lon="-107.182060370">
        <ele>1831.900</ele>
        <time>2020-04-06T19:04:21Z</time>
      </trkpt>
      <trkpt lat="35.497475290" lon="-107.182022610">
        <ele>1831.400</ele>
        <time>2020-04-06T19:04:34Z</time>
      </trkpt>
      <trkpt lat="35.497493190" lon="-107.182067580">
        <ele>1828.100</ele>
        <time>2020-04-06T19:04:59Z</time>
      </trkpt>
      <trkpt lat="35.497513930" lon="-107.182023800">
        <ele>1831.000</ele>
        <time>2020-04-06T19:06:09Z</time>
      </trkpt>
      <trkpt lat="35.497498930" lon="-107.181983340">
        <ele>1831.400</ele>
        <time>2020-04-06T19:06:14Z</time>
      </trkpt>
      <trkpt lat="35.497476580" lon="-107.181943790">
        <ele>1831.500</ele>
        <time>2020-04-06T19:06:26Z</time>
      </trkpt>
      <trkpt lat="35.497467200" lon="-107.181896790">
        <ele>1831.700</ele>
        <time>2020-04-06T19:06:36Z</time>
      </trkpt>
      <trkpt lat="35.497436410" lon="-107.181861680">
        <ele>1832.200</ele>
        <time>2020-04-06T19:06:42Z</time>
      </trkpt>
      <trkpt lat="35.497398570" lon="-107.181856080">
        <ele>1830.400</ele>
        <time>2020-04-06T19:09:54Z</time>
      </trkpt>
      <trkpt lat="35.497366640" lon="-107.181878860">
        <ele>1836.100</ele>
        <time>2020-04-06T19:57:24Z</time>
      </trkpt>
      <trkpt lat="35.497322070" lon="-107.181876170">
        <ele>1835.600</ele>
        <time>2020-04-06T19:58:39Z</time>
      </trkpt>
      <trkpt lat="35.497287230" lon="-107.181905090">
        <ele>1835.600</ele>
        <time>2020-04-06T19:58:44Z</time>
      </trkpt>
      <trkpt lat="35.497249630" lon="-107.181929890">
        <ele>1835.300</ele>
        <time>2020-04-06T19:58:50Z</time>
      </trkpt>
      <trkpt lat="35.497206630" lon="-107.181941470">
        <ele>1833.800</ele>
        <time>2020-04-06T19:58:56Z</time>
      </trkpt>
      <trkpt lat="35.497173520" lon="-107.181958960">
        <ele>1834.100</ele>
        <time>2020-04-06T19:59:00Z</time>
      </trkpt>
      <trkpt lat="35.497138510" lon="-107.181989250">
        <ele>1833.800</ele>
        <time>2020-04-06T19:59:05Z</time>
      </trkpt>
      <trkpt lat="35.497104650" lon="-107.182004810">
        <ele>1834.100</ele>
        <time>2020-04-06T19:59:10Z</time>
      </trkpt>
      <trkpt lat="35.497074580" lon="-107.182035340">
        <ele>1834.300</ele>
        <time>2020-04-06T19:59:15Z</time>
      </trkpt>
      <trkpt lat="35.497052620" lon="-107.181991170">
        <ele>1836.200</ele>
        <time>2020-04-06T19:59:28Z</time>
      </trkpt>
      <trkpt lat="35.497033730" lon="-107.181945870">
        <ele>1836.600</ele>
        <time>2020-04-06T19:59:36Z</time>
      </trkpt>
      <trkpt lat="35.497003140" lon="-107.181916430">
        <ele>1836.800</ele>
        <time>2020-04-06T19:59:41Z</time>
      </trkpt>
      <trkpt lat="35.496972930" lon="-107.181885900">
        <ele>1838.400</ele>
        <time>2020-04-06T19:59:47Z</time>
      </trkpt>
      <trkpt lat="35.496953520" lon="-107.181844810">
        <ele>1838.800</ele>
        <time>2020-04-06T20:01:27Z</time>
      </trkpt>
      <trkpt lat="35.496928660" lon="-107.181806270">
        <ele>1838.800</ele>
        <time>2020-04-06T20:01:33Z</time>
      </trkpt>
      <trkpt lat="35.496891210" lon="-107.181812840">
        <ele>1840.900</ele>
        <time>2020-04-06T20:01:55Z</time>
      </trkpt>
      <trkpt lat="35.496855970" lon="-107.181800740">
        <ele>1842.700</ele>
        <time>2020-04-06T20:02:10Z</time>
      </trkpt>
      <trkpt lat="35.496823950" lon="-107.181821360">
        <ele>1838.800</ele>
        <time>2020-04-06T20:02:38Z</time>
      </trkpt>
      <trkpt lat="35.496796600" lon="-107.181852910">
        <ele>1844.200</ele>
        <time>2020-04-06T20:03:43Z</time>
      </trkpt>
      <trkpt lat="35.496763140" lon="-107.181870310">
        <ele>1848.700</ele>
        <time>2020-04-06T20:04:27Z</time>
      </trkpt>
      <trkpt lat="35.496727120" lon="-107.181881010">
        <ele>1844.500</ele>
        <time>2020-04-06T20:07:04Z</time>
      </trkpt>
      <trkpt lat="35.496761780" lon="-107.181898230">
        <ele>1848.700</ele>
        <time>2020-04-06T20:12:06Z</time>
      </trkpt>
      <trkpt lat="35.496797040" lon="-107.181908120">
        <ele>1845.600</ele>
        <time>2020-04-06T20:14:10Z</time>
      </trkpt>
      <trkpt lat="35.496831570" lon="-107.181925330">
        <ele>1843.400</ele>
        <time>2020-04-06T20:15:02Z</time>
      </trkpt>
      <trkpt lat="35.496847410" lon="-107.181965060">
        <ele>1843.100</ele>
        <time>2020-04-06T20:15:32Z</time>
      </trkpt>
      <trkpt lat="35.496885390" lon="-107.181952850">
        <ele>1840.800</ele>
        <time>2020-04-06T20:15:47Z</time>
      </trkpt>
      <trkpt lat="35.496926380" lon="-107.181956790">
        <ele>1838.200</ele>
        <time>2020-04-06T20:15:57Z</time>
      </trkpt>
      <trkpt lat="35.496968310" lon="-107.181958520">
        <ele>1840.200</ele>
        <time>2020-04-06T20:16:03Z</time>
      </trkpt>
      <trkpt lat="35.496998230" lon="-107.181930310">
        <ele>1840.300</ele>
        <time>2020-04-06T20:18:28Z</time>
      </trkpt>
      <trkpt lat="35.497035910" lon="-107.181943150">
        <ele>1838.300</ele>
        <time>2020-04-06T20:18:42Z</time>
      </trkpt>
      <trkpt lat="35.497075390" lon="-107.181954600">
        <ele>1837.400</ele>
        <time>2020-04-06T20:19:01Z</time>
      </trkpt>
      <trkpt lat="35.497108730" lon="-107.181984640">
        <ele>1837.900</ele>
        <time>2020-04-06T20:19:06Z</time>
      </trkpt>
      <trkpt lat="35.497143510" lon="-107.181998620">
        <ele>1836.800</ele>
        <time>2020-04-06T20:19:11Z</time>
      </trkpt>
      <trkpt lat="35.497182990" lon="-107.181997030">
        <ele>1835.700</ele>
        <time>2020-04-06T20:19:16Z</time>
      </trkpt>
      <trkpt lat="35.497220310" lon="-107.181996810">
        <ele>1835.500</ele>
        <time>2020-04-06T20:19:21Z</time>
      </trkpt>
      <trkpt lat="35.497256310" lon="-107.182002320">
        <ele>1835.600</ele>
        <time>2020-04-06T20:19:25Z</time>
      </trkpt>
      <trkpt lat="35.497293790" lon="-107.181978590">
        <ele>1834.800</ele>
        <time>2020-04-06T20:19:30Z</time>
      </trkpt>
      <trkpt lat="35.497316280" lon="-107.181935890">
        <ele>1833.900</ele>
        <time>2020-04-06T20:19:53Z</time>
      </trkpt>
      <trkpt lat="35.497338750" lon="-107.181896270">
        <ele>1833.300</ele>
        <time>2020-04-06T20:19:58Z</time>
      </trkpt>
      <trkpt lat="35.497376390" lon="-107.181887050">
        <ele>1832.900</ele>
        <time>2020-04-06T20:20:03Z</time>
      </trkpt>
      <trkpt lat="35.497414640" lon="-107.181880690">
        <ele>1833.500</ele>
        <time>2020-04-06T20:20:08Z</time>
      </trkpt>
      <trkpt lat="35.497455260" lon="-107.181880830">
        <ele>1832.600</ele>
        <time>2020-04-06T20:20:13Z</time>
      </trkpt>
      <trkpt lat="35.497492330" lon="-107.181867540">
        <ele>1832.200</ele>
        <time>2020-04-06T20:20:17Z</time>
      </trkpt>
      <trkpt lat="35.497523330" lon="-107.181840990">
        <ele>1833.100</ele>
        <time>2020-04-06T20:20:21Z</time>
      </trkpt>
      <trkpt lat="35.497549270" lon="-107.181804190">
        <ele>1832.700</ele>
        <time>2020-04-06T20:20:26Z</time>
      </trkpt>
      <trkpt lat="35.497583720" lon="-107.181779660">
        <ele>1831.900</ele>
        <time>2020-04-06T20:20:31Z</time>
      </trkpt>
      <trkpt lat="35.497579200" lon="-107.181730720">
        <ele>1831.700</ele>
        <time>2020-04-06T20:20:36Z</time>
      </trkpt>
      <trkpt lat="35.497572380" lon="-107.181685020">
        <ele>1830.600</ele>
        <time>2020-04-06T20:20:40Z</time>
      </trkpt>
      <trkpt lat="35.497585670" lon="-107.181635720">
        <ele>1830.400</ele>
        <time>2020-04-06T20:21:15Z</time>
      </trkpt>
      <trkpt lat="35.497608410" lon="-107.181595960">
        <ele>1830.200</ele>
        <time>2020-04-06T20:21:19Z</time>
      </trkpt>
      <trkpt lat="35.497624220" lon="-107.181549450">
        <ele>1829.900</ele>
        <time>2020-04-06T20:21:23Z</time>
      </trkpt>
      <trkpt lat="35.497636570" lon="-107.181506450">
        <ele>1829.700</ele>
        <time>2020-04-06T20:21:27Z</time>
      </trkpt>
      <trkpt lat="35.497646320" lon="-107.181464000">
        <ele>1829.100</ele>
        <time>2020-04-06T20:21:31Z</time>
      </trkpt>
      <trkpt lat="35.497659890" lon="-107.181418680">
        <ele>1828.900</ele>
        <time>2020-04-06T20:21:35Z</time>
      </trkpt>
      <trkpt lat="35.497665850" lon="-107.181367370">
        <ele>1828.100</ele>
        <time>2020-04-06T20:21:39Z</time>
      </trkpt>
      <trkpt lat="35.497672050" lon="-107.181315910">
        <ele>1828.700</ele>
        <time>2020-04-06T20:21:43Z</time>
      </trkpt>
      <trkpt lat="35.497680210" lon="-107.181270060">
        <ele>1828.800</ele>
        <time>2020-04-06T20:21:47Z</time>
      </trkpt>
      <trkpt lat="35.497699160" lon="-107.181227700">
        <ele>1829.000</ele>
        <time>2020-04-06T20:21:51Z</time>
      </trkpt>
      <trkpt lat="35.497732970" lon="-107.181191260">
        <ele>1828.900</ele>
        <time>2020-04-06T20:21:56Z</time>
      </trkpt>
      <trkpt lat="35.497746280" lon="-107.181143830">
        <ele>1828.700</ele>
        <time>2020-04-06T20:22:00Z</time>
      </trkpt>
      <trkpt lat="35.497752440" lon="-107.181098400">
        <ele>1828.300</ele>
        <time>2020-04-06T20:22:04Z</time>
      </trkpt>
      <trkpt lat="35.497777740" lon="-107.181059330">
        <ele>1828.200</ele>
        <time>2020-04-06T20:22:09Z</time>
      </trkpt>
      <trkpt lat="35.497800600" lon="-107.181016710">
        <ele>1828.000</ele>
        <time>2020-04-06T20:22:14Z</time>
      </trkpt>
      <trkpt lat="35.497837120" lon="-107.180989040">
        <ele>1828.200</ele>
        <time>2020-04-06T20:22:19Z</time>
      </trkpt>
      <trkpt lat="35.497870570" lon="-107.180958470">
        <ele>1828.300</ele>
        <time>2020-04-06T20:22:24Z</time>
      </trkpt>
      <trkpt lat="35.497906440" lon="-107.180949210">
        <ele>1828.300</ele>
        <time>2020-04-06T20:22:29Z</time>
      </trkpt>
      <trkpt lat="35.497932410" lon="-107.180905880">
        <ele>1828.000</ele>
        <time>2020-04-06T20:22:42Z</time>
      </trkpt>
      <trkpt lat="35.497951470" lon="-107.180865360">
        <ele>1827.300</ele>
        <time>2020-04-06T20:22:46Z</time>
      </trkpt>
      <trkpt lat="35.497967720" lon="-107.180825590">
        <ele>1827.200</ele>
        <time>2020-04-06T20:22:51Z</time>
      </trkpt>
      <trkpt lat="35.497996490" lon="-107.180789530">
        <ele>1827.500</ele>
        <time>2020-04-06T20:22:56Z</time>
      </trkpt>
      <trkpt lat="35.498031280" lon="-107.180764930">
        <ele>1827.600</ele>
        <time>2020-04-06T20:23:01Z</time>
      </trkpt>
      <trkpt lat="35.498052090" lon="-107.180727950">
        <ele>1827.500</ele>
        <time>2020-04-06T20:23:06Z</time>
      </trkpt>
      <trkpt lat="35.498077070" lon="-107.180689300">
        <ele>1826.400</ele>
        <time>2020-04-06T20:23:11Z</time>
      </trkpt>
      <trkpt lat="35.498110010" lon="-107.180655050">
        <ele>1826.400</ele>
        <time>2020-04-06T20:23:16Z</time>
      </trkpt>
      <trkpt lat="35.498141680" lon="-107.180633310">
        <ele>1825.400</ele>
        <time>2020-04-06T20:23:22Z</time>
      </trkpt>
      <trkpt lat="35.498164100" lon="-107.180598310">
        <ele>1825.700</ele>
        <time>2020-04-06T20:23:28Z</time>
      </trkpt>
      <trkpt lat="35.498170360" lon="-107.180548610">
        <ele>1825.000</ele>
        <time>2020-04-06T20:23:35Z</time>
      </trkpt>
      <trkpt lat="35.498183510" lon="-107.180503090">
        <ele>1826.900</ele>
        <time>2020-04-06T20:23:50Z</time>
      </trkpt>
      <trkpt lat="35.498219100" lon="-107.180477580">
        <ele>1827.600</ele>
        <time>2020-04-06T20:23:56Z</time>
      </trkpt>
      <trkpt lat="35.498245370" lon="-107.180438740">
        <ele>1827.800</ele>
        <time>2020-04-06T20:24:01Z</time>
      </trkpt>
      <trkpt lat="35.498272270" lon="-107.180408510">
        <ele>1827.900</ele>
        <time>2020-04-06T20:24:06Z</time>
      </trkpt>
      <trkpt lat="35.498295920" lon="-107.180375130">
        <ele>1827.600</ele>
        <time>2020-04-06T20:24:11Z</time>
      </trkpt>
      <trkpt lat="35.498308350" lon="-107.180327930">
        <ele>1826.000</ele>
        <time>2020-04-06T20:24:18Z</time>
      </trkpt>
      <trkpt lat="35.498328380" lon="-107.180285610">
        <ele>1825.600</ele>
        <time>2020-04-06T20:24:23Z</time>
      </trkpt>
      <trkpt lat="35.498345210" lon="-107.180241950">
        <ele>1825.900</ele>
        <time>2020-04-06T20:24:28Z</time>
      </trkpt>
      <trkpt lat="35.498377100" lon="-107.180204250">
        <ele>1826.400</ele>
        <time>2020-04-06T20:24:33Z</time>
      </trkpt>
      <trkpt lat="35.498396710" lon="-107.180160220">
        <ele>1826.200</ele>
        <time>2020-04-06T20:24:39Z</time>
      </trkpt>
      <trkpt lat="35.498432430" lon="-107.180127830">
        <ele>1825.500</ele>
        <time>2020-04-06T20:24:44Z</time>
      </trkpt>
      <trkpt lat="35.498458050" lon="-107.180094260">
        <ele>1826.000</ele>
        <time>2020-04-06T20:24:53Z</time>
      </trkpt>
      <trkpt lat="35.498480400" lon="-107.180052330">
        <ele>1827.000</ele>
        <time>2020-04-06T20:25:37Z</time>
      </trkpt>
      <trkpt lat="35.498501180" lon="-107.180012700">
        <ele>1827.000</ele>
        <time>2020-04-06T20:25:42Z</time>
      </trkpt>
      <trkpt lat="35.498525420" lon="-107.179978740">
        <ele>1826.600</ele>
        <time>2020-04-06T20:25:47Z</time>
      </trkpt>
      <trkpt lat="35.498546270" lon="-107.179937980">
        <ele>1825.300</ele>
        <time>2020-04-06T20:25:52Z</time>
      </trkpt>
      <trkpt lat="35.498562900" lon="-107.179895250">
        <ele>1825.300</ele>
        <time>2020-04-06T20:26:07Z</time>
      </trkpt>
      <trkpt lat="35.498579280" lon="-107.179848900">
        <ele>1825.100</ele>
        <time>2020-04-06T20:26:12Z</time>
      </trkpt>
      <trkpt lat="35.498601280" lon="-107.179813620">
        <ele>1825.400</ele>
        <time>2020-04-06T20:26:16Z</time>
      </trkpt>
      <trkpt lat="35.498620820" lon="-107.179767450">
        <ele>1825.000</ele>
        <time>2020-04-06T20:26:21Z</time>
      </trkpt>
      <trkpt lat="35.498633850" lon="-107.179723520">
        <ele>1824.300</ele>
        <time>2020-04-06T20:26:25Z</time>
      </trkpt>
      <trkpt lat="35.498647050" lon="-107.179670650">
        <ele>1824.500</ele>
        <time>2020-04-06T20:26:30Z</time>
      </trkpt>
      <trkpt lat="35.498661360" lon="-107.179626420">
        <ele>1824.100</ele>
        <time>2020-04-06T20:26:34Z</time>
      </trkpt>
      <trkpt lat="35.498678680" lon="-107.179578260">
        <ele>1824.000</ele>
        <time>2020-04-06T20:26:59Z</time>
      </trkpt>
      <trkpt lat="35.498691250" lon="-107.179533260">
        <ele>1823.800</ele>
        <time>2020-04-06T20:27:04Z</time>
      </trkpt>
      <trkpt lat="35.498708760" lon="-107.179488530">
        <ele>1824.000</ele>
        <time>2020-04-06T20:27:10Z</time>
      </trkpt>
      <trkpt lat="35.498718030" lon="-107.179437810">
        <ele>1823.700</ele>
        <time>2020-04-06T20:27:16Z</time>
      </trkpt>
      <trkpt lat="35.498731450" lon="-107.179392030">
        <ele>1823.700</ele>
        <time>2020-04-06T20:27:39Z</time>
      </trkpt>
      <trkpt lat="35.498736320" lon="-107.179340250">
        <ele>1823.600</ele>
        <time>2020-04-06T20:27:45Z</time>
      </trkpt>
      <trkpt lat="35.498743790" lon="-107.179290440">
        <ele>1824.000</ele>
        <time>2020-04-06T20:27:52Z</time>
      </trkpt>
      <trkpt lat="35.498750300" lon="-107.179245020">
        <ele>1824.100</ele>
        <time>2020-04-06T20:27:58Z</time>
      </trkpt>
      <trkpt lat="35.498753490" lon="-107.179198450">
        <ele>1824.300</ele>
        <time>2020-04-06T20:28:03Z</time>
      </trkpt>
      <trkpt lat="35.498752160" lon="-107.179152560">
        <ele>1823.300</ele>
        <time>2020-04-06T20:28:08Z</time>
      </trkpt>
      <trkpt lat="35.498759340" lon="-107.179104160">
        <ele>1822.400</ele>
        <time>2020-04-06T20:28:14Z</time>
      </trkpt>
      <trkpt lat="35.498759300" lon="-107.179058630">
        <ele>1822.900</ele>
        <time>2020-04-06T20:28:19Z</time>
      </trkpt>
      <trkpt lat="35.498753970" lon="-107.179008960">
        <ele>1823.300</ele>
        <time>2020-04-06T20:28:24Z</time>
      </trkpt>
      <trkpt lat="35.498747030" lon="-107.178962230">
        <ele>1824.200</ele>
        <time>2020-04-06T20:28:29Z</time>
      </trkpt>
      <trkpt lat="35.498744570" lon="-107.178914420">
        <ele>1824.500</ele>
        <time>2020-04-06T20:28:34Z</time>
      </trkpt>
      <trkpt lat="35.498748700" lon="-107.178869070">
        <ele>1824.300</ele>
        <time>2020-04-06T20:28:39Z</time>
      </trkpt>
      <trkpt lat="35.498741510" lon="-107.178819530">
        <ele>1824.900</ele>
        <time>2020-04-06T20:28:44Z</time>
      </trkpt>
      <trkpt lat="35.498733810" lon="-107.178771890">
        <ele>1825.100</ele>
        <time>2020-04-06T20:28:49Z</time>
      </trkpt>
      <trkpt lat="35.498735430" lon="-107.178723070">
        <ele>1825.400</ele>
        <time>2020-04-06T20:28:54Z</time>
      </trkpt>
      <trkpt lat="35.498754420" lon="-107.178684560">
        <ele>1825.600</ele>
        <time>2020-04-06T20:29:09Z</time>
      </trkpt>
      <trkpt lat="35.498784010" lon="-107.178647420">
        <ele>1825.400</ele>
        <time>2020-04-06T20:29:15Z</time>
      </trkpt>
      <trkpt lat="35.498805170" lon="-107.178608440">
        <ele>1825.600</ele>
        <time>2020-04-06T20:29:20Z</time>
      </trkpt>
      <trkpt lat="35.498813520" lon="-107.178560720">
        <ele>1825.100</ele>
        <time>2020-04-06T20:29:26Z</time>
      </trkpt>
      <trkpt lat="35.498809480" lon="-107.178516530">
        <ele>1825.300</ele>
        <time>2020-04-06T20:29:31Z</time>
      </trkpt>
      <trkpt lat="35.498818440" lon="-107.178470010">
        <ele>1825.600</ele>
        <time>2020-04-06T20:29:36Z</time>
      </trkpt>
      <trkpt lat="35.498823950" lon="-107.178426020">
        <ele>1825.900</ele>
        <time>2020-04-06T20:29:41Z</time>
      </trkpt>
      <trkpt lat="35.498834290" lon="-107.178378780">
        <ele>1826.100</ele>
        <time>2020-04-06T20:29:47Z</time>
      </trkpt>
      <trkpt lat="35.498868000" lon="-107.178347880">
        <ele>1826.000</ele>
        <time>2020-04-06T20:29:53Z</time>
      </trkpt>
      <trkpt lat="35.498904520" lon="-107.178325290">
        <ele>1826.000</ele>
        <time>2020-04-06T20:30:00Z</time>
      </trkpt>
      <trkpt lat="35.498939370" lon="-107.178304370">
        <ele>1825.300</ele>
        <time>2020-04-06T20:30:07Z</time>
      </trkpt>
      <trkpt lat="35.498965810" lon="-107.178266630">
        <ele>1824.500</ele>
        <time>2020-04-06T20:30:14Z</time>
      </trkpt>
      <trkpt lat="35.498973590" lon="-107.178220780">
        <ele>1823.200</ele>
        <time>2020-04-06T20:30:21Z</time>
      </trkpt>
      <trkpt lat="35.499004380" lon="-107.178193050">
        <ele>1823.100</ele>
        <time>2020-04-06T20:30:26Z</time>
      </trkpt>
      <trkpt lat="35.499038500" lon="-107.178166320">
        <ele>1823.600</ele>
        <time>2020-04-06T20:30:31Z</time>
      </trkpt>
      <trkpt lat="35.499072780" lon="-107.178137810">
        <ele>1823.800</ele>
        <time>2020-04-06T20:30:38Z</time>
      </trkpt>
      <trkpt lat="35.499109530" lon="-107.178121030">
        <ele>1823.600</ele>
        <time>2020-04-06T20:30:44Z</time>
      </trkpt>
      <trkpt lat="35.499142550" lon="-107.178094540">
        <ele>1822.600</ele>
        <time>2020-04-06T20:30:50Z</time>
      </trkpt>
      <trkpt lat="35.499181630" lon="-107.178090940">
        <ele>1822.600</ele>
        <time>2020-04-06T20:30:55Z</time>
      </trkpt>
      <trkpt lat="35.499224800" lon="-107.178091960">
        <ele>1823.200</ele>
        <time>2020-04-06T20:31:01Z</time>
      </trkpt>
      <trkpt lat="35.499261370" lon="-107.178069710">
        <ele>1823.600</ele>
        <time>2020-04-06T20:31:06Z</time>
      </trkpt>
      <trkpt lat="35.499293520" lon="-107.178038460">
        <ele>1823.100</ele>
        <time>2020-04-06T20:31:13Z</time>
      </trkpt>
      <trkpt lat="35.499323080" lon="-107.178009930">
        <ele>1822.200</ele>
        <time>2020-04-06T20:31:19Z</time>
      </trkpt>
      <trkpt lat="35.499347140" lon="-107.177973610">
        <ele>1821.800</ele>
        <time>2020-04-06T20:31:24Z</time>
      </trkpt>
      <trkpt lat="35.499372860" lon="-107.177941990">
        <ele>1822.200</ele>
        <time>2020-04-06T20:31:30Z</time>
      </trkpt>
      <trkpt lat="35.499413840" lon="-107.177924100">
        <ele>1822.800</ele>
        <time>2020-04-06T20:31:57Z</time>
      </trkpt>
      <trkpt lat="35.499457790" lon="-107.177910260">
        <ele>1822.000</ele>
        <time>2020-04-06T20:32:03Z</time>
      </trkpt>
      <trkpt lat="35.499492380" lon="-107.177879750">
        <ele>1823.300</ele>
        <time>2020-04-06T20:32:09Z</time>
      </trkpt>
      <trkpt lat="35.499525650" lon="-107.177853920">
        <ele>1823.400</ele>
        <time>2020-04-06T20:32:14Z</time>
      </trkpt>
      <trkpt lat="35.499556300" lon="-107.177830640">
        <ele>1824.200</ele>
        <time>2020-04-06T20:32:19Z</time>
      </trkpt>
      <trkpt lat="35.499592990" lon="-107.177813870">
        <ele>1824.400</ele>
        <time>2020-04-06T20:32:24Z</time>
      </trkpt>
      <trkpt lat="35.499629430" lon="-107.177796500">
        <ele>1824.000</ele>
        <time>2020-04-06T20:32:29Z</time>
      </trkpt>
      <trkpt lat="35.499663790" lon="-107.177771860">
        <ele>1823.200</ele>
        <time>2020-04-06T20:32:34Z</time>
      </trkpt>
      <trkpt lat="35.499702290" lon="-107.177745760">
        <ele>1823.200</ele>
        <time>2020-04-06T20:32:39Z</time>
      </trkpt>
      <trkpt lat="35.499739100" lon="-107.177716860">
        <ele>1823.000</ele>
        <time>2020-04-06T20:32:45Z</time>
      </trkpt>
      <trkpt lat="35.499776920" lon="-107.177691610">
        <ele>1823.400</ele>
        <time>2020-04-06T20:32:50Z</time>
      </trkpt>
      <trkpt lat="35.499809360" lon="-107.177654570">
        <ele>1823.200</ele>
        <time>2020-04-06T20:32:55Z</time>
      </trkpt>
      <trkpt lat="35.499824760" lon="-107.177612670">
        <ele>1822.600</ele>
        <time>2020-04-06T20:33:21Z</time>
      </trkpt>
      <trkpt lat="35.499846470" lon="-107.177575150">
        <ele>1823.400</ele>
        <time>2020-04-06T20:33:26Z</time>
      </trkpt>
      <trkpt lat="35.499878080" lon="-107.177553000">
        <ele>1822.500</ele>
        <time>2020-04-06T20:33:33Z</time>
      </trkpt>
      <trkpt lat="35.499913160" lon="-107.177537870">
        <ele>1821.100</ele>
        <time>2020-04-06T20:33:38Z</time>
      </trkpt>
      <trkpt lat="35.499941330" lon="-107.177503860">
        <ele>1820.800</ele>
        <time>2020-04-06T20:33:42Z</time>
      </trkpt>
      <trkpt lat="35.499971260" lon="-107.177472190">
        <ele>1821.400</ele>
        <time>2020-04-06T20:33:46Z</time>
      </trkpt>
      <trkpt lat="35.499998810" lon="-107.177443390">
        <ele>1821.400</ele>
        <time>2020-04-06T20:33:50Z</time>
      </trkpt>
      <trkpt lat="35.500025940" lon="-107.177405860">
        <ele>1821.500</ele>
        <time>2020-04-06T20:33:54Z</time>
      </trkpt>
      <trkpt lat="35.500046920" lon="-107.177363760">
        <ele>1821.100</ele>
        <time>2020-04-06T20:33:59Z</time>
      </trkpt>
      <trkpt lat="35.500075740" lon="-107.177325790">
        <ele>1822.100</ele>
        <time>2020-04-06T20:34:04Z</time>
      </trkpt>
      <trkpt lat="35.500101930" lon="-107.177290900">
        <ele>1822.700</ele>
        <time>2020-04-06T20:34:09Z</time>
      </trkpt>
      <trkpt lat="35.500133890" lon="-107.177251100">
        <ele>1822.400</ele>
        <time>2020-04-06T20:34:14Z</time>
      </trkpt>
      <trkpt lat="35.500162140" lon="-107.177209840">
        <ele>1822.700</ele>
        <time>2020-04-06T20:34:19Z</time>
      </trkpt>
      <trkpt lat="35.500178290" lon="-107.177158690">
        <ele>1824.100</ele>
        <time>2020-04-06T20:34:24Z</time>
      </trkpt>
      <trkpt lat="35.500195700" lon="-107.177118430">
        <ele>1823.500</ele>
        <time>2020-04-06T20:34:28Z</time>
      </trkpt>
      <trkpt lat="35.500215890" lon="-107.177081450">
        <ele>1823.400</ele>
        <time>2020-04-06T20:34:32Z</time>
      </trkpt>
      <trkpt lat="35.500237150" lon="-107.177042020">
        <ele>1823.200</ele>
        <time>2020-04-06T20:34:36Z</time>
      </trkpt>
      <trkpt lat="35.500258780" lon="-107.177000590">
        <ele>1822.700</ele>
        <time>2020-04-06T20:34:41Z</time>
      </trkpt>
      <trkpt lat="35.500261430" lon="-107.176953480">
        <ele>1822.300</ele>
        <time>2020-04-06T20:34:45Z</time>
      </trkpt>
      <trkpt lat="35.500260370" lon="-107.176907230">
        <ele>1820.600</ele>
        <time>2020-04-06T20:34:49Z</time>
      </trkpt>
      <trkpt lat="35.500266540" lon="-107.176858780">
        <ele>1817.100</ele>
        <time>2020-04-06T20:34:55Z</time>
      </trkpt>
      <trkpt lat="35.500260520" lon="-107.176810300">
        <ele>1819.100</ele>
        <time>2020-04-06T20:34:59Z</time>
      </trkpt>
      <trkpt lat="35.500255230" lon="-107.176764980">
        <ele>1819.300</ele>
        <time>2020-04-06T20:35:03Z</time>
      </trkpt>
      <trkpt lat="35.500255980" lon="-107.176712440">
        <ele>1819.700</ele>
        <time>2020-04-06T20:35:08Z</time>
      </trkpt>
      <trkpt lat="35.500246530" lon="-107.176668910">
        <ele>1820.200</ele>
        <time>2020-04-06T20:35:12Z</time>
      </trkpt>
      <trkpt lat="35.500236020" lon="-107.176615990">
        <ele>1820.700</ele>
        <time>2020-04-06T20:35:17Z</time>
      </trkpt>
      <trkpt lat="35.500219870" lon="-107.176570760">
        <ele>1820.600</ele>
        <time>2020-04-06T20:35:21Z</time>
      </trkpt>
      <trkpt lat="35.500201360" lon="-107.176527860">
        <ele>1820.300</ele>
        <time>2020-04-06T20:35:25Z</time>
      </trkpt>
      <trkpt lat="35.500186350" lon="-107.176486940">
        <ele>1820.400</ele>
        <time>2020-04-06T20:35:29Z</time>
      </trkpt>
      <trkpt lat="35.500171460" lon="-107.176441800">
        <ele>1820.100</ele>
        <time>2020-04-06T20:35:33Z</time>
      </trkpt>
      <trkpt lat="35.500153960" lon="-107.176401820">
        <ele>1820.000</ele>
        <time>2020-04-06T20:35:37Z</time>
      </trkpt>
      <trkpt lat="35.500135140" lon="-107.176361060">
        <ele>1819.500</ele>
        <time>2020-04-06T20:35:41Z</time>
      </trkpt>
      <trkpt lat="35.500113580" lon="-107.176313960">
        <ele>1819.100</ele>
        <time>2020-04-06T20:35:46Z</time>
      </trkpt>
      <trkpt lat="35.500084080" lon="-107.176271010">
        <ele>1819.200</ele>
        <time>2020-04-06T20:35:54Z</time>
      </trkpt>
      <trkpt lat="35.500063080" lon="-107.176234970">
        <ele>1819.000</ele>
        <time>2020-04-06T20:35:58Z</time>
      </trkpt>
      <trkpt lat="35.500032820" lon="-107.176197670">
        <ele>1819.400</ele>
        <time>2020-04-06T20:36:17Z</time>
      </trkpt>
      <trkpt lat="35.500011240" lon="-107.176158730">
        <ele>1819.900</ele>
        <time>2020-04-06T20:36:21Z</time>
      </trkpt>
      <trkpt lat="35.499987900" lon="-107.176117950">
        <ele>1819.800</ele>
        <time>2020-04-06T20:36:26Z</time>
      </trkpt>
      <trkpt lat="35.499963440" lon="-107.176074670">
        <ele>1820.700</ele>
        <time>2020-04-06T20:36:31Z</time>
      </trkpt>
      <trkpt lat="35.499943300" lon="-107.176033360">
        <ele>1821.800</ele>
        <time>2020-04-06T20:36:36Z</time>
      </trkpt>
      <trkpt lat="35.499923310" lon="-107.175986880">
        <ele>1821.600</ele>
        <time>2020-04-06T20:36:41Z</time>
      </trkpt>
      <trkpt lat="35.499902390" lon="-107.175949830">
        <ele>1821.200</ele>
        <time>2020-04-06T20:36:45Z</time>
      </trkpt>
      <trkpt lat="35.499878180" lon="-107.175904370">
        <ele>1820.100</ele>
        <time>2020-04-06T20:36:50Z</time>
      </trkpt>
      <trkpt lat="35.499851910" lon="-107.175872880">
        <ele>1819.900</ele>
        <time>2020-04-06T20:36:55Z</time>
      </trkpt>
      <trkpt lat="35.499818730" lon="-107.175836690">
        <ele>1819.300</ele>
        <time>2020-04-06T20:37:00Z</time>
      </trkpt>
      <trkpt lat="35.499795400" lon="-107.175800860">
        <ele>1820.100</ele>
        <time>2020-04-06T20:37:04Z</time>
      </trkpt>
      <trkpt lat="35.499771820" lon="-107.175760810">
        <ele>1819.400</ele>
        <time>2020-04-06T20:37:09Z</time>
      </trkpt>
      <trkpt lat="35.499744100" lon="-107.175723520">
        <ele>1820.300</ele>
        <time>2020-04-06T20:37:14Z</time>
      </trkpt>
      <trkpt lat="35.499725890" lon="-107.175681210">
        <ele>1821.100</ele>
        <time>2020-04-06T20:37:19Z</time>
      </trkpt>
      <trkpt lat="35.499710030" lon="-107.175633710">
        <ele>1821.200</ele>
        <time>2020-04-06T20:37:24Z</time>
      </trkpt>
      <trkpt lat="35.499690210" lon="-107.175589550">
        <ele>1819.200</ele>
        <time>2020-04-06T20:37:29Z</time>
      </trkpt>
      <trkpt lat="35.499671860" lon="-107.175549710">
        <ele>1820.000</ele>
        <time>2020-04-06T20:37:33Z</time>
      </trkpt>
      <trkpt lat="35.499663890" lon="-107.175505510">
        <ele>1820.500</ele>
        <time>2020-04-06T20:37:38Z</time>
      </trkpt>
      <trkpt lat="35.499671720" lon="-107.175459470">
        <ele>1820.000</ele>
        <time>2020-04-06T20:37:44Z</time>
      </trkpt>
      <trkpt lat="35.499693740" lon="-107.175421910">
        <ele>1820.100</ele>
        <time>2020-04-06T20:37:50Z</time>
      </trkpt>
      <trkpt lat="35.499703940" lon="-107.175375250">
        <ele>1819.600</ele>
        <time>2020-04-06T20:37:55Z</time>
      </trkpt>
      <trkpt lat="35.499727980" lon="-107.175335650">
        <ele>1819.400</ele>
        <time>2020-04-06T20:38:00Z</time>
      </trkpt>
      <trkpt lat="35.499755960" lon="-107.175303520">
        <ele>1820.100</ele>
        <time>2020-04-06T20:38:05Z</time>
      </trkpt>
      <trkpt lat="35.499780640" lon="-107.175267570">
        <ele>1818.900</ele>
        <time>2020-04-06T20:38:10Z</time>
      </trkpt>
      <trkpt lat="35.499810060" lon="-107.175226970">
        <ele>1812.600</ele>
        <time>2020-04-06T20:38:15Z</time>
      </trkpt>
      <trkpt lat="35.499832390" lon="-107.175189690">
        <ele>1816.700</ele>
        <time>2020-04-06T20:38:20Z</time>
      </trkpt>
      <trkpt lat="35.499862230" lon="-107.175150330">
        <ele>1817.300</ele>
        <time>2020-04-06T20:38:25Z</time>
      </trkpt>
      <trkpt lat="35.499886370" lon="-107.175112040">
        <ele>1817.500</ele>
        <time>2020-04-06T20:38:30Z</time>
      </trkpt>
      <trkpt lat="35.499905210" lon="-107.175063600">
        <ele>1817.400</ele>
        <time>2020-04-06T20:38:35Z</time>
      </trkpt>
      <trkpt lat="35.499918330" lon="-107.175012550">
        <ele>1817.000</ele>
        <time>2020-04-06T20:38:40Z</time>
      </trkpt>
      <trkpt lat="35.499938190" lon="-107.174972580">
        <ele>1816.700</ele>
        <time>2020-04-06T20:38:46Z</time>
      </trkpt>
      <trkpt lat="35.499963880" lon="-107.174940270">
        <ele>1817.700</ele>
        <time>2020-04-06T20:38:50Z</time>
      </trkpt>
      <trkpt lat="35.499986540" lon="-107.174902420">
        <ele>1818.100</ele>
        <time>2020-04-06T20:38:55Z</time>
      </trkpt>
      <trkpt lat="35.500005620" lon="-107.174864870">
        <ele>1817.100</ele>
        <time>2020-04-06T20:38:59Z</time>
      </trkpt>
      <trkpt lat="35.500041640" lon="-107.174846880">
        <ele>1817.500</ele>
        <time>2020-04-06T20:39:04Z</time>
      </trkpt>
      <trkpt lat="35.500072280" lon="-107.174813790">
        <ele>1816.300</ele>
        <time>2020-04-06T20:39:10Z</time>
      </trkpt>
      <trkpt lat="35.500107600" lon="-107.174804320">
        <ele>1816.400</ele>
        <time>2020-04-06T20:39:14Z</time>
      </trkpt>
      <trkpt lat="35.500150220" lon="-107.174793100">
        <ele>1816.000</ele>
        <time>2020-04-06T20:39:19Z</time>
      </trkpt>
      <trkpt lat="35.500193770" lon="-107.174793660">
        <ele>1817.400</ele>
        <time>2020-04-06T20:39:24Z</time>
      </trkpt>
      <trkpt lat="35.500231160" lon="-107.174773170">
        <ele>1816.100</ele>
        <time>2020-04-06T20:39:29Z</time>
      </trkpt>
      <trkpt lat="35.500272090" lon="-107.174766540">
        <ele>1816.500</ele>
        <time>2020-04-06T20:39:34Z</time>
      </trkpt>
      <trkpt lat="35.500309110" lon="-107.174751550">
        <ele>1817.000</ele>
        <time>2020-04-06T20:39:39Z</time>
      </trkpt>
      <trkpt lat="35.500344590" lon="-107.174728680">
        <ele>1816.400</ele>
        <time>2020-04-06T20:39:44Z</time>
      </trkpt>
      <trkpt lat="35.500379970" lon="-107.174696370">
        <ele>1815.200</ele>
        <time>2020-04-06T20:39:49Z</time>
      </trkpt>
      <trkpt lat="35.500419530" lon="-107.174689130">
        <ele>1816.700</ele>
        <time>2020-04-06T20:39:54Z</time>
      </trkpt>
      <trkpt lat="35.500456500" lon="-107.174676080">
        <ele>1816.000</ele>
        <time>2020-04-06T20:39:59Z</time>
      </trkpt>
      <trkpt lat="35.500491890" lon="-107.174654610">
        <ele>1814.800</ele>
        <time>2020-04-06T20:40:05Z</time>
      </trkpt>
      <trkpt lat="35.500528080" lon="-107.174633540">
        <ele>1814.300</ele>
        <time>2020-04-06T20:40:10Z</time>
      </trkpt>
      <trkpt lat="35.500558760" lon="-107.174597330">
        <ele>1814.600</ele>
        <time>2020-04-06T20:40:15Z</time>
      </trkpt>
      <trkpt lat="35.500585090" lon="-107.174561710">
        <ele>1814.300</ele>
        <time>2020-04-06T20:40:20Z</time>
      </trkpt>
      <trkpt lat="35.500615270" lon="-107.174523750">
        <ele>1814.700</ele>
        <time>2020-04-06T20:40:27Z</time>
      </trkpt>
      <trkpt lat="35.500644090" lon="-107.174483990">
        <ele>1814.800</ele>
        <time>2020-04-06T20:40:33Z</time>
      </trkpt>
      <trkpt lat="35.500678980" lon="-107.174463930">
        <ele>1814.200</ele>
        <time>2020-04-06T20:40:37Z</time>
      </trkpt>
      <trkpt lat="35.500705200" lon="-107.174432220">
        <ele>1813.300</ele>
        <time>2020-04-06T20:40:42Z</time>
      </trkpt>
      <trkpt lat="35.500734640" lon="-107.174401710">
        <ele>1813.100</ele>
        <time>2020-04-06T20:40:47Z</time>
      </trkpt>
      <trkpt lat="35.500767740" lon="-107.174370430">
        <ele>1814.200</ele>
        <time>2020-04-06T20:40:52Z</time>
      </trkpt>
      <trkpt lat="35.500790800" lon="-107.174333060">
        <ele>1812.900</ele>
        <time>2020-04-06T20:40:57Z</time>
      </trkpt>
      <trkpt lat="35.500815060" lon="-107.174296740">
        <ele>1812.400</ele>
        <time>2020-04-06T20:41:01Z</time>
      </trkpt>
      <trkpt lat="35.500850720" lon="-107.174269500">
        <ele>1813.500</ele>
        <time>2020-04-06T20:41:05Z</time>
      </trkpt>
      <trkpt lat="35.500882290" lon="-107.174241480">
        <ele>1813.800</ele>
        <time>2020-04-06T20:41:09Z</time>
      </trkpt>
      <trkpt lat="35.500908730" lon="-107.174208250">
        <ele>1814.500</ele>
        <time>2020-04-06T20:41:13Z</time>
      </trkpt>
      <trkpt lat="35.500939800" lon="-107.174176130">
        <ele>1814.600</ele>
        <time>2020-04-06T20:41:19Z</time>
      </trkpt>
      <trkpt lat="35.500965620" lon="-107.174145180">
        <ele>1816.600</ele>
        <time>2020-04-06T20:41:37Z</time>
      </trkpt>
      <trkpt lat="35.500987420" lon="-107.174099580">
        <ele>1816.700</ele>
        <time>2020-04-06T20:41:43Z</time>
      </trkpt>
      <trkpt lat="35.501008680" lon="-107.174060300">
        <ele>1816.500</ele>
        <time>2020-04-06T20:41:50Z</time>
      </trkpt>
      <trkpt lat="35.500991860" lon="-107.174016430">
        <ele>1815.600</ele>
        <time>2020-04-06T20:42:00Z</time>
      </trkpt>
      <trkpt lat="35.500976480" lon="-107.173968390">
        <ele>1814.200</ele>
        <time>2020-04-06T20:42:15Z</time>
      </trkpt>
      <trkpt lat="35.500958080" lon="-107.173923610">
        <ele>1814.700</ele>
        <time>2020-04-06T20:42:19Z</time>
      </trkpt>
      <trkpt lat="35.500952120" lon="-107.173871310">
        <ele>1814.700</ele>
        <time>2020-04-06T20:42:24Z</time>
      </trkpt>
      <trkpt lat="35.500936490" lon="-107.173828800">
        <ele>1814.000</ele>
        <time>2020-04-06T20:42:28Z</time>
      </trkpt>
      <trkpt lat="35.500917640" lon="-107.173781200">
        <ele>1814.300</ele>
        <time>2020-04-06T20:42:33Z</time>
      </trkpt>
      <trkpt lat="35.500912830" lon="-107.173733280">
        <ele>1814.200</ele>
        <time>2020-04-06T20:42:38Z</time>
      </trkpt>
      <trkpt lat="35.500909990" lon="-107.173682280">
        <ele>1813.900</ele>
        <time>2020-04-06T20:42:44Z</time>
      </trkpt>
      <trkpt lat="35.500893060" lon="-107.173633720">
        <ele>1813.600</ele>
        <time>2020-04-06T20:42:49Z</time>
      </trkpt>
      <trkpt lat="35.500872220" lon="-107.173587930">
        <ele>1812.700</ele>
        <time>2020-04-06T20:42:54Z</time>
      </trkpt>
      <trkpt lat="35.500855010" lon="-107.173543210">
        <ele>1812.900</ele>
        <time>2020-04-06T20:43:00Z</time>
      </trkpt>
      <trkpt lat="35.500837200" lon="-107.173500040">
        <ele>1812.500</ele>
        <time>2020-04-06T20:43:05Z</time>
      </trkpt>
      <trkpt lat="35.500821640" lon="-107.173450580">
        <ele>1813.100</ele>
        <time>2020-04-06T20:43:10Z</time>
      </trkpt>
      <trkpt lat="35.500802870" lon="-107.173403140">
        <ele>1813.500</ele>
        <time>2020-04-06T20:43:15Z</time>
      </trkpt>
      <trkpt lat="35.500781670" lon="-107.173365180">
        <ele>1813.800</ele>
        <time>2020-04-06T20:43:19Z</time>
      </trkpt>
      <trkpt lat="35.500774310" lon="-107.173316730">
        <ele>1814.600</ele>
        <time>2020-04-06T20:43:24Z</time>
      </trkpt>
      <trkpt lat="35.500757130" lon="-107.173270770">
        <ele>1815.000</ele>
        <time>2020-04-06T20:43:32Z</time>
      </trkpt>
      <trkpt lat="35.500735560" lon="-107.173227890">
        <ele>1815.700</ele>
        <time>2020-04-06T20:43:38Z</time>
      </trkpt>
      <trkpt lat="35.500726100" lon="-107.173178770">
        <ele>1815.000</ele>
        <time>2020-04-06T20:43:43Z</time>
      </trkpt>
      <trkpt lat="35.500718730" lon="-107.173127670">
        <ele>1818.900</ele>
        <time>2020-04-06T20:43:49Z</time>
      </trkpt>
      <trkpt lat="35.500700720" lon="-107.173080610">
        <ele>1814.400</ele>
        <time>2020-04-06T20:43:54Z</time>
      </trkpt>
      <trkpt lat="35.500685810" lon="-107.173035180">
        <ele>1814.100</ele>
        <time>2020-04-06T20:43:58Z</time>
      </trkpt>
      <trkpt lat="35.500668240" lon="-107.172992890">
        <ele>1813.500</ele>
        <time>2020-04-06T20:44:02Z</time>
      </trkpt>
      <trkpt lat="35.500659800" lon="-107.172947030">
        <ele>1812.600</ele>
        <time>2020-04-06T20:44:08Z</time>
      </trkpt>
      <trkpt lat="35.500696410" lon="-107.172935400">
        <ele>1813.700</ele>
        <time>2020-04-06T20:44:14Z</time>
      </trkpt>
      <trkpt lat="35.500719240" lon="-107.172895710">
        <ele>1812.800</ele>
        <time>2020-04-06T20:44:25Z</time>
      </trkpt>
      <trkpt lat="35.500729270" lon="-107.172849320">
        <ele>1811.400</ele>
        <time>2020-04-06T20:44:34Z</time>
      </trkpt>
      <trkpt lat="35.500736500" lon="-107.172801990">
        <ele>1809.700</ele>
        <time>2020-04-06T20:44:40Z</time>
      </trkpt>
      <trkpt lat="35.500741760" lon="-107.172749750">
        <ele>1808.800</ele>
        <time>2020-04-06T20:44:45Z</time>
      </trkpt>
      <trkpt lat="35.500741070" lon="-107.172700820">
        <ele>1809.700</ele>
        <time>2020-04-06T20:44:50Z</time>
      </trkpt>
      <trkpt lat="35.500728100" lon="-107.172652720">
        <ele>1809.900</ele>
        <time>2020-04-06T20:44:55Z</time>
      </trkpt>
      <trkpt lat="35.500709820" lon="-107.172613480">
        <ele>1809.700</ele>
        <time>2020-04-06T20:44:59Z</time>
      </trkpt>
      <trkpt lat="35.500699260" lon="-107.172562320">
        <ele>1810.100</ele>
        <time>2020-04-06T20:45:04Z</time>
      </trkpt>
      <trkpt lat="35.500676830" lon="-107.172522040">
        <ele>1810.300</ele>
        <time>2020-04-06T20:45:08Z</time>
      </trkpt>
      <trkpt lat="35.500658700" lon="-107.172480280">
        <ele>1811.900</ele>
        <time>2020-04-06T20:45:13Z</time>
      </trkpt>
      <trkpt lat="35.500670450" lon="-107.172436700">
        <ele>1814.700</ele>
        <time>2020-04-06T20:45:18Z</time>
      </trkpt>
      <trkpt lat="35.500682480" lon="-107.172387840">
        <ele>1812.300</ele>
        <time>2020-04-06T20:45:23Z</time>
      </trkpt>
      <trkpt lat="35.500690250" lon="-107.172336840">
        <ele>1810.200</ele>
        <time>2020-04-06T20:45:28Z</time>
      </trkpt>
      <trkpt lat="35.500705520" lon="-107.172288180">
        <ele>1804.000</ele>
        <time>2020-04-06T20:45:33Z</time>
      </trkpt>
      <trkpt lat="35.500716180" lon="-107.172239420">
        <ele>1807.900</ele>
        <time>2020-04-06T20:45:38Z</time>
      </trkpt>
      <trkpt lat="35.500732200" lon="-107.172193610">
        <ele>1808.900</ele>
        <time>2020-04-06T20:45:43Z</time>
      </trkpt>
      <trkpt lat="35.500742120" lon="-107.172147650">
        <ele>1810.200</ele>
        <time>2020-04-06T20:46:09Z</time>
      </trkpt>
      <trkpt lat="35.500769640" lon="-107.172108490">
        <ele>1810.100</ele>
        <time>2020-04-06T20:46:14Z</time>
      </trkpt>
      <trkpt lat="35.500798750" lon="-107.172068150">
        <ele>1809.400</ele>
        <time>2020-04-06T20:46:19Z</time>
      </trkpt>
      <trkpt lat="35.500819070" lon="-107.172031280">
        <ele>1809.500</ele>
        <time>2020-04-06T20:46:24Z</time>
      </trkpt>
      <trkpt lat="35.500843460" lon="-107.171998240">
        <ele>1809.500</ele>
        <time>2020-04-06T20:46:40Z</time>
      </trkpt>
      <trkpt lat="35.500858970" lon="-107.171951500">
        <ele>1810.100</ele>
        <time>2020-04-06T20:46:45Z</time>
      </trkpt>
      <trkpt lat="35.500870990" lon="-107.171904300">
        <ele>1810.500</ele>
        <time>2020-04-06T20:46:52Z</time>
      </trkpt>
      <trkpt lat="35.500866720" lon="-107.171856320">
        <ele>1809.700</ele>
        <time>2020-04-06T20:46:59Z</time>
      </trkpt>
      <trkpt lat="35.500889890" lon="-107.171818400">
        <ele>1809.600</ele>
        <time>2020-04-06T20:47:11Z</time>
      </trkpt>
      <trkpt lat="35.500918200" lon="-107.171781410">
        <ele>1809.000</ele>
        <time>2020-04-06T20:47:17Z</time>
      </trkpt>
      <trkpt lat="35.500928100" lon="-107.171732760">
        <ele>1808.100</ele>
        <time>2020-04-06T20:47:47Z</time>
      </trkpt>
      <trkpt lat="35.500942180" lon="-107.171690210">
        <ele>1807.000</ele>
        <time>2020-04-06T20:48:01Z</time>
      </trkpt>
      <trkpt lat="35.500970400" lon="-107.171655800">
        <ele>1807.200</ele>
        <time>2020-04-06T20:48:07Z</time>
      </trkpt>
      <trkpt lat="35.500995530" lon="-107.171623830">
        <ele>1807.700</ele>
        <time>2020-04-06T20:48:12Z</time>
      </trkpt>
      <trkpt lat="35.501036460" lon="-107.171612710">
        <ele>1808.000</ele>
        <time>2020-04-06T20:48:17Z</time>
      </trkpt>
      <trkpt lat="35.501068590" lon="-107.171591910">
        <ele>1808.500</ele>
        <time>2020-04-06T20:48:22Z</time>
      </trkpt>
      <trkpt lat="35.501097340" lon="-107.171550860">
        <ele>1809.000</ele>
        <time>2020-04-06T20:48:28Z</time>
      </trkpt>
      <trkpt lat="35.501119810" lon="-107.171507780">
        <ele>1809.200</ele>
        <time>2020-04-06T20:48:33Z</time>
      </trkpt>
      <trkpt lat="35.501151600" lon="-107.171484780">
        <ele>1809.400</ele>
        <time>2020-04-06T20:48:38Z</time>
      </trkpt>
      <trkpt lat="35.501184300" lon="-107.171451640">
        <ele>1809.000</ele>
        <time>2020-04-06T20:48:45Z</time>
      </trkpt>
      <trkpt lat="35.501214290" lon="-107.171421870">
        <ele>1809.400</ele>
        <time>2020-04-06T20:48:51Z</time>
      </trkpt>
      <trkpt lat="35.501243130" lon="-107.171390620">
        <ele>1809.400</ele>
        <time>2020-04-06T20:48:56Z</time>
      </trkpt>
      <trkpt lat="35.501271070" lon="-107.171360630">
        <ele>1809.600</ele>
        <time>2020-04-06T20:49:01Z</time>
      </trkpt>
      <trkpt lat="35.501301400" lon="-107.171332350">
        <ele>1809.500</ele>
        <time>2020-04-06T20:49:06Z</time>
      </trkpt>
      <trkpt lat="35.501329770" lon="-107.171302470">
        <ele>1810.800</ele>
        <time>2020-04-06T20:49:12Z</time>
      </trkpt>
      <trkpt lat="35.501355650" lon="-107.171264790">
        <ele>1809.800</ele>
        <time>2020-04-06T20:49:17Z</time>
      </trkpt>
      <trkpt lat="35.501383310" lon="-107.171229410">
        <ele>1808.900</ele>
        <time>2020-04-06T20:49:22Z</time>
      </trkpt>
      <trkpt lat="35.501418070" lon="-107.171203360">
        <ele>1808.100</ele>
        <time>2020-04-06T20:49:27Z</time>
      </trkpt>
      <trkpt lat="35.501440740" lon="-107.171165250">
        <ele>1808.800</ele>
        <time>2020-04-06T20:49:32Z</time>
      </trkpt>
      <trkpt lat="35.501470610" lon="-107.171125890">
        <ele>1807.700</ele>
        <time>2020-04-06T20:49:37Z</time>
      </trkpt>
      <trkpt lat="35.501499790" lon="-107.171090850">
        <ele>1807.500</ele>
        <time>2020-04-06T20:49:42Z</time>
      </trkpt>
      <trkpt lat="35.501535080" lon="-107.171072700">
        <ele>1808.300</ele>
        <time>2020-04-06T20:49:56Z</time>
      </trkpt>
      <trkpt lat="35.501565230" lon="-107.171047230">
        <ele>1807.500</ele>
        <time>2020-04-06T20:50:01Z</time>
      </trkpt>
      <trkpt lat="35.501596920" lon="-107.171022300">
        <ele>1808.000</ele>
        <time>2020-04-06T20:50:06Z</time>
      </trkpt>
      <trkpt lat="35.501627270" lon="-107.170998290">
        <ele>1808.000</ele>
        <time>2020-04-06T20:50:11Z</time>
      </trkpt>
      <trkpt lat="35.501657060" lon="-107.170964730">
        <ele>1808.100</ele>
        <time>2020-04-06T20:50:17Z</time>
      </trkpt>
      <trkpt lat="35.501689000" lon="-107.170933980">
        <ele>1808.000</ele>
        <time>2020-04-06T20:50:43Z</time>
      </trkpt>
      <trkpt lat="35.501723880" lon="-107.170947810">
        <ele>1808.200</ele>
        <time>2020-04-06T20:50:47Z</time>
      </trkpt>
      <trkpt lat="35.501759500" lon="-107.170957190">
        <ele>1808.100</ele>
        <time>2020-04-06T20:50:55Z</time>
      </trkpt>
      <trkpt lat="35.501795760" lon="-107.170944460">
        <ele>1808.500</ele>
        <time>2020-04-06T20:51:08Z</time>
      </trkpt>
      <trkpt lat="35.501832000" lon="-107.170930690">
        <ele>1808.500</ele>
        <time>2020-04-06T20:51:14Z</time>
      </trkpt>
      <trkpt lat="35.501864660" lon="-107.170911920">
        <ele>1810.600</ele>
        <time>2020-04-06T20:52:34Z</time>
      </trkpt>
      <trkpt lat="35.501899350" lon="-107.170924000">
        <ele>1810.100</ele>
        <time>2020-04-06T20:53:21Z</time>
      </trkpt>
      <trkpt lat="35.501940190" lon="-107.170936510">
        <ele>1809.700</ele>
        <time>2020-04-06T20:53:26Z</time>
      </trkpt>
      <trkpt lat="35.501977200" lon="-107.170919800">
        <ele>1809.500</ele>
        <time>2020-04-06T20:53:31Z</time>
      </trkpt>
      <trkpt lat="35.502018980" lon="-107.170929470">
        <ele>1809.100</ele>
        <time>2020-04-06T20:53:36Z</time>
      </trkpt>
      <trkpt lat="35.502062260" lon="-107.170941800">
        <ele>1808.600</ele>
        <time>2020-04-06T20:53:42Z</time>
      </trkpt>
      <trkpt lat="35.502103910" lon="-107.170960560">
        <ele>1809.000</ele>
        <time>2020-04-06T20:53:47Z</time>
      </trkpt>
      <trkpt lat="35.502146490" lon="-107.170973510">
        <ele>1809.000</ele>
        <time>2020-04-06T20:53:52Z</time>
      </trkpt>
      <trkpt lat="35.502190060" lon="-107.170981230">
        <ele>1808.800</ele>
        <time>2020-04-06T20:54:04Z</time>
      </trkpt>
      <trkpt lat="35.502223160" lon="-107.171003980">
        <ele>1808.700</ele>
        <time>2020-04-06T20:54:08Z</time>
      </trkpt>
      <trkpt lat="35.502247420" lon="-107.171048560">
        <ele>1808.700</ele>
        <time>2020-04-06T20:54:13Z</time>
      </trkpt>
      <trkpt lat="35.502281540" lon="-107.171077200">
        <ele>1808.500</ele>
        <time>2020-04-06T20:54:18Z</time>
      </trkpt>
      <trkpt lat="35.502320870" lon="-107.171090380">
        <ele>1808.400</ele>
        <time>2020-04-06T20:54:23Z</time>
      </trkpt>
      <trkpt lat="35.502357060" lon="-107.171102550">
        <ele>1808.100</ele>
        <time>2020-04-06T20:54:27Z</time>
      </trkpt>
      <trkpt lat="35.502390900" lon="-107.171133960">
        <ele>1808.900</ele>
        <time>2020-04-06T20:54:32Z</time>
      </trkpt>
      <trkpt lat="35.502415750" lon="-107.171172020">
        <ele>1808.100</ele>
        <time>2020-04-06T20:54:36Z</time>
      </trkpt>
      <trkpt lat="35.502438490" lon="-107.171209940">
        <ele>1807.900</ele>
        <time>2020-04-06T20:54:41Z</time>
      </trkpt>
      <trkpt lat="35.502467590" lon="-107.171243900">
        <ele>1808.000</ele>
        <time>2020-04-06T20:54:46Z</time>
      </trkpt>
      <trkpt lat="35.502498760" lon="-107.171273270">
        <ele>1807.400</ele>
        <time>2020-04-06T20:54:50Z</time>
      </trkpt>
      <trkpt lat="35.502535270" lon="-107.171299710">
        <ele>1806.900</ele>
        <time>2020-04-06T20:54:54Z</time>
      </trkpt>
      <trkpt lat="35.502571970" lon="-107.171303200">
        <ele>1808.700</ele>
        <time>2020-04-06T20:55:01Z</time>
      </trkpt>
      <trkpt lat="35.502615450" lon="-107.171311360">
        <ele>1807.700</ele>
        <time>2020-04-06T20:55:06Z</time>
      </trkpt>
      <trkpt lat="35.502651440" lon="-107.171305800">
        <ele>1807.400</ele>
        <time>2020-04-06T20:55:10Z</time>
      </trkpt>
      <trkpt lat="35.502693340" lon="-107.171304160">
        <ele>1807.400</ele>
        <time>2020-04-06T20:55:15Z</time>
      </trkpt>
      <trkpt lat="35.502733770" lon="-107.171303650">
        <ele>1806.000</ele>
        <time>2020-04-06T20:55:20Z</time>
      </trkpt>
      <trkpt lat="35.502775190" lon="-107.171321020">
        <ele>1806.800</ele>
        <time>2020-04-06T20:55:26Z</time>
      </trkpt>
      <trkpt lat="35.502819210" lon="-107.171331500">
        <ele>1807.400</ele>
        <time>2020-04-06T20:55:31Z</time>
      </trkpt>
      <trkpt lat="35.502856930" lon="-107.171344030">
        <ele>1807.800</ele>
        <time>2020-04-06T20:55:37Z</time>
      </trkpt>
      <trkpt lat="35.502896470" lon="-107.171350760">
        <ele>1808.400</ele>
        <time>2020-04-06T20:55:42Z</time>
      </trkpt>
      <trkpt lat="35.502929010" lon="-107.171375380">
        <ele>1808.900</ele>
        <time>2020-04-06T20:55:46Z</time>
      </trkpt>
      <trkpt lat="35.502962720" lon="-107.171396170">
        <ele>1809.100</ele>
        <time>2020-04-06T20:55:50Z</time>
      </trkpt>
      <trkpt lat="35.503000580" lon="-107.171418930">
        <ele>1809.900</ele>
        <time>2020-04-06T20:55:55Z</time>
      </trkpt>
      <trkpt lat="35.503035620" lon="-107.171436980">
        <ele>1808.800</ele>
        <time>2020-04-06T20:55:59Z</time>
      </trkpt>
      <trkpt lat="35.503071650" lon="-107.171445500">
        <ele>1809.900</ele>
        <time>2020-04-06T20:56:03Z</time>
      </trkpt>
      <trkpt lat="35.503112270" lon="-107.171456010">
        <ele>1809.800</ele>
        <time>2020-04-06T20:56:07Z</time>
      </trkpt>
      <trkpt lat="35.503155570" lon="-107.171456580">
        <ele>1808.500</ele>
        <time>2020-04-06T20:56:11Z</time>
      </trkpt>
      <trkpt lat="35.503195800" lon="-107.171448980">
        <ele>1808.300</ele>
        <time>2020-04-06T20:56:15Z</time>
      </trkpt>
      <trkpt lat="35.503234900" lon="-107.171444270">
        <ele>1808.600</ele>
        <time>2020-04-06T20:56:49Z</time>
      </trkpt>
      <trkpt lat="35.503270420" lon="-107.171429080">
        <ele>1808.500</ele>
        <time>2020-04-06T20:56:53Z</time>
      </trkpt>
      <trkpt lat="35.503303910" lon="-107.171411520">
        <ele>1807.800</ele>
        <time>2020-04-06T20:56:57Z</time>
      </trkpt>
      <trkpt lat="35.503339190" lon="-107.171383320">
        <ele>1807.000</ele>
        <time>2020-04-06T20:57:02Z</time>
      </trkpt>
      <trkpt lat="35.503372330" lon="-107.171363240">
        <ele>1807.300</ele>
        <time>2020-04-06T20:57:06Z</time>
      </trkpt>
      <trkpt lat="35.503400260" lon="-107.171327080">
        <ele>1805.400</ele>
        <time>2020-04-06T20:57:10Z</time>
      </trkpt>
      <trkpt lat="35.503432320" lon="-107.171292640">
        <ele>1805.700</ele>
        <time>2020-04-06T20:57:14Z</time>
      </trkpt>
      <trkpt lat="35.503460800" lon="-107.171258870">
        <ele>1805.700</ele>
        <time>2020-04-06T20:57:18Z</time>
      </trkpt>
      <trkpt lat="35.503480940" lon="-107.171211480">
        <ele>1805.500</ele>
        <time>2020-04-06T20:57:23Z</time>
      </trkpt>
      <trkpt lat="35.503507000" lon="-107.171178090">
        <ele>1805.200</ele>
        <time>2020-04-06T20:57:27Z</time>
      </trkpt>
      <trkpt lat="35.503537010" lon="-107.171150160">
        <ele>1804.100</ele>
        <time>2020-04-06T20:57:31Z</time>
      </trkpt>
      <trkpt lat="35.503568470" lon="-107.171112240">
        <ele>1802.400</ele>
        <time>2020-04-06T20:57:36Z</time>
      </trkpt>
      <trkpt lat="35.503594990" lon="-107.171076940">
        <ele>1803.400</ele>
        <time>2020-04-06T20:57:41Z</time>
      </trkpt>
      <trkpt lat="35.503623570" lon="-107.171043620">
        <ele>1803.800</ele>
        <time>2020-04-06T20:57:46Z</time>
      </trkpt>
      <trkpt lat="35.503654410" lon="-107.171012680">
        <ele>1803.800</ele>
        <time>2020-04-06T20:57:51Z</time>
      </trkpt>
      <trkpt lat="35.503687730" lon="-107.170980360">
        <ele>1803.200</ele>
        <time>2020-04-06T20:57:55Z</time>
      </trkpt>
      <trkpt lat="35.503711380" lon="-107.170946480">
        <ele>1802.900</ele>
        <time>2020-04-06T20:57:59Z</time>
      </trkpt>
      <trkpt lat="35.503741600" lon="-107.170914620">
        <ele>1803.000</ele>
        <time>2020-04-06T20:58:04Z</time>
      </trkpt>
      <trkpt lat="35.503772380" lon="-107.170880290">
        <ele>1803.300</ele>
        <time>2020-04-06T20:58:08Z</time>
      </trkpt>
      <trkpt lat="35.503799450" lon="-107.170849800">
        <ele>1803.300</ele>
        <time>2020-04-06T20:58:12Z</time>
      </trkpt>
      <trkpt lat="35.503825960" lon="-107.170813940">
        <ele>1803.300</ele>
        <time>2020-04-06T20:58:16Z</time>
      </trkpt>
      <trkpt lat="35.503852050" lon="-107.170780700">
        <ele>1804.100</ele>
        <time>2020-04-06T20:58:20Z</time>
      </trkpt>
      <trkpt lat="35.503884940" lon="-107.170751380">
        <ele>1803.800</ele>
        <time>2020-04-06T20:58:24Z</time>
      </trkpt>
      <trkpt lat="35.503921600" lon="-107.170741490">
        <ele>1803.700</ele>
        <time>2020-04-06T20:58:28Z</time>
      </trkpt>
      <trkpt lat="35.503950570" lon="-107.170709530">
        <ele>1804.600</ele>
        <time>2020-04-06T20:58:33Z</time>
      </trkpt>
      <trkpt lat="35.503979410" lon="-107.170673390">
        <ele>1804.400</ele>
        <time>2020-04-06T20:58:38Z</time>
      </trkpt>
      <trkpt lat="35.504012960" lon="-107.170636860">
        <ele>1803.800</ele>
        <time>2020-04-06T20:58:43Z</time>
      </trkpt>
      <trkpt lat="35.504041920" lon="-107.170595380">
        <ele>1803.500</ele>
        <time>2020-04-06T20:58:48Z</time>
      </trkpt>
      <trkpt lat="35.504065590" lon="-107.170553210">
        <ele>1803.700</ele>
        <time>2020-04-06T20:58:53Z</time>
      </trkpt>
      <trkpt lat="35.504091120" lon="-107.170520290">
        <ele>1803.900</ele>
        <time>2020-04-06T20:58:59Z</time>
      </trkpt>
      <trkpt lat="35.504113050" lon="-107.170477470">
        <ele>1804.100</ele>
        <time>2020-04-06T20:59:16Z</time>
      </trkpt>
      <trkpt lat="35.504137500" lon="-107.170435860">
        <ele>1804.900</ele>
        <time>2020-04-06T20:59:21Z</time>
      </trkpt>
      <trkpt lat="35.504151160" lon="-107.170391170">
        <ele>1806.300</ele>
        <time>2020-04-06T20:59:26Z</time>
      </trkpt>
      <trkpt lat="35.504169420" lon="-107.170351250">
        <ele>1805.900</ele>
        <time>2020-04-06T20:59:30Z</time>
      </trkpt>
      <trkpt lat="35.504191160" lon="-107.170309590">
        <ele>1806.100</ele>
        <time>2020-04-06T20:59:35Z</time>
      </trkpt>
      <trkpt lat="35.504227460" lon="-107.170279860">
        <ele>1806.800</ele>
        <time>2020-04-06T20:59:41Z</time>
      </trkpt>
      <trkpt lat="35.504263950" lon="-107.170251410">
        <ele>1806.700</ele>
        <time>2020-04-06T20:59:46Z</time>
      </trkpt>
      <trkpt lat="35.504287250" lon="-107.170208440">
        <ele>1806.100</ele>
        <time>2020-04-06T20:59:51Z</time>
      </trkpt>
      <trkpt lat="35.504310860" lon="-107.170169770">
        <ele>1805.700</ele>
        <time>2020-04-06T20:59:56Z</time>
      </trkpt>
      <trkpt lat="35.504326810" lon="-107.170129520">
        <ele>1805.500</ele>
        <time>2020-04-06T21:00:00Z</time>
      </trkpt>
      <trkpt lat="35.504345540" lon="-107.170089700">
        <ele>1805.800</ele>
        <time>2020-04-06T21:00:05Z</time>
      </trkpt>
      <trkpt lat="35.504371320" lon="-107.170054140">
        <ele>1806.600</ele>
        <time>2020-04-06T21:00:26Z</time>
      </trkpt>
      <trkpt lat="35.504389770" lon="-107.170012870">
        <ele>1806.500</ele>
        <time>2020-04-06T21:00:31Z</time>
      </trkpt>
      <trkpt lat="35.504391460" lon="-107.169967920">
        <ele>1807.300</ele>
        <time>2020-04-06T21:02:50Z</time>
      </trkpt>
      <trkpt lat="35.504409930" lon="-107.169919690">
        <ele>1806.900</ele>
        <time>2020-04-06T21:02:55Z</time>
      </trkpt>
      <trkpt lat="35.504425460" lon="-107.169877570">
        <ele>1807.200</ele>
        <time>2020-04-06T21:03:00Z</time>
      </trkpt>
      <trkpt lat="35.504458020" lon="-107.169846010">
        <ele>1806.500</ele>
        <time>2020-04-06T21:03:04Z</time>
      </trkpt>
      <trkpt lat="35.504484200" lon="-107.169808290">
        <ele>1806.500</ele>
        <time>2020-04-06T21:03:09Z</time>
      </trkpt>
      <trkpt lat="35.504484410" lon="-107.169754500">
        <ele>1807.000</ele>
        <time>2020-04-06T21:03:14Z</time>
      </trkpt>
      <trkpt lat="35.504479580" lon="-107.169705510">
        <ele>1806.400</ele>
        <time>2020-04-06T21:03:18Z</time>
      </trkpt>
      <trkpt lat="35.504479890" lon="-107.169654500">
        <ele>1805.400</ele>
        <time>2020-04-06T21:03:22Z</time>
      </trkpt>
      <trkpt lat="35.504474100" lon="-107.169610280">
        <ele>1805.900</ele>
        <time>2020-04-06T21:03:26Z</time>
      </trkpt>
      <trkpt lat="35.504459070" lon="-107.169560420">
        <ele>1805.600</ele>
        <time>2020-04-06T21:03:31Z</time>
      </trkpt>
      <trkpt lat="35.504442710" lon="-107.169520400">
        <ele>1804.900</ele>
        <time>2020-04-06T21:03:35Z</time>
      </trkpt>
      <trkpt lat="35.504435170" lon="-107.169474060">
        <ele>1803.900</ele>
        <time>2020-04-06T21:03:39Z</time>
      </trkpt>
      <trkpt lat="35.504435200" lon="-107.169429440">
        <ele>1803.100</ele>
        <time>2020-04-06T21:03:43Z</time>
      </trkpt>
      <trkpt lat="35.504424060" lon="-107.169381630">
        <ele>1802.600</ele>
        <time>2020-04-06T21:03:53Z</time>
      </trkpt>
      <trkpt lat="35.504402500" lon="-107.169343420">
        <ele>1802.300</ele>
        <time>2020-04-06T21:03:57Z</time>
      </trkpt>
      <trkpt lat="35.504385290" lon="-107.169294940">
        <ele>1801.100</ele>
        <time>2020-04-06T21:04:01Z</time>
      </trkpt>
      <trkpt lat="35.504387340" lon="-107.169246280">
        <ele>1800.900</ele>
        <time>2020-04-06T21:04:05Z</time>
      </trkpt>
      <trkpt lat="35.504380760" lon="-107.169201080">
        <ele>1801.300</ele>
        <time>2020-04-06T21:04:09Z</time>
      </trkpt>
      <trkpt lat="35.504366480" lon="-107.169152870">
        <ele>1800.600</ele>
        <time>2020-04-06T21:04:14Z</time>
      </trkpt>
      <trkpt lat="35.504371860" lon="-107.169105650">
        <ele>1801.000</ele>
        <time>2020-04-06T21:04:19Z</time>
      </trkpt>
      <trkpt lat="35.504367080" lon="-107.169056710">
        <ele>1802.000</ele>
        <time>2020-04-06T21:04:24Z</time>
      </trkpt>
      <trkpt lat="35.504370440" lon="-107.169010410">
        <ele>1801.700</ele>
        <time>2020-04-06T21:04:29Z</time>
      </trkpt>
      <trkpt lat="35.504396490" lon="-107.168968620">
        <ele>1802.400</ele>
        <time>2020-04-06T21:04:35Z</time>
      </trkpt>
      <trkpt lat="35.504421200" lon="-107.168931150">
        <ele>1802.400</ele>
        <time>2020-04-06T21:04:40Z</time>
      </trkpt>
      <trkpt lat="35.504421960" lon="-107.168886670">
        <ele>1802.200</ele>
        <time>2020-04-06T21:04:45Z</time>
      </trkpt>
      <trkpt lat="35.504426100" lon="-107.168836840">
        <ele>1802.000</ele>
        <time>2020-04-06T21:04:50Z</time>
      </trkpt>
      <trkpt lat="35.504427550" lon="-107.168790160">
        <ele>1801.600</ele>
        <time>2020-04-06T21:04:54Z</time>
      </trkpt>
      <trkpt lat="35.504421150" lon="-107.168738160">
        <ele>1802.600</ele>
        <time>2020-04-06T21:05:10Z</time>
      </trkpt>
      <trkpt lat="35.504414640" lon="-107.168694730">
        <ele>1802.800</ele>
        <time>2020-04-06T21:05:14Z</time>
      </trkpt>
      <trkpt lat="35.504413150" lon="-107.168641680">
        <ele>1803.000</ele>
        <time>2020-04-06T21:05:19Z</time>
      </trkpt>
      <trkpt lat="35.504418270" lon="-107.168596550">
        <ele>1804.500</ele>
        <time>2020-04-06T21:05:23Z</time>
      </trkpt>
      <trkpt lat="35.504422330" lon="-107.168549670">
        <ele>1804.700</ele>
        <time>2020-04-06T21:05:27Z</time>
      </trkpt>
      <trkpt lat="35.504419360" lon="-107.168493510">
        <ele>1804.000</ele>
        <time>2020-04-06T21:05:32Z</time>
      </trkpt>
      <trkpt lat="35.504414530" lon="-107.168448070">
        <ele>1803.700</ele>
        <time>2020-04-06T21:05:36Z</time>
      </trkpt>
      <trkpt lat="35.504410610" lon="-107.168402620">
        <ele>1804.400</ele>
        <time>2020-04-06T21:05:41Z</time>
      </trkpt>
      <trkpt lat="35.504414440" lon="-107.168350440">
        <ele>1803.800</ele>
        <time>2020-04-06T21:05:46Z</time>
      </trkpt>
      <trkpt lat="35.504399840" lon="-107.168303920">
        <ele>1804.300</ele>
        <time>2020-04-06T21:05:50Z</time>
      </trkpt>
      <trkpt lat="35.504391120" lon="-107.168252140">
        <ele>1805.000</ele>
        <time>2020-04-06T21:05:55Z</time>
      </trkpt>
      <trkpt lat="35.504390540" lon="-107.168207270">
        <ele>1805.000</ele>
        <time>2020-04-06T21:05:59Z</time>
      </trkpt>
      <trkpt lat="35.504388980" lon="-107.168161200">
        <ele>1804.900</ele>
        <time>2020-04-06T21:06:03Z</time>
      </trkpt>
      <trkpt lat="35.504386310" lon="-107.168114780">
        <ele>1805.000</ele>
        <time>2020-04-06T21:06:07Z</time>
      </trkpt>
      <trkpt lat="35.504376930" lon="-107.168070800">
        <ele>1804.500</ele>
        <time>2020-04-06T21:06:11Z</time>
      </trkpt>
      <trkpt lat="35.504355450" lon="-107.168029920">
        <ele>1804.300</ele>
        <time>2020-04-06T21:06:15Z</time>
      </trkpt>
      <trkpt lat="35.504342720" lon="-107.167985580">
        <ele>1803.000</ele>
        <time>2020-04-06T21:06:19Z</time>
      </trkpt>
      <trkpt lat="35.504331770" lon="-107.167940650">
        <ele>1803.000</ele>
        <time>2020-04-06T21:06:23Z</time>
      </trkpt>
      <trkpt lat="35.504323470" lon="-107.167895890">
        <ele>1802.300</ele>
        <time>2020-04-06T21:06:27Z</time>
      </trkpt>
      <trkpt lat="35.504320270" lon="-107.167844800">
        <ele>1801.600</ele>
        <time>2020-04-06T21:06:31Z</time>
      </trkpt>
      <trkpt lat="35.504315350" lon="-107.167795320">
        <ele>1802.500</ele>
        <time>2020-04-06T21:06:35Z</time>
      </trkpt>
      <trkpt lat="35.504307580" lon="-107.167750580">
        <ele>1802.400</ele>
        <time>2020-04-06T21:06:39Z</time>
      </trkpt>
      <trkpt lat="35.504317860" lon="-107.167696080">
        <ele>1802.800</ele>
        <time>2020-04-06T21:06:44Z</time>
      </trkpt>
      <trkpt lat="35.504313990" lon="-107.167646460">
        <ele>1803.300</ele>
        <time>2020-04-06T21:06:48Z</time>
      </trkpt>
      <trkpt lat="35.504328150" lon="-107.167595260">
        <ele>1803.500</ele>
        <time>2020-04-06T21:06:53Z</time>
      </trkpt>
      <trkpt lat="35.504337770" lon="-107.167546500">
        <ele>1802.800</ele>
        <time>2020-04-06T21:06:58Z</time>
      </trkpt>
      <trkpt lat="35.504335110" lon="-107.167494910">
        <ele>1803.100</ele>
        <time>2020-04-06T21:07:03Z</time>
      </trkpt>
      <trkpt lat="35.504331290" lon="-107.167445010">
        <ele>1802.800</ele>
        <time>2020-04-06T21:07:08Z</time>
      </trkpt>
      <trkpt lat="35.504331750" lon="-107.167390130">
        <ele>1802.500</ele>
        <time>2020-04-06T21:07:14Z</time>
      </trkpt>
      <trkpt lat="35.504329070" lon="-107.167339970">
        <ele>1803.100</ele>
        <time>2020-04-06T21:07:28Z</time>
      </trkpt>
      <trkpt lat="35.504322210" lon="-107.167295220">
        <ele>1803.300</ele>
        <time>2020-04-06T21:07:32Z</time>
      </trkpt>
      <trkpt lat="35.504314820" lon="-107.167249010">
        <ele>1803.200</ele>
        <time>2020-04-06T21:07:37Z</time>
      </trkpt>
      <trkpt lat="35.504307050" lon="-107.167204620">
        <ele>1801.900</ele>
        <time>2020-04-06T21:07:46Z</time>
      </trkpt>
      <trkpt lat="35.504312480" lon="-107.167158860">
        <ele>1802.200</ele>
        <time>2020-04-06T21:07:51Z</time>
      </trkpt>
      <trkpt lat="35.504323870" lon="-107.167107500">
        <ele>1801.500</ele>
        <time>2020-04-06T21:07:57Z</time>
      </trkpt>
      <trkpt lat="35.504323370" lon="-107.167053860">
        <ele>1801.500</ele>
        <time>2020-04-06T21:08:02Z</time>
      </trkpt>
      <trkpt lat="35.504336820" lon="-107.167006580">
        <ele>1801.300</ele>
        <time>2020-04-06T21:08:07Z</time>
      </trkpt>
      <trkpt lat="35.504345370" lon="-107.166962840">
        <ele>1801.800</ele>
        <time>2020-04-06T21:08:12Z</time>
      </trkpt>
      <trkpt lat="35.504346320" lon="-107.166908030">
        <ele>1800.400</ele>
        <time>2020-04-06T21:08:17Z</time>
      </trkpt>
      <trkpt lat="35.504357750" lon="-107.166855380">
        <ele>1800.800</ele>
        <time>2020-04-06T21:08:22Z</time>
      </trkpt>
      <trkpt lat="35.504349160" lon="-107.166803040">
        <ele>1800.800</ele>
        <time>2020-04-06T21:08:27Z</time>
      </trkpt>
      <trkpt lat="35.504329360" lon="-107.166759440">
        <ele>1800.200</ele>
        <time>2020-04-06T21:08:31Z</time>
      </trkpt>
      <trkpt lat="35.504305340" lon="-107.166724290">
        <ele>1800.700</ele>
        <time>2020-04-06T21:08:35Z</time>
      </trkpt>
      <trkpt lat="35.504290660" lon="-107.166671950">
        <ele>1801.900</ele>
        <time>2020-04-06T21:08:41Z</time>
      </trkpt>
      <trkpt lat="35.504293500" lon="-107.166622730">
        <ele>1802.100</ele>
        <time>2020-04-06T21:08:46Z</time>
      </trkpt>
      <trkpt lat="35.504279950" lon="-107.166570570">
        <ele>1802.900</ele>
        <time>2020-04-06T21:08:51Z</time>
      </trkpt>
      <trkpt lat="35.504268000" lon="-107.166528230">
        <ele>1803.400</ele>
        <time>2020-04-06T21:08:55Z</time>
      </trkpt>
      <trkpt lat="35.504254670" lon="-107.166484790">
        <ele>1803.700</ele>
        <time>2020-04-06T21:08:59Z</time>
      </trkpt>
      <trkpt lat="35.504245670" lon="-107.166431230">
        <ele>1804.200</ele>
        <time>2020-04-06T21:09:04Z</time>
      </trkpt>
      <trkpt lat="35.504236430" lon="-107.166387030">
        <ele>1803.700</ele>
        <time>2020-04-06T21:09:08Z</time>
      </trkpt>
      <trkpt lat="35.504222070" lon="-107.166339150">
        <ele>1802.900</ele>
        <time>2020-04-06T21:09:12Z</time>
      </trkpt>
      <trkpt lat="35.504202740" lon="-107.166296390">
        <ele>1803.800</ele>
        <time>2020-04-06T21:09:16Z</time>
      </trkpt>
      <trkpt lat="35.504176470" lon="-107.166253200">
        <ele>1803.300</ele>
        <time>2020-04-06T21:09:21Z</time>
      </trkpt>
      <trkpt lat="35.504150430" lon="-107.166214770">
        <ele>1803.500</ele>
        <time>2020-04-06T21:09:25Z</time>
      </trkpt>
      <trkpt lat="35.504129270" lon="-107.166176810">
        <ele>1804.100</ele>
        <time>2020-04-06T21:09:30Z</time>
      </trkpt>
      <trkpt lat="35.504108220" lon="-107.166139730">
        <ele>1804.500</ele>
        <time>2020-04-06T21:09:57Z</time>
      </trkpt>
      <trkpt lat="35.504097280" lon="-107.166090640">
        <ele>1804.500</ele>
        <time>2020-04-06T21:10:02Z</time>
      </trkpt>
      <trkpt lat="35.504082370" lon="-107.166047110">
        <ele>1803.700</ele>
        <time>2020-04-06T21:10:07Z</time>
      </trkpt>
      <trkpt lat="35.504058720" lon="-107.166003000">
        <ele>1802.900</ele>
        <time>2020-04-06T21:10:12Z</time>
      </trkpt>
      <trkpt lat="35.504035770" lon="-107.165967190">
        <ele>1802.600</ele>
        <time>2020-04-06T21:10:16Z</time>
      </trkpt>
      <trkpt lat="35.504004920" lon="-107.165933960">
        <ele>1802.500</ele>
        <time>2020-04-06T21:10:21Z</time>
      </trkpt>
      <trkpt lat="35.503962910" lon="-107.165916870">
        <ele>1802.600</ele>
        <time>2020-04-06T21:10:26Z</time>
      </trkpt>
      <trkpt lat="35.503935990" lon="-107.165885500">
        <ele>1802.600</ele>
        <time>2020-04-06T21:10:30Z</time>
      </trkpt>
      <trkpt lat="35.503905970" lon="-107.165853070">
        <ele>1803.100</ele>
        <time>2020-04-06T21:10:35Z</time>
      </trkpt>
      <trkpt lat="35.503875670" lon="-107.165813730">
        <ele>1802.200</ele>
        <time>2020-04-06T21:10:40Z</time>
      </trkpt>
      <trkpt lat="35.503844960" lon="-107.165782480">
        <ele>1802.200</ele>
        <time>2020-04-06T21:10:44Z</time>
      </trkpt>
      <trkpt lat="35.503810360" lon="-107.165758840">
        <ele>1802.500</ele>
        <time>2020-04-06T21:10:49Z</time>
      </trkpt>
      <trkpt lat="35.503782630" lon="-107.165726370">
        <ele>1802.500</ele>
        <time>2020-04-06T21:10:54Z</time>
      </trkpt>
      <trkpt lat="35.503748520" lon="-107.165695310">
        <ele>1800.100</ele>
        <time>2020-04-06T21:11:23Z</time>
      </trkpt>
      <trkpt lat="35.503711740" lon="-107.165664620">
        <ele>1800.300</ele>
        <time>2020-04-06T21:11:28Z</time>
      </trkpt>
      <trkpt lat="35.503683830" lon="-107.165633910">
        <ele>1800.600</ele>
        <time>2020-04-06T21:11:33Z</time>
      </trkpt>
      <trkpt lat="35.503660610" lon="-107.165597260">
        <ele>1800.800</ele>
        <time>2020-04-06T21:11:37Z</time>
      </trkpt>
      <trkpt lat="35.503637420" lon="-107.165563150">
        <ele>1800.700</ele>
        <time>2020-04-06T21:11:41Z</time>
      </trkpt>
      <trkpt lat="35.503602170" lon="-107.165536240">
        <ele>1799.100</ele>
        <time>2020-04-06T21:11:54Z</time>
      </trkpt>
      <trkpt lat="35.503569800" lon="-107.165501770">
        <ele>1799.000</ele>
        <time>2020-04-06T21:11:59Z</time>
      </trkpt>
      <trkpt lat="35.503536220" lon="-107.165480090">
        <ele>1799.100</ele>
        <time>2020-04-06T21:12:03Z</time>
      </trkpt>
      <trkpt lat="35.503498570" lon="-107.165451710">
        <ele>1799.200</ele>
        <time>2020-04-06T21:12:08Z</time>
      </trkpt>
      <trkpt lat="35.503477870" lon="-107.165402130">
        <ele>1798.600</ele>
        <time>2020-04-06T21:12:13Z</time>
      </trkpt>
      <trkpt lat="35.503448580" lon="-107.165375770">
        <ele>1798.400</ele>
        <time>2020-04-06T21:12:18Z</time>
      </trkpt>
      <trkpt lat="35.503429680" lon="-107.165326870">
        <ele>1799.100</ele>
        <time>2020-04-06T21:12:24Z</time>
      </trkpt>
      <trkpt lat="35.503414910" lon="-107.165281890">
        <ele>1798.700</ele>
        <time>2020-04-06T21:12:29Z</time>
      </trkpt>
      <trkpt lat="35.503418540" lon="-107.165234570">
        <ele>1798.300</ele>
        <time>2020-04-06T21:12:35Z</time>
      </trkpt>
      <trkpt lat="35.503448760" lon="-107.165210190">
        <ele>1796.100</ele>
        <time>2020-04-06T21:12:44Z</time>
      </trkpt>
      <trkpt lat="35.503468230" lon="-107.165166140">
        <ele>1797.400</ele>
        <time>2020-04-06T21:12:54Z</time>
      </trkpt>
      <trkpt lat="35.503485070" lon="-107.165119480">
        <ele>1797.000</ele>
        <time>2020-04-06T21:12:59Z</time>
      </trkpt>
      <trkpt lat="35.503496020" lon="-107.165074440">
        <ele>1797.500</ele>
        <time>2020-04-06T21:13:04Z</time>
      </trkpt>
      <trkpt lat="35.503497600" lon="-107.165023740">
        <ele>1797.500</ele>
        <time>2020-04-06T21:13:11Z</time>
      </trkpt>
      <trkpt lat="35.503490080" lon="-107.164976490">
        <ele>1798.800</ele>
        <time>2020-04-06T21:13:16Z</time>
      </trkpt>
      <trkpt lat="35.503494670" lon="-107.164929250">
        <ele>1799.000</ele>
        <time>2020-04-06T21:13:21Z</time>
      </trkpt>
      <trkpt lat="35.503493420" lon="-107.164882540">
        <ele>1798.000</ele>
        <time>2020-04-06T21:13:26Z</time>
      </trkpt>
      <trkpt lat="35.503486500" lon="-107.164835890">
        <ele>1798.100</ele>
        <time>2020-04-06T21:13:30Z</time>
      </trkpt>
      <trkpt lat="35.503488880" lon="-107.164783440">
        <ele>1798.300</ele>
        <time>2020-04-06T21:13:35Z</time>
      </trkpt>
      <trkpt lat="35.503476630" lon="-107.164731760">
        <ele>1797.600</ele>
        <time>2020-04-06T21:13:40Z</time>
      </trkpt>
      <trkpt lat="35.503478140" lon="-107.164687070">
        <ele>1797.900</ele>
        <time>2020-04-06T21:13:44Z</time>
      </trkpt>
      <trkpt lat="35.503477940" lon="-107.164639360">
        <ele>1797.500</ele>
        <time>2020-04-06T21:13:48Z</time>
      </trkpt>
      <trkpt lat="35.503470190" lon="-107.164586460">
        <ele>1797.200</ele>
        <time>2020-04-06T21:13:53Z</time>
      </trkpt>
      <trkpt lat="35.503465160" lon="-107.164539500">
        <ele>1797.000</ele>
        <time>2020-04-06T21:13:57Z</time>
      </trkpt>
      <trkpt lat="35.503463120" lon="-107.164487500">
        <ele>1797.500</ele>
        <time>2020-04-06T21:14:02Z</time>
      </trkpt>
      <trkpt lat="35.503436800" lon="-107.164444580">
        <ele>1797.800</ele>
        <time>2020-04-06T21:14:06Z</time>
      </trkpt>
      <trkpt lat="35.503420450" lon="-107.164403950">
        <ele>1800.000</ele>
        <time>2020-04-06T21:14:10Z</time>
      </trkpt>
      <trkpt lat="35.503411780" lon="-107.164360510">
        <ele>1799.600</ele>
        <time>2020-04-06T21:14:14Z</time>
      </trkpt>
      <trkpt lat="35.503385410" lon="-107.164316030">
        <ele>1798.600</ele>
        <time>2020-04-06T21:14:19Z</time>
      </trkpt>
      <trkpt lat="35.503357000" lon="-107.164281590">
        <ele>1798.000</ele>
        <time>2020-04-06T21:14:23Z</time>
      </trkpt>
      <trkpt lat="35.503328160" lon="-107.164241090">
        <ele>1797.700</ele>
        <time>2020-04-06T21:14:28Z</time>
      </trkpt>
      <trkpt lat="35.503308510" lon="-107.164194540">
        <ele>1798.500</ele>
        <time>2020-04-06T21:14:33Z</time>
      </trkpt>
      <trkpt lat="35.503306610" lon="-107.164148200">
        <ele>1798.500</ele>
        <time>2020-04-06T21:14:37Z</time>
      </trkpt>
      <trkpt lat="35.503286130" lon="-107.164102620">
        <ele>1798.800</ele>
        <time>2020-04-06T21:14:42Z</time>
      </trkpt>
      <trkpt lat="35.503273770" lon="-107.164057770">
        <ele>1798.900</ele>
        <time>2020-04-06T21:14:47Z</time>
      </trkpt>
      <trkpt lat="35.503252480" lon="-107.164011860">
        <ele>1798.900</ele>
        <time>2020-04-06T21:14:52Z</time>
      </trkpt>
      <trkpt lat="35.503231980" lon="-107.163963110">
        <ele>1799.200</ele>
        <time>2020-04-06T21:14:57Z</time>
      </trkpt>
      <trkpt lat="35.503212230" lon="-107.163920500">
        <ele>1799.000</ele>
        <time>2020-04-06T21:15:01Z</time>
      </trkpt>
      <trkpt lat="35.503190760" lon="-107.163878870">
        <ele>1798.800</ele>
        <time>2020-04-06T21:15:05Z</time>
      </trkpt>
      <trkpt lat="35.503177200" lon="-107.163834600">
        <ele>1798.600</ele>
        <time>2020-04-06T21:15:09Z</time>
      </trkpt>
      <trkpt lat="35.503162930" lon="-107.163787650">
        <ele>1798.300</ele>
        <time>2020-04-06T21:16:33Z</time>
      </trkpt>
      <trkpt lat="35.503143290" lon="-107.163740500">
        <ele>1798.500</ele>
        <time>2020-04-06T21:16:38Z</time>
      </trkpt>
      <trkpt lat="35.503135480" lon="-107.163696900">
        <ele>1799.200</ele>
        <time>2020-04-06T21:16:42Z</time>
      </trkpt>
      <trkpt lat="35.503134540" lon="-107.163649840">
        <ele>1799.600</ele>
        <time>2020-04-06T21:16:46Z</time>
      </trkpt>
      <trkpt lat="35.503127180" lon="-107.163604010">
        <ele>1799.800</ele>
        <time>2020-04-06T21:16:50Z</time>
      </trkpt>
      <trkpt lat="35.503108930" lon="-107.163561130">
        <ele>1799.600</ele>
        <time>2020-04-06T21:16:54Z</time>
      </trkpt>
      <trkpt lat="35.503096020" lon="-107.163516330">
        <ele>1799.800</ele>
        <time>2020-04-06T21:16:58Z</time>
      </trkpt>
      <trkpt lat="35.503083810" lon="-107.163470300">
        <ele>1799.600</ele>
        <time>2020-04-06T21:17:02Z</time>
      </trkpt>
      <trkpt lat="35.503067070" lon="-107.163419090">
        <ele>1798.800</ele>
        <time>2020-04-06T21:17:06Z</time>
      </trkpt>
      <trkpt lat="35.503049050" lon="-107.163366830">
        <ele>1798.100</ele>
        <time>2020-04-06T21:17:10Z</time>
      </trkpt>
      <trkpt lat="35.503038450" lon="-107.163316160">
        <ele>1798.100</ele>
        <time>2020-04-06T21:17:14Z</time>
      </trkpt>
      <trkpt lat="35.503033720" lon="-107.163270030">
        <ele>1797.500</ele>
        <time>2020-04-06T21:17:18Z</time>
      </trkpt>
      <trkpt lat="35.503029950" lon="-107.163223440">
        <ele>1797.400</ele>
        <time>2020-04-06T21:17:22Z</time>
      </trkpt>
      <trkpt lat="35.503030490" lon="-107.163173120">
        <ele>1797.000</ele>
        <time>2020-04-06T21:17:26Z</time>
      </trkpt>
      <trkpt lat="35.503034260" lon="-107.163123620">
        <ele>1796.900</ele>
        <time>2020-04-06T21:17:30Z</time>
      </trkpt>
      <trkpt lat="35.503038840" lon="-107.163075100">
        <ele>1796.600</ele>
        <time>2020-04-06T21:17:34Z</time>
      </trkpt>
      <trkpt lat="35.503053080" lon="-107.163032800">
        <ele>1796.700</ele>
        <time>2020-04-06T21:17:38Z</time>
      </trkpt>
      <trkpt lat="35.503061890" lon="-107.162981120">
        <ele>1796.600</ele>
        <time>2020-04-06T21:17:43Z</time>
      </trkpt>
      <trkpt lat="35.503082060" lon="-107.162940840">
        <ele>1796.600</ele>
        <time>2020-04-06T21:17:47Z</time>
      </trkpt>
      <trkpt lat="35.503077490" lon="-107.162890910">
        <ele>1797.500</ele>
        <time>2020-04-06T21:18:14Z</time>
      </trkpt>
      <trkpt lat="35.503083780" lon="-107.162845050">
        <ele>1797.200</ele>
        <time>2020-04-06T21:18:18Z</time>
      </trkpt>
      <trkpt lat="35.503087760" lon="-107.162800880">
        <ele>1797.600</ele>
        <time>2020-04-06T21:18:22Z</time>
      </trkpt>
      <trkpt lat="35.503091620" lon="-107.162748570">
        <ele>1796.500</ele>
        <time>2020-04-06T21:18:26Z</time>
      </trkpt>
      <trkpt lat="35.503092550" lon="-107.162700390">
        <ele>1795.200</ele>
        <time>2020-04-06T21:18:30Z</time>
      </trkpt>
      <trkpt lat="35.503091070" lon="-107.162654380">
        <ele>1794.800</ele>
        <time>2020-04-06T21:18:34Z</time>
      </trkpt>
      <trkpt lat="35.503075800" lon="-107.162607050">
        <ele>1795.200</ele>
        <time>2020-04-06T21:18:39Z</time>
      </trkpt>
      <trkpt lat="35.503083090" lon="-107.162557640">
        <ele>1795.600</ele>
        <time>2020-04-06T21:18:44Z</time>
      </trkpt>
      <trkpt lat="35.503093900" lon="-107.162512780">
        <ele>1794.600</ele>
        <time>2020-04-06T21:18:50Z</time>
      </trkpt>
      <trkpt lat="35.503118600" lon="-107.162471760">
        <ele>1795.500</ele>
        <time>2020-04-06T21:18:56Z</time>
      </trkpt>
      <trkpt lat="35.503131490" lon="-107.162424010">
        <ele>1794.800</ele>
        <time>2020-04-06T21:19:01Z</time>
      </trkpt>
      <trkpt lat="35.503106630" lon="-107.162459450">
        <ele>1791.800</ele>
        <time>2020-04-06T21:19:14Z</time>
      </trkpt>
      <trkpt lat="35.503073410" lon="-107.162436030">
        <ele>1793.200</ele>
        <time>2020-04-06T21:19:19Z</time>
      </trkpt>
      <trkpt lat="35.503047230" lon="-107.162395010">
        <ele>1793.800</ele>
        <time>2020-04-06T21:19:27Z</time>
      </trkpt>
      <trkpt lat="35.503051460" lon="-107.162345910">
        <ele>1794.900</ele>
        <time>2020-04-06T21:19:33Z</time>
      </trkpt>
      <trkpt lat="35.503050440" lon="-107.162299580">
        <ele>1795.200</ele>
        <time>2020-04-06T21:19:39Z</time>
      </trkpt>
      <trkpt lat="35.503051510" lon="-107.162247990">
        <ele>1794.400</ele>
        <time>2020-04-06T21:19:45Z</time>
      </trkpt>
      <trkpt lat="35.503051310" lon="-107.162202930">
        <ele>1794.800</ele>
        <time>2020-04-06T21:19:49Z</time>
      </trkpt>
      <trkpt lat="35.503055400" lon="-107.162157960">
        <ele>1794.700</ele>
        <time>2020-04-06T21:19:53Z</time>
      </trkpt>
      <trkpt lat="35.503065870" lon="-107.162104050">
        <ele>1795.500</ele>
        <time>2020-04-06T21:19:59Z</time>
      </trkpt>
      <trkpt lat="35.503081050" lon="-107.162052910">
        <ele>1795.900</ele>
        <time>2020-04-06T21:20:04Z</time>
      </trkpt>
      <trkpt lat="35.503064880" lon="-107.162001720">
        <ele>1795.900</ele>
        <time>2020-04-06T21:20:09Z</time>
      </trkpt>
      <trkpt lat="35.503067470" lon="-107.161954580">
        <ele>1796.100</ele>
        <time>2020-04-06T21:20:13Z</time>
      </trkpt>
      <trkpt lat="35.503075440" lon="-107.161905490">
        <ele>1796.000</ele>
        <time>2020-04-06T21:20:18Z</time>
      </trkpt>
      <trkpt lat="35.503072790" lon="-107.161855850">
        <ele>1795.400</ele>
        <time>2020-04-06T21:20:23Z</time>
      </trkpt>
      <trkpt lat="35.503082190" lon="-107.161811090">
        <ele>1795.100</ele>
        <time>2020-04-06T21:20:28Z</time>
      </trkpt>
      <trkpt lat="35.503095310" lon="-107.161761970">
        <ele>1795.300</ele>
        <time>2020-04-06T21:20:32Z</time>
      </trkpt>
      <trkpt lat="35.503096140" lon="-107.161709580">
        <ele>1795.700</ele>
        <time>2020-04-06T21:20:54Z</time>
      </trkpt>
      <trkpt lat="35.503101410" lon="-107.161662320">
        <ele>1796.000</ele>
        <time>2020-04-06T21:20:58Z</time>
      </trkpt>
      <trkpt lat="35.503111930" lon="-107.161611340">
        <ele>1795.000</ele>
        <time>2020-04-06T21:21:02Z</time>
      </trkpt>
      <trkpt lat="35.503112040" lon="-107.161565650">
        <ele>1795.500</ele>
        <time>2020-04-06T21:21:06Z</time>
      </trkpt>
      <trkpt lat="35.503114880" lon="-107.161516730">
        <ele>1795.600</ele>
        <time>2020-04-06T21:21:10Z</time>
      </trkpt>
      <trkpt lat="35.503098740" lon="-107.161469390">
        <ele>1796.600</ele>
        <time>2020-04-06T21:21:16Z</time>
      </trkpt>
      <trkpt lat="35.503101730" lon="-107.161421990">
        <ele>1797.100</ele>
        <time>2020-04-06T21:21:21Z</time>
      </trkpt>
      <trkpt lat="35.503125690" lon="-107.161381600">
        <ele>1797.600</ele>
        <time>2020-04-06T21:21:27Z</time>
      </trkpt>
      <trkpt lat="35.503133170" lon="-107.161333130">
        <ele>1797.000</ele>
        <time>2020-04-06T21:21:32Z</time>
      </trkpt>
      <trkpt lat="35.503138670" lon="-107.161284690">
        <ele>1796.200</ele>
        <time>2020-04-06T21:21:36Z</time>
      </trkpt>
      <trkpt lat="35.503145970" lon="-107.161234610">
        <ele>1795.700</ele>
        <time>2020-04-06T21:21:40Z</time>
      </trkpt>
      <trkpt lat="35.503151210" lon="-107.161179900">
        <ele>1796.100</ele>
        <time>2020-04-06T21:21:45Z</time>
      </trkpt>
      <trkpt lat="35.503162150" lon="-107.161129520">
        <ele>1795.900</ele>
        <time>2020-04-06T21:21:50Z</time>
      </trkpt>
      <trkpt lat="35.503127790" lon="-107.161103090">
        <ele>1796.500</ele>
        <time>2020-04-06T21:22:47Z</time>
      </trkpt>
      <trkpt lat="35.503086560" lon="-107.161122190">
        <ele>1796.000</ele>
        <time>2020-04-06T21:22:52Z</time>
      </trkpt>
      <trkpt lat="35.503043190" lon="-107.161139270">
        <ele>1794.700</ele>
        <time>2020-04-06T21:22:56Z</time>
      </trkpt>
      <trkpt lat="35.503011210" lon="-107.161166940">
        <ele>1794.500</ele>
        <time>2020-04-06T21:23:00Z</time>
      </trkpt>
      <trkpt lat="35.502977050" lon="-107.161192070">
        <ele>1794.500</ele>
        <time>2020-04-06T21:23:06Z</time>
      </trkpt>
      <trkpt lat="35.502938810" lon="-107.161177460">
        <ele>1794.100</ele>
        <time>2020-04-06T21:23:11Z</time>
      </trkpt>
      <trkpt lat="35.502899900" lon="-107.161167140">
        <ele>1793.900</ele>
        <time>2020-04-06T21:23:15Z</time>
      </trkpt>
      <trkpt lat="35.502851870" lon="-107.161173510">
        <ele>1793.600</ele>
        <time>2020-04-06T21:23:20Z</time>
      </trkpt>
      <trkpt lat="35.502813430" lon="-107.161169730">
        <ele>1793.800</ele>
        <time>2020-04-06T21:23:25Z</time>
      </trkpt>
      <trkpt lat="35.502775480" lon="-107.161162330">
        <ele>1795.200</ele>
        <time>2020-04-06T21:23:30Z</time>
      </trkpt>
      <trkpt lat="35.502736010" lon="-107.161179290">
        <ele>1795.800</ele>
        <time>2020-04-06T21:23:35Z</time>
      </trkpt>
      <trkpt lat="35.502698760" lon="-107.161198720">
        <ele>1796.000</ele>
        <time>2020-04-06T21:23:40Z</time>
      </trkpt>
      <trkpt lat="35.502662510" lon="-107.161200050">
        <ele>1796.300</ele>
        <time>2020-04-06T21:23:45Z</time>
      </trkpt>
      <trkpt lat="35.502626000" lon="-107.161197370">
        <ele>1796.100</ele>
        <time>2020-04-06T21:23:50Z</time>
      </trkpt>
      <trkpt lat="35.502605290" lon="-107.161243760">
        <ele>1796.600</ele>
        <time>2020-04-06T21:23:56Z</time>
      </trkpt>
      <trkpt lat="35.502591230" lon="-107.161293130">
        <ele>1795.400</ele>
        <time>2020-04-06T21:24:01Z</time>
      </trkpt>
      <trkpt lat="35.502588650" lon="-107.161338060">
        <ele>1795.700</ele>
        <time>2020-04-06T21:24:18Z</time>
      </trkpt>
      <trkpt lat="35.502585650" lon="-107.161387450">
        <ele>1796.400</ele>
        <time>2020-04-06T21:24:23Z</time>
      </trkpt>
      <trkpt lat="35.502581270" lon="-107.161432120">
        <ele>1797.500</ele>
        <time>2020-04-06T21:24:41Z</time>
      </trkpt>
      <trkpt lat="35.502576570" lon="-107.161386780">
        <ele>1798.300</ele>
        <time>2020-04-06T21:24:57Z</time>
      </trkpt>
      <trkpt lat="35.502539650" lon="-107.161401970">
        <ele>1800.200</ele>
        <time>2020-04-06T21:25:04Z</time>
      </trkpt>
      <trkpt lat="35.502515390" lon="-107.161434670">
        <ele>1802.500</ele>
        <time>2020-04-06T21:25:14Z</time>
      </trkpt>
      <trkpt lat="35.502503720" lon="-107.161483620">
        <ele>1801.200</ele>
        <time>2020-04-06T21:25:58Z</time>
      </trkpt>
      <trkpt lat="35.502509520" lon="-107.161536390">
        <ele>1801.000</ele>
        <time>2020-04-06T21:26:02Z</time>
      </trkpt>
      <trkpt lat="35.502519830" lon="-107.161578790">
        <ele>1800.700</ele>
        <time>2020-04-06T21:26:06Z</time>
      </trkpt>
      <trkpt lat="35.502492630" lon="-107.161621310">
        <ele>1801.100</ele>
        <time>2020-04-06T21:26:11Z</time>
      </trkpt>
      <trkpt lat="35.502457030" lon="-107.161642760">
        <ele>1802.100</ele>
        <time>2020-04-06T21:26:15Z</time>
      </trkpt>
      <trkpt lat="35.502420960" lon="-107.161666780">
        <ele>1805.900</ele>
        <time>2020-04-06T21:26:22Z</time>
      </trkpt>
      <trkpt lat="35.502382460" lon="-107.161681170">
        <ele>1804.200</ele>
        <time>2020-04-06T21:26:30Z</time>
      </trkpt>
      <trkpt lat="35.502342800" lon="-107.161697090">
        <ele>1805.300</ele>
        <time>2020-04-06T21:26:35Z</time>
      </trkpt>
      <trkpt lat="35.502306460" lon="-107.161713350">
        <ele>1805.300</ele>
        <time>2020-04-06T21:26:39Z</time>
      </trkpt>
      <trkpt lat="35.502269970" lon="-107.161736230">
        <ele>1806.700</ele>
        <time>2020-04-06T21:26:44Z</time>
      </trkpt>
      <trkpt lat="35.502233310" lon="-107.161765430">
        <ele>1807.500</ele>
        <time>2020-04-06T21:26:49Z</time>
      </trkpt>
      <trkpt lat="35.502204170" lon="-107.161794240">
        <ele>1806.200</ele>
        <time>2020-04-06T21:26:54Z</time>
      </trkpt>
      <trkpt lat="35.502166520" lon="-107.161805370">
        <ele>1805.900</ele>
        <time>2020-04-06T21:27:00Z</time>
      </trkpt>
      <trkpt lat="35.502125760" lon="-107.161784510">
        <ele>1805.900</ele>
        <time>2020-04-06T21:27:13Z</time>
      </trkpt>
      <trkpt lat="35.502081800" lon="-107.161769500">
        <ele>1805.100</ele>
        <time>2020-04-06T21:27:18Z</time>
      </trkpt>
      <trkpt lat="35.502039290" lon="-107.161769650">
        <ele>1805.800</ele>
        <time>2020-04-06T21:27:23Z</time>
      </trkpt>
      <trkpt lat="35.502004270" lon="-107.161784780">
        <ele>1805.700</ele>
        <time>2020-04-06T21:27:27Z</time>
      </trkpt>
      <trkpt lat="35.501968800" lon="-107.161774270">
        <ele>1806.300</ele>
        <time>2020-04-06T21:27:33Z</time>
      </trkpt>
      <trkpt lat="35.501947460" lon="-107.161735700">
        <ele>1806.700</ele>
        <time>2020-04-06T21:27:40Z</time>
      </trkpt>
      <trkpt lat="35.501912740" lon="-107.161750480">
        <ele>1807.000</ele>
        <time>2020-04-06T21:27:51Z</time>
      </trkpt>
      <trkpt lat="35.501892230" lon="-107.161787860">
        <ele>1806.100</ele>
        <time>2020-04-06T21:27:56Z</time>
      </trkpt>
      <trkpt lat="35.501853530" lon="-107.161793300">
        <ele>1813.200</ele>
        <time>2020-04-06T21:28:02Z</time>
      </trkpt>
      <trkpt lat="35.501814910" lon="-107.161800400">
        <ele>1809.400</ele>
        <time>2020-04-06T21:28:08Z</time>
      </trkpt>
      <trkpt lat="35.501776110" lon="-107.161785440">
        <ele>1809.000</ele>
        <time>2020-04-06T21:28:14Z</time>
      </trkpt>
      <trkpt lat="35.501741610" lon="-107.161768260">
        <ele>1809.800</ele>
        <time>2020-04-06T21:28:18Z</time>
      </trkpt>
      <trkpt lat="35.501703120" lon="-107.161763430">
        <ele>1810.600</ele>
        <time>2020-04-06T21:28:23Z</time>
      </trkpt>
      <trkpt lat="35.501658840" lon="-107.161772990">
        <ele>1809.800</ele>
        <time>2020-04-06T21:28:28Z</time>
      </trkpt>
      <trkpt lat="35.501621770" lon="-107.161775350">
        <ele>1809.600</ele>
        <time>2020-04-06T21:29:28Z</time>
      </trkpt>
      <trkpt lat="35.501582680" lon="-107.161773700">
        <ele>1809.600</ele>
        <time>2020-04-06T21:29:33Z</time>
      </trkpt>
      <trkpt lat="35.501545320" lon="-107.161787360">
        <ele>1810.200</ele>
        <time>2020-04-06T21:29:38Z</time>
      </trkpt>
      <trkpt lat="35.501513290" lon="-107.161818280">
        <ele>1811.200</ele>
        <time>2020-04-06T21:29:43Z</time>
      </trkpt>
      <trkpt lat="35.501472670" lon="-107.161828660">
        <ele>1811.200</ele>
        <time>2020-04-06T21:29:48Z</time>
      </trkpt>
      <trkpt lat="35.501435910" lon="-107.161848480">
        <ele>1810.700</ele>
        <time>2020-04-06T21:29:54Z</time>
      </trkpt>
      <trkpt lat="35.501401100" lon="-107.161862110">
        <ele>1810.900</ele>
        <time>2020-04-06T21:29:59Z</time>
      </trkpt>
      <trkpt lat="35.501364670" lon="-107.161883740">
        <ele>1811.100</ele>
        <time>2020-04-06T21:30:04Z</time>
      </trkpt>
      <trkpt lat="35.501327820" lon="-107.161900120">
        <ele>1809.000</ele>
        <time>2020-04-06T21:30:09Z</time>
      </trkpt>
      <trkpt lat="35.501288640" lon="-107.161893950">
        <ele>1809.200</ele>
        <time>2020-04-06T21:30:14Z</time>
      </trkpt>
      <trkpt lat="35.501252260" lon="-107.161905070">
        <ele>1808.800</ele>
        <time>2020-04-06T21:30:27Z</time>
      </trkpt>
      <trkpt lat="35.501212830" lon="-107.161896490">
        <ele>1809.400</ele>
        <time>2020-04-06T21:30:33Z</time>
      </trkpt>
      <trkpt lat="35.501176150" lon="-107.161914140">
        <ele>1810.600</ele>
        <time>2020-04-06T21:30:39Z</time>
      </trkpt>
      <trkpt lat="35.501131490" lon="-107.161908730">
        <ele>1809.300</ele>
        <time>2020-04-06T21:30:44Z</time>
      </trkpt>
      <trkpt lat="35.501093200" lon="-107.161920690">
        <ele>1810.000</ele>
        <time>2020-04-06T21:30:49Z</time>
      </trkpt>
      <trkpt lat="35.501055850" lon="-107.161909010">
        <ele>1809.700</ele>
        <time>2020-04-06T21:30:54Z</time>
      </trkpt>
      <trkpt lat="35.501021530" lon="-107.161924260">
        <ele>1809.600</ele>
        <time>2020-04-06T21:30:59Z</time>
      </trkpt>
      <trkpt lat="35.501009550" lon="-107.161967340">
        <ele>1808.800</ele>
        <time>2020-04-06T21:31:07Z</time>
      </trkpt>
      <trkpt lat="35.500973890" lon="-107.161997790">
        <ele>1807.500</ele>
        <time>2020-04-06T21:31:12Z</time>
      </trkpt>
      <trkpt lat="35.500939600" lon="-107.162018230">
        <ele>1807.400</ele>
        <time>2020-04-06T21:31:17Z</time>
      </trkpt>
      <trkpt lat="35.500908130" lon="-107.162046950">
        <ele>1806.400</ele>
        <time>2020-04-06T21:31:24Z</time>
      </trkpt>
      <trkpt lat="35.500869310" lon="-107.162035780">
        <ele>1806.400</ele>
        <time>2020-04-06T21:31:31Z</time>
      </trkpt>
      <trkpt lat="35.500834440" lon="-107.162051520">
        <ele>1804.800</ele>
        <time>2020-04-06T21:31:37Z</time>
      </trkpt>
      <trkpt lat="35.500816160" lon="-107.162099560">
        <ele>1804.200</ele>
        <time>2020-04-06T21:32:10Z</time>
      </trkpt>
      <trkpt lat="35.500802110" lon="-107.162143530">
        <ele>1802.300</ele>
        <time>2020-04-06T21:32:16Z</time>
      </trkpt>
      <trkpt lat="35.500767270" lon="-107.162169240">
        <ele>1802.000</ele>
        <time>2020-04-06T21:32:22Z</time>
      </trkpt>
      <trkpt lat="35.500742860" lon="-107.162203050">
        <ele>1801.800</ele>
        <time>2020-04-06T21:32:28Z</time>
      </trkpt>
      <trkpt lat="35.500725450" lon="-107.162245660">
        <ele>1804.600</ele>
        <time>2020-04-06T21:32:54Z</time>
      </trkpt>
      <trkpt lat="35.500761960" lon="-107.162247610">
        <ele>1802.800</ele>
        <time>2020-04-06T21:33:45Z</time>
      </trkpt>
      <trkpt lat="35.500794160" lon="-107.162221890">
        <ele>1803.400</ele>
        <time>2020-04-06T21:33:55Z</time>
      </trkpt>
      <trkpt lat="35.500832200" lon="-107.162219340">
        <ele>1802.100</ele>
        <time>2020-04-06T21:34:01Z</time>
      </trkpt>
      <trkpt lat="35.500869070" lon="-107.162204970">
        <ele>1802.800</ele>
        <time>2020-04-06T21:34:07Z</time>
      </trkpt>
      <trkpt lat="35.500833090" lon="-107.162196230">
        <ele>1806.500</ele>
        <time>2020-04-06T21:40:58Z</time>
      </trkpt>
      <trkpt lat="35.500805870" lon="-107.162167150">
        <ele>1808.700</ele>
        <time>2020-04-06T22:20:04Z</time>
      </trkpt>
      <trkpt lat="35.500772960" lon="-107.162187290">
        <ele>1808.900</ele>
        <time>2020-04-06T22:20:12Z</time>
      </trkpt>
      <trkpt lat="35.500739650" lon="-107.162208760">
        <ele>1806.000</ele>
        <time>2020-04-06T22:20:23Z</time>
      </trkpt>
      <trkpt lat="35.500708550" lon="-107.162231150">
        <ele>1805.800</ele>
        <time>2020-04-06T22:20:35Z</time>
      </trkpt>
      <trkpt lat="35.500684950" lon="-107.162197550">
        <ele>1806.000</ele>
        <time>2020-04-06T22:20:52Z</time>
      </trkpt>
      <trkpt lat="35.500719200" lon="-107.162177330">
        <ele>1802.800</ele>
        <time>2020-04-06T22:20:59Z</time>
      </trkpt>
      <trkpt lat="35.500742580" lon="-107.162138580">
        <ele>1802.400</ele>
        <time>2020-04-06T22:21:04Z</time>
      </trkpt>
      <trkpt lat="35.500757620" lon="-107.162092650">
        <ele>1802.000</ele>
        <time>2020-04-06T22:21:09Z</time>
      </trkpt>
      <trkpt lat="35.500777690" lon="-107.162055630">
        <ele>1802.300</ele>
        <time>2020-04-06T22:21:16Z</time>
      </trkpt>
      <trkpt lat="35.500797540" lon="-107.162010920">
        <ele>1801.200</ele>
        <time>2020-04-06T22:21:21Z</time>
      </trkpt>
      <trkpt lat="35.500813400" lon="-107.161966270">
        <ele>1800.300</ele>
        <time>2020-04-06T22:21:32Z</time>
      </trkpt>
      <trkpt lat="35.500809790" lon="-107.161915900">
        <ele>1798.500</ele>
        <time>2020-04-06T22:21:40Z</time>
      </trkpt>
      <trkpt lat="35.500825400" lon="-107.161871510">
        <ele>1800.200</ele>
        <time>2020-04-06T22:21:57Z</time>
      </trkpt>
      <trkpt lat="35.500850780" lon="-107.161835570">
        <ele>1798.300</ele>
        <time>2020-04-06T22:22:23Z</time>
      </trkpt>
      <trkpt lat="35.500865790" lon="-107.161788360">
        <ele>1797.600</ele>
        <time>2020-04-06T22:22:30Z</time>
      </trkpt>
      <trkpt lat="35.500903110" lon="-107.161772880">
        <ele>1798.800</ele>
        <time>2020-04-06T22:22:36Z</time>
      </trkpt>
      <trkpt lat="35.500928120" lon="-107.161739160">
        <ele>1799.600</ele>
        <time>2020-04-06T22:22:42Z</time>
      </trkpt>
      <trkpt lat="35.500955690" lon="-107.161704090">
        <ele>1796.200</ele>
        <time>2020-04-06T22:22:47Z</time>
      </trkpt>
      <trkpt lat="35.500979780" lon="-107.161665390">
        <ele>1795.300</ele>
        <time>2020-04-06T22:22:52Z</time>
      </trkpt>
      <trkpt lat="35.501014380" lon="-107.161634110">
        <ele>1796.100</ele>
        <time>2020-04-06T22:22:58Z</time>
      </trkpt>
      <trkpt lat="35.501062070" lon="-107.161645670">
        <ele>1797.600</ele>
        <time>2020-04-06T22:23:02Z</time>
      </trkpt>
      <trkpt lat="35.501097930" lon="-107.161659130">
        <ele>1795.900</ele>
        <time>2020-04-06T22:23:17Z</time>
      </trkpt>
      <trkpt lat="35.501129330" lon="-107.161681660">
        <ele>1794.200</ele>
        <time>2020-04-06T22:23:23Z</time>
      </trkpt>
      <trkpt lat="35.501166240" lon="-107.161696350">
        <ele>1794.200</ele>
        <time>2020-04-06T22:23:30Z</time>
      </trkpt>
      <trkpt lat="35.501207020" lon="-107.161708300">
        <ele>1793.900</ele>
        <time>2020-04-06T22:23:40Z</time>
      </trkpt>
      <trkpt lat="35.501246670" lon="-107.161695160">
        <ele>1792.100</ele>
        <time>2020-04-06T22:23:46Z</time>
      </trkpt>
      <trkpt lat="35.501284420" lon="-107.161700010">
        <ele>1794.300</ele>
        <time>2020-04-06T22:23:51Z</time>
      </trkpt>
      <trkpt lat="35.501325340" lon="-107.161706220">
        <ele>1792.900</ele>
        <time>2020-04-06T22:23:57Z</time>
      </trkpt>
      <trkpt lat="35.501364610" lon="-107.161706120">
        <ele>1796.800</ele>
        <time>2020-04-06T22:24:03Z</time>
      </trkpt>
      <trkpt lat="35.501400070" lon="-107.161715060">
        <ele>1795.300</ele>
        <time>2020-04-06T22:24:09Z</time>
      </trkpt>
      <trkpt lat="35.501442580" lon="-107.161719480">
        <ele>1796.700</ele>
        <time>2020-04-06T22:24:15Z</time>
      </trkpt>
      <trkpt lat="35.501478200" lon="-107.161705660">
        <ele>1797.100</ele>
        <time>2020-04-06T22:24:22Z</time>
      </trkpt>
      <trkpt lat="35.501510040" lon="-107.161684790">
        <ele>1796.500</ele>
        <time>2020-04-06T22:24:32Z</time>
      </trkpt>
      <trkpt lat="35.501551660" lon="-107.161678160">
        <ele>1793.600</ele>
        <time>2020-04-06T22:24:38Z</time>
      </trkpt>
      <trkpt lat="35.501590710" lon="-107.161669280">
        <ele>1792.800</ele>
        <time>2020-04-06T22:24:43Z</time>
      </trkpt>
      <trkpt lat="35.501619240" lon="-107.161635490">
        <ele>1794.100</ele>
        <time>2020-04-06T22:24:48Z</time>
      </trkpt>
      <trkpt lat="35.501656060" lon="-107.161611040">
        <ele>1795.400</ele>
        <time>2020-04-06T22:24:54Z</time>
      </trkpt>
      <trkpt lat="35.501687800" lon="-107.161588950">
        <ele>1793.100</ele>
        <time>2020-04-06T22:24:58Z</time>
      </trkpt>
      <trkpt lat="35.501727760" lon="-107.161572660">
        <ele>1793.000</ele>
        <time>2020-04-06T22:25:04Z</time>
      </trkpt>
      <trkpt lat="35.501759450" lon="-107.161551070">
        <ele>1792.400</ele>
        <time>2020-04-06T22:25:09Z</time>
      </trkpt>
      <trkpt lat="35.501727310" lon="-107.161572160">
        <ele>1791.400</ele>
        <time>2020-04-06T22:25:16Z</time>
      </trkpt>
      <trkpt lat="35.501759810" lon="-107.161546420">
        <ele>1790.500</ele>
        <time>2020-04-06T22:25:32Z</time>
      </trkpt>
      <trkpt lat="35.501797940" lon="-107.161536100">
        <ele>1789.800</ele>
        <time>2020-04-06T22:25:37Z</time>
      </trkpt>
      <trkpt lat="35.501832820" lon="-107.161523900">
        <ele>1788.500</ele>
        <time>2020-04-06T22:25:45Z</time>
      </trkpt>
      <trkpt lat="35.501876680" lon="-107.161516550">
        <ele>1787.500</ele>
        <time>2020-04-06T22:25:50Z</time>
      </trkpt>
      <trkpt lat="35.501912330" lon="-107.161507910">
        <ele>1787.200</ele>
        <time>2020-04-06T22:26:03Z</time>
      </trkpt>
      <trkpt lat="35.501952180" lon="-107.161500940">
        <ele>1786.200</ele>
        <time>2020-04-06T22:26:11Z</time>
      </trkpt>
      <trkpt lat="35.501980580" lon="-107.161530740">
        <ele>1788.500</ele>
        <time>2020-04-06T22:26:24Z</time>
      </trkpt>
      <trkpt lat="35.502017410" lon="-107.161535100">
        <ele>1789.100</ele>
        <time>2020-04-06T22:26:29Z</time>
      </trkpt>
      <trkpt lat="35.502058370" lon="-107.161520410">
        <ele>1788.900</ele>
        <time>2020-04-06T22:26:34Z</time>
      </trkpt>
      <trkpt lat="35.502099040" lon="-107.161517900">
        <ele>1787.900</ele>
        <time>2020-04-06T22:26:39Z</time>
      </trkpt>
      <trkpt lat="35.502139150" lon="-107.161509690">
        <ele>1789.200</ele>
        <time>2020-04-06T22:26:44Z</time>
      </trkpt>
      <trkpt lat="35.502173620" lon="-107.161486860">
        <ele>1790.700</ele>
        <time>2020-04-06T22:26:50Z</time>
      </trkpt>
      <trkpt lat="35.502207070" lon="-107.161456740">
        <ele>1791.400</ele>
        <time>2020-04-06T22:26:59Z</time>
      </trkpt>
      <trkpt lat="35.502242060" lon="-107.161432620">
        <ele>1791.900</ele>
        <time>2020-04-06T22:27:03Z</time>
      </trkpt>
      <trkpt lat="35.502278990" lon="-107.161411150">
        <ele>1792.000</ele>
        <time>2020-04-06T22:27:08Z</time>
      </trkpt>
      <trkpt lat="35.502286110" lon="-107.161367440">
        <ele>1792.900</ele>
        <time>2020-04-06T22:27:19Z</time>
      </trkpt>
      <trkpt lat="35.502300370" lon="-107.161322120">
        <ele>1792.300</ele>
        <time>2020-04-06T22:27:24Z</time>
      </trkpt>
      <trkpt lat="35.502309150" lon="-107.161275570">
        <ele>1792.800</ele>
        <time>2020-04-06T22:27:29Z</time>
      </trkpt>
      <trkpt lat="35.502322880" lon="-107.161232880">
        <ele>1792.500</ele>
        <time>2020-04-06T22:27:34Z</time>
      </trkpt>
      <trkpt lat="35.502361180" lon="-107.161221370">
        <ele>1792.300</ele>
        <time>2020-04-06T22:27:39Z</time>
      </trkpt>
      <trkpt lat="35.502398920" lon="-107.161210760">
        <ele>1790.400</ele>
        <time>2020-04-06T22:27:45Z</time>
      </trkpt>
      <trkpt lat="35.502413660" lon="-107.161161240">
        <ele>1790.700</ele>
        <time>2020-04-06T22:28:21Z</time>
      </trkpt>
      <trkpt lat="35.502428120" lon="-107.161113800">
        <ele>1791.000</ele>
        <time>2020-04-06T22:28:26Z</time>
      </trkpt>
      <trkpt lat="35.502434270" lon="-107.161068230">
        <ele>1791.200</ele>
        <time>2020-04-06T22:28:31Z</time>
      </trkpt>
      <trkpt lat="35.502410000" lon="-107.161034580">
        <ele>1791.900</ele>
        <time>2020-04-06T22:28:37Z</time>
      </trkpt>
      <trkpt lat="35.502404240" lon="-107.160988410">
        <ele>1790.700</ele>
        <time>2020-04-06T22:28:42Z</time>
      </trkpt>
      <trkpt lat="35.502428320" lon="-107.160952010">
        <ele>1791.300</ele>
        <time>2020-04-06T22:28:51Z</time>
      </trkpt>
      <trkpt lat="35.502467540" lon="-107.160937410">
        <ele>1791.700</ele>
        <time>2020-04-06T22:29:00Z</time>
      </trkpt>
      <trkpt lat="35.502491200" lon="-107.160894280">
        <ele>1793.500</ele>
        <time>2020-04-06T22:31:42Z</time>
      </trkpt>
      <trkpt lat="35.502498070" lon="-107.160845200">
        <ele>1793.500</ele>
        <time>2020-04-06T22:31:46Z</time>
      </trkpt>
      <trkpt lat="35.502525770" lon="-107.160812580">
        <ele>1792.900</ele>
        <time>2020-04-06T22:31:50Z</time>
      </trkpt>
      <trkpt lat="35.502557810" lon="-107.160777760">
        <ele>1793.000</ele>
        <time>2020-04-06T22:31:54Z</time>
      </trkpt>
      <trkpt lat="35.502591590" lon="-107.160746420">
        <ele>1793.300</ele>
        <time>2020-04-06T22:31:59Z</time>
      </trkpt>
      <trkpt lat="35.502615760" lon="-107.160700990">
        <ele>1793.100</ele>
        <time>2020-04-06T22:32:03Z</time>
      </trkpt>
      <trkpt lat="35.502646620" lon="-107.160662430">
        <ele>1793.500</ele>
        <time>2020-04-06T22:32:07Z</time>
      </trkpt>
      <trkpt lat="35.502676260" lon="-107.160621570">
        <ele>1793.200</ele>
        <time>2020-04-06T22:32:11Z</time>
      </trkpt>
      <trkpt lat="35.502695770" lon="-107.160576990">
        <ele>1793.400</ele>
        <time>2020-04-06T22:32:15Z</time>
      </trkpt>
      <trkpt lat="35.502725600" lon="-107.160535280">
        <ele>1793.400</ele>
        <time>2020-04-06T22:32:19Z</time>
      </trkpt>
      <trkpt lat="35.502748730" lon="-107.160494600">
        <ele>1792.100</ele>
        <time>2020-04-06T22:32:23Z</time>
      </trkpt>
      <trkpt lat="35.502780170" lon="-107.160457670">
        <ele>1791.900</ele>
        <time>2020-04-06T22:32:27Z</time>
      </trkpt>
      <trkpt lat="35.502808420" lon="-107.160426890">
        <ele>1791.700</ele>
        <time>2020-04-06T22:32:31Z</time>
      </trkpt>
      <trkpt lat="35.502851630" lon="-107.160431950">
        <ele>1791.800</ele>
        <time>2020-04-06T22:32:36Z</time>
      </trkpt>
      <trkpt lat="35.502890370" lon="-107.160411920">
        <ele>1791.300</ele>
        <time>2020-04-06T22:32:41Z</time>
      </trkpt>
      <trkpt lat="35.502913820" lon="-107.160369550">
        <ele>1789.900</ele>
        <time>2020-04-06T22:32:45Z</time>
      </trkpt>
      <trkpt lat="35.502943210" lon="-107.160335790">
        <ele>1790.400</ele>
        <time>2020-04-06T22:32:49Z</time>
      </trkpt>
      <trkpt lat="35.502976070" lon="-107.160297050">
        <ele>1790.900</ele>
        <time>2020-04-06T22:32:54Z</time>
      </trkpt>
      <trkpt lat="35.502998640" lon="-107.160254590">
        <ele>1792.700</ele>
        <time>2020-04-06T22:33:02Z</time>
      </trkpt>
      <trkpt lat="35.503034250" lon="-107.160229360">
        <ele>1792.400</ele>
        <time>2020-04-06T22:33:06Z</time>
      </trkpt>
      <trkpt lat="35.503070110" lon="-107.160204880">
        <ele>1791.900</ele>
        <time>2020-04-06T22:33:10Z</time>
      </trkpt>
      <trkpt lat="35.503102150" lon="-107.160174500">
        <ele>1791.200</ele>
        <time>2020-04-06T22:33:14Z</time>
      </trkpt>
      <trkpt lat="35.503131060" lon="-107.160142200">
        <ele>1790.800</ele>
        <time>2020-04-06T22:33:19Z</time>
      </trkpt>
      <trkpt lat="35.503162760" lon="-107.160101460">
        <ele>1790.200</ele>
        <time>2020-04-06T22:33:24Z</time>
      </trkpt>
      <trkpt lat="35.503180200" lon="-107.160061270">
        <ele>1789.900</ele>
        <time>2020-04-06T22:33:28Z</time>
      </trkpt>
      <trkpt lat="35.503179450" lon="-107.160014660">
        <ele>1789.700</ele>
        <time>2020-04-06T22:33:32Z</time>
      </trkpt>
      <trkpt lat="35.503180410" lon="-107.159969120">
        <ele>1790.700</ele>
        <time>2020-04-06T22:33:37Z</time>
      </trkpt>
      <trkpt lat="35.503196590" lon="-107.159924840">
        <ele>1790.400</ele>
        <time>2020-04-06T22:34:03Z</time>
      </trkpt>
      <trkpt lat="35.503224080" lon="-107.159892670">
        <ele>1790.700</ele>
        <time>2020-04-06T22:34:07Z</time>
      </trkpt>
      <trkpt lat="35.503256520" lon="-107.159860320">
        <ele>1790.600</ele>
        <time>2020-04-06T22:34:12Z</time>
      </trkpt>
      <trkpt lat="35.503287280" lon="-107.159824370">
        <ele>1790.400</ele>
        <time>2020-04-06T22:34:26Z</time>
      </trkpt>
      <trkpt lat="35.503310530" lon="-107.159780920">
        <ele>1789.600</ele>
        <time>2020-04-06T22:34:30Z</time>
      </trkpt>
      <trkpt lat="35.503323630" lon="-107.159735040">
        <ele>1789.500</ele>
        <time>2020-04-06T22:34:34Z</time>
      </trkpt>
      <trkpt lat="35.503320910" lon="-107.159690080">
        <ele>1788.600</ele>
        <time>2020-04-06T22:34:39Z</time>
      </trkpt>
      <trkpt lat="35.503320670" lon="-107.159644770">
        <ele>1789.200</ele>
        <time>2020-04-06T22:34:56Z</time>
      </trkpt>
      <trkpt lat="35.503328110" lon="-107.159597230">
        <ele>1788.500</ele>
        <time>2020-04-06T22:35:01Z</time>
      </trkpt>
      <trkpt lat="35.503320050" lon="-107.159553820">
        <ele>1789.200</ele>
        <time>2020-04-06T22:35:05Z</time>
      </trkpt>
      <trkpt lat="35.503316090" lon="-107.159505570">
        <ele>1789.700</ele>
        <time>2020-04-06T22:35:10Z</time>
      </trkpt>
      <trkpt lat="35.503308490" lon="-107.159457050">
        <ele>1789.500</ele>
        <time>2020-04-06T22:35:15Z</time>
      </trkpt>
      <trkpt lat="35.503320340" lon="-107.159406690">
        <ele>1789.200</ele>
        <time>2020-04-06T22:35:20Z</time>
      </trkpt>
      <trkpt lat="35.503337480" lon="-107.159363070">
        <ele>1788.500</ele>
        <time>2020-04-06T22:35:25Z</time>
      </trkpt>
      <trkpt lat="35.503347300" lon="-107.159312190">
        <ele>1788.100</ele>
        <time>2020-04-06T22:35:30Z</time>
      </trkpt>
      <trkpt lat="35.503350690" lon="-107.159262380">
        <ele>1789.200</ele>
        <time>2020-04-06T22:35:35Z</time>
      </trkpt>
      <trkpt lat="35.503359450" lon="-107.159210190">
        <ele>1788.200</ele>
        <time>2020-04-06T22:35:40Z</time>
      </trkpt>
      <trkpt lat="35.503374610" lon="-107.159168810">
        <ele>1786.600</ele>
        <time>2020-04-06T22:35:44Z</time>
      </trkpt>
      <trkpt lat="35.503394750" lon="-107.159121720">
        <ele>1786.400</ele>
        <time>2020-04-06T22:35:48Z</time>
      </trkpt>
      <trkpt lat="35.503416210" lon="-107.159083710">
        <ele>1786.700</ele>
        <time>2020-04-06T22:35:52Z</time>
      </trkpt>
      <trkpt lat="35.503430250" lon="-107.159035830">
        <ele>1785.800</ele>
        <time>2020-04-06T22:35:56Z</time>
      </trkpt>
      <trkpt lat="35.503439070" lon="-107.158982450">
        <ele>1786.100</ele>
        <time>2020-04-06T22:36:01Z</time>
      </trkpt>
      <trkpt lat="35.503452070" lon="-107.158939970">
        <ele>1786.100</ele>
        <time>2020-04-06T22:36:05Z</time>
      </trkpt>
      <trkpt lat="35.503479120" lon="-107.158900900">
        <ele>1785.500</ele>
        <time>2020-04-06T22:36:09Z</time>
      </trkpt>
      <trkpt lat="35.503492230" lon="-107.158858230">
        <ele>1786.200</ele>
        <time>2020-04-06T22:36:13Z</time>
      </trkpt>
      <trkpt lat="35.503504810" lon="-107.158813500">
        <ele>1786.400</ele>
        <time>2020-04-06T22:36:17Z</time>
      </trkpt>
      <trkpt lat="35.503529370" lon="-107.158772090">
        <ele>1785.900</ele>
        <time>2020-04-06T22:36:21Z</time>
      </trkpt>
      <trkpt lat="35.503551850" lon="-107.158731500">
        <ele>1785.500</ele>
        <time>2020-04-06T22:36:25Z</time>
      </trkpt>
      <trkpt lat="35.503561890" lon="-107.158681850">
        <ele>1785.200</ele>
        <time>2020-04-06T22:36:29Z</time>
      </trkpt>
      <trkpt lat="35.503570660" lon="-107.158637940">
        <ele>1785.100</ele>
        <time>2020-04-06T22:36:33Z</time>
      </trkpt>
      <trkpt lat="35.503595270" lon="-107.158604270">
        <ele>1784.900</ele>
        <time>2020-04-06T22:36:37Z</time>
      </trkpt>
      <trkpt lat="35.503631090" lon="-107.158584740">
        <ele>1785.000</ele>
        <time>2020-04-06T22:36:41Z</time>
      </trkpt>
      <trkpt lat="35.503655720" lon="-107.158550940">
        <ele>1785.200</ele>
        <time>2020-04-06T22:36:45Z</time>
      </trkpt>
      <trkpt lat="35.503684420" lon="-107.158509070">
        <ele>1785.900</ele>
        <time>2020-04-06T22:36:50Z</time>
      </trkpt>
      <trkpt lat="35.503701900" lon="-107.158457340">
        <ele>1785.100</ele>
        <time>2020-04-06T22:36:55Z</time>
      </trkpt>
      <trkpt lat="35.503718000" lon="-107.158414200">
        <ele>1785.100</ele>
        <time>2020-04-06T22:36:59Z</time>
      </trkpt>
      <trkpt lat="35.503739490" lon="-107.158377800">
        <ele>1785.600</ele>
        <time>2020-04-06T22:37:03Z</time>
      </trkpt>
      <trkpt lat="35.503763570" lon="-107.158342440">
        <ele>1785.400</ele>
        <time>2020-04-06T22:37:07Z</time>
      </trkpt>
      <trkpt lat="35.503783380" lon="-107.158294730">
        <ele>1785.100</ele>
        <time>2020-04-06T22:37:12Z</time>
      </trkpt>
      <trkpt lat="35.503801900" lon="-107.158255600">
        <ele>1784.800</ele>
        <time>2020-04-06T22:37:16Z</time>
      </trkpt>
      <trkpt lat="35.503816050" lon="-107.158207090">
        <ele>1784.500</ele>
        <time>2020-04-06T22:37:21Z</time>
      </trkpt>
      <trkpt lat="35.503843280" lon="-107.158165060">
        <ele>1784.300</ele>
        <time>2020-04-06T22:37:26Z</time>
      </trkpt>
      <trkpt lat="35.503864100" lon="-107.158121410">
        <ele>1784.300</ele>
        <time>2020-04-06T22:37:30Z</time>
      </trkpt>
      <trkpt lat="35.503884040" lon="-107.158075880">
        <ele>1784.000</ele>
        <time>2020-04-06T22:37:34Z</time>
      </trkpt>
      <trkpt lat="35.503910700" lon="-107.158040250">
        <ele>1783.700</ele>
        <time>2020-04-06T22:37:38Z</time>
      </trkpt>
      <trkpt lat="35.503933870" lon="-107.158001020">
        <ele>1783.600</ele>
        <time>2020-04-06T22:37:42Z</time>
      </trkpt>
      <trkpt lat="35.503942670" lon="-107.157950690">
        <ele>1786.100</ele>
        <time>2020-04-06T22:38:45Z</time>
      </trkpt>
      <trkpt lat="35.503956980" lon="-107.157908180">
        <ele>1786.300</ele>
        <time>2020-04-06T22:38:49Z</time>
      </trkpt>
      <trkpt lat="35.503979220" lon="-107.157865740">
        <ele>1787.100</ele>
        <time>2020-04-06T22:38:53Z</time>
      </trkpt>
      <trkpt lat="35.504004430" lon="-107.157824240">
        <ele>1786.800</ele>
        <time>2020-04-06T22:38:57Z</time>
      </trkpt>
      <trkpt lat="35.504022080" lon="-107.157783940">
        <ele>1787.200</ele>
        <time>2020-04-06T22:39:01Z</time>
      </trkpt>
      <trkpt lat="35.504032520" lon="-107.157737250">
        <ele>1787.000</ele>
        <time>2020-04-06T22:39:05Z</time>
      </trkpt>
      <trkpt lat="35.504047330" lon="-107.157696310">
        <ele>1786.600</ele>
        <time>2020-04-06T22:39:09Z</time>
      </trkpt>
      <trkpt lat="35.504071270" lon="-107.157659350">
        <ele>1786.000</ele>
        <time>2020-04-06T22:39:13Z</time>
      </trkpt>
      <trkpt lat="35.504096010" lon="-107.157621690">
        <ele>1785.700</ele>
        <time>2020-04-06T22:39:17Z</time>
      </trkpt>
      <trkpt lat="35.504122780" lon="-107.157588150">
        <ele>1786.300</ele>
        <time>2020-04-06T22:39:21Z</time>
      </trkpt>
      <trkpt lat="35.504149850" lon="-107.157556490">
        <ele>1786.200</ele>
        <time>2020-04-06T22:39:25Z</time>
      </trkpt>
      <trkpt lat="35.504167240" lon="-107.157514350">
        <ele>1786.900</ele>
        <time>2020-04-06T22:39:29Z</time>
      </trkpt>
      <trkpt lat="35.504176230" lon="-107.157466560">
        <ele>1786.400</ele>
        <time>2020-04-06T22:39:33Z</time>
      </trkpt>
      <trkpt lat="35.504186730" lon="-107.157413400">
        <ele>1786.500</ele>
        <time>2020-04-06T22:39:38Z</time>
      </trkpt>
      <trkpt lat="35.504208520" lon="-107.157377430">
        <ele>1787.200</ele>
        <time>2020-04-06T22:39:42Z</time>
      </trkpt>
      <trkpt lat="35.504237110" lon="-107.157337620">
        <ele>1787.300</ele>
        <time>2020-04-06T22:39:46Z</time>
      </trkpt>
      <trkpt lat="35.504266410" lon="-107.157302910">
        <ele>1787.400</ele>
        <time>2020-04-06T22:39:50Z</time>
      </trkpt>
      <trkpt lat="35.504303410" lon="-107.157275610">
        <ele>1786.400</ele>
        <time>2020-04-06T22:39:53Z</time>
      </trkpt>
      <trkpt lat="35.504328280" lon="-107.157237270">
        <ele>1786.000</ele>
        <time>2020-04-06T22:39:57Z</time>
      </trkpt>
      <trkpt lat="35.504339600" lon="-107.157188120">
        <ele>1786.200</ele>
        <time>2020-04-06T22:40:07Z</time>
      </trkpt>
      <trkpt lat="35.504366720" lon="-107.157150200">
        <ele>1785.600</ele>
        <time>2020-04-06T22:40:11Z</time>
      </trkpt>
      <trkpt lat="35.504386400" lon="-107.157108790">
        <ele>1785.800</ele>
        <time>2020-04-06T22:40:15Z</time>
      </trkpt>
      <trkpt lat="35.504410630" lon="-107.157061880">
        <ele>1785.500</ele>
        <time>2020-04-06T22:40:26Z</time>
      </trkpt>
      <trkpt lat="35.504441140" lon="-107.157027330">
        <ele>1785.900</ele>
        <time>2020-04-06T22:40:30Z</time>
      </trkpt>
      <trkpt lat="35.504463820" lon="-107.156991500">
        <ele>1785.800</ele>
        <time>2020-04-06T22:40:34Z</time>
      </trkpt>
      <trkpt lat="35.504479420" lon="-107.156944030">
        <ele>1785.400</ele>
        <time>2020-04-06T22:40:38Z</time>
      </trkpt>
      <trkpt lat="35.504501620" lon="-107.156906150">
        <ele>1785.400</ele>
        <time>2020-04-06T22:40:42Z</time>
      </trkpt>
      <trkpt lat="35.504526940" lon="-107.156867760">
        <ele>1785.000</ele>
        <time>2020-04-06T22:40:46Z</time>
      </trkpt>
      <trkpt lat="35.504537430" lon="-107.156814390">
        <ele>1785.200</ele>
        <time>2020-04-06T22:40:51Z</time>
      </trkpt>
      <trkpt lat="35.504556840" lon="-107.156767260">
        <ele>1785.200</ele>
        <time>2020-04-06T22:40:56Z</time>
      </trkpt>
      <trkpt lat="35.504576850" lon="-107.156728020">
        <ele>1785.400</ele>
        <time>2020-04-06T22:41:00Z</time>
      </trkpt>
      <trkpt lat="35.504599240" lon="-107.156686320">
        <ele>1785.400</ele>
        <time>2020-04-06T22:41:04Z</time>
      </trkpt>
      <trkpt lat="35.504617930" lon="-107.156640260">
        <ele>1784.800</ele>
        <time>2020-04-06T22:41:08Z</time>
      </trkpt>
      <trkpt lat="35.504633570" lon="-107.156590900">
        <ele>1785.700</ele>
        <time>2020-04-06T22:41:23Z</time>
      </trkpt>
      <trkpt lat="35.504654250" lon="-107.156550010">
        <ele>1785.900</ele>
        <time>2020-04-06T22:41:27Z</time>
      </trkpt>
      <trkpt lat="35.504682570" lon="-107.156514490">
        <ele>1785.600</ele>
        <time>2020-04-06T22:41:31Z</time>
      </trkpt>
      <trkpt lat="35.504713820" lon="-107.156478310">
        <ele>1785.400</ele>
        <time>2020-04-06T22:41:35Z</time>
      </trkpt>
      <trkpt lat="35.504737700" lon="-107.156431330">
        <ele>1784.600</ele>
        <time>2020-04-06T22:41:39Z</time>
      </trkpt>
      <trkpt lat="35.504765210" lon="-107.156396060">
        <ele>1784.200</ele>
        <time>2020-04-06T22:41:43Z</time>
      </trkpt>
      <trkpt lat="35.504793440" lon="-107.156363480">
        <ele>1784.400</ele>
        <time>2020-04-06T22:41:47Z</time>
      </trkpt>
      <trkpt lat="35.504815850" lon="-107.156323050">
        <ele>1784.500</ele>
        <time>2020-04-06T22:41:51Z</time>
      </trkpt>
      <trkpt lat="35.504831920" lon="-107.156280980">
        <ele>1784.100</ele>
        <time>2020-04-06T22:41:55Z</time>
      </trkpt>
      <trkpt lat="35.504855300" lon="-107.156237860">
        <ele>1783.800</ele>
        <time>2020-04-06T22:41:59Z</time>
      </trkpt>
      <trkpt lat="35.504877470" lon="-107.156198630">
        <ele>1783.500</ele>
        <time>2020-04-06T22:42:03Z</time>
      </trkpt>
      <trkpt lat="35.504902620" lon="-107.156165940">
        <ele>1784.000</ele>
        <time>2020-04-06T22:42:07Z</time>
      </trkpt>
      <trkpt lat="35.504926920" lon="-107.156123090">
        <ele>1783.100</ele>
        <time>2020-04-06T22:42:11Z</time>
      </trkpt>
      <trkpt lat="35.504950850" lon="-107.156077900">
        <ele>1783.400</ele>
        <time>2020-04-06T22:42:16Z</time>
      </trkpt>
      <trkpt lat="35.504973530" lon="-107.156039540">
        <ele>1783.300</ele>
        <time>2020-04-06T22:42:20Z</time>
      </trkpt>
      <trkpt lat="35.504990910" lon="-107.155994790">
        <ele>1783.000</ele>
        <time>2020-04-06T22:42:24Z</time>
      </trkpt>
      <trkpt lat="35.505016240" lon="-107.155961340">
        <ele>1783.400</ele>
        <time>2020-04-06T22:42:28Z</time>
      </trkpt>
      <trkpt lat="35.505026190" lon="-107.155908080">
        <ele>1784.200</ele>
        <time>2020-04-06T22:42:44Z</time>
      </trkpt>
      <trkpt lat="35.505051930" lon="-107.155874240">
        <ele>1784.000</ele>
        <time>2020-04-06T22:42:48Z</time>
      </trkpt>
      <trkpt lat="35.505068760" lon="-107.155829620">
        <ele>1784.100</ele>
        <time>2020-04-06T22:42:52Z</time>
      </trkpt>
      <trkpt lat="35.505088330" lon="-107.155781020">
        <ele>1785.000</ele>
        <time>2020-04-06T22:42:57Z</time>
      </trkpt>
      <trkpt lat="35.505113970" lon="-107.155743410">
        <ele>1784.100</ele>
        <time>2020-04-06T22:43:01Z</time>
      </trkpt>
      <trkpt lat="35.505141540" lon="-107.155705340">
        <ele>1784.200</ele>
        <time>2020-04-06T22:43:05Z</time>
      </trkpt>
      <trkpt lat="35.505171710" lon="-107.155674960">
        <ele>1783.700</ele>
        <time>2020-04-06T22:43:09Z</time>
      </trkpt>
      <trkpt lat="35.505185480" lon="-107.155629160">
        <ele>1784.000</ele>
        <time>2020-04-06T22:43:13Z</time>
      </trkpt>
      <trkpt lat="35.505205480" lon="-107.155589320">
        <ele>1783.200</ele>
        <time>2020-04-06T22:43:17Z</time>
      </trkpt>
      <trkpt lat="35.505227620" lon="-107.155552640">
        <ele>1782.700</ele>
        <time>2020-04-06T22:43:21Z</time>
      </trkpt>
      <trkpt lat="35.505222570" lon="-107.155508870">
        <ele>1781.300</ele>
        <time>2020-04-06T22:43:36Z</time>
      </trkpt>
      <trkpt lat="35.505241820" lon="-107.155461640">
        <ele>1780.900</ele>
        <time>2020-04-06T22:43:40Z</time>
      </trkpt>
      <trkpt lat="35.505265950" lon="-107.155424880">
        <ele>1781.300</ele>
        <time>2020-04-06T22:43:44Z</time>
      </trkpt>
      <trkpt lat="35.505285900" lon="-107.155385010">
        <ele>1782.000</ele>
        <time>2020-04-06T22:43:48Z</time>
      </trkpt>
      <trkpt lat="35.505313990" lon="-107.155346890">
        <ele>1781.200</ele>
        <time>2020-04-06T22:43:52Z</time>
      </trkpt>
      <trkpt lat="35.505348500" lon="-107.155317420">
        <ele>1781.000</ele>
        <time>2020-04-06T22:43:56Z</time>
      </trkpt>
      <trkpt lat="35.505369350" lon="-107.155272490">
        <ele>1780.700</ele>
        <time>2020-04-06T22:44:00Z</time>
      </trkpt>
      <trkpt lat="35.505386510" lon="-107.155224310">
        <ele>1780.400</ele>
        <time>2020-04-06T22:44:04Z</time>
      </trkpt>
      <trkpt lat="35.505403310" lon="-107.155177270">
        <ele>1780.900</ele>
        <time>2020-04-06T22:44:08Z</time>
      </trkpt>
      <trkpt lat="35.505411120" lon="-107.155128840">
        <ele>1781.900</ele>
        <time>2020-04-06T22:44:12Z</time>
      </trkpt>
      <trkpt lat="35.505430130" lon="-107.155083020">
        <ele>1781.300</ele>
        <time>2020-04-06T22:44:16Z</time>
      </trkpt>
      <trkpt lat="35.505447190" lon="-107.155037490">
        <ele>1781.600</ele>
        <time>2020-04-06T22:44:20Z</time>
      </trkpt>
      <trkpt lat="35.505457110" lon="-107.154988460">
        <ele>1782.000</ele>
        <time>2020-04-06T22:44:24Z</time>
      </trkpt>
      <trkpt lat="35.505458300" lon="-107.154939060">
        <ele>1781.900</ele>
        <time>2020-04-06T22:45:09Z</time>
      </trkpt>
      <trkpt lat="35.505461130" lon="-107.154894730">
        <ele>1782.200</ele>
        <time>2020-04-06T22:45:13Z</time>
      </trkpt>
      <trkpt lat="35.505464270" lon="-107.154846360">
        <ele>1782.900</ele>
        <time>2020-04-06T22:45:17Z</time>
      </trkpt>
      <trkpt lat="35.505472450" lon="-107.154799590">
        <ele>1783.000</ele>
        <time>2020-04-06T22:45:21Z</time>
      </trkpt>
      <trkpt lat="35.505478330" lon="-107.154745510">
        <ele>1782.900</ele>
        <time>2020-04-06T22:45:25Z</time>
      </trkpt>
      <trkpt lat="35.505478310" lon="-107.154694310">
        <ele>1783.900</ele>
        <time>2020-04-06T22:45:29Z</time>
      </trkpt>
      <trkpt lat="35.505477430" lon="-107.154644790">
        <ele>1785.100</ele>
        <time>2020-04-06T22:45:33Z</time>
      </trkpt>
      <trkpt lat="35.505479600" lon="-107.154588190">
        <ele>1784.300</ele>
        <time>2020-04-06T22:45:37Z</time>
      </trkpt>
      <trkpt lat="35.505487100" lon="-107.154536080">
        <ele>1784.100</ele>
        <time>2020-04-06T22:45:41Z</time>
      </trkpt>
      <trkpt lat="35.505482140" lon="-107.154486350">
        <ele>1784.200</ele>
        <time>2020-04-06T22:45:45Z</time>
      </trkpt>
      <trkpt lat="35.505472190" lon="-107.154436670">
        <ele>1784.400</ele>
        <time>2020-04-06T22:45:49Z</time>
      </trkpt>
      <trkpt lat="35.505448060" lon="-107.154393160">
        <ele>1785.200</ele>
        <time>2020-04-06T22:45:53Z</time>
      </trkpt>
      <trkpt lat="35.505422550" lon="-107.154345910">
        <ele>1784.600</ele>
        <time>2020-04-06T22:45:57Z</time>
      </trkpt>
      <trkpt lat="35.505411280" lon="-107.154295300">
        <ele>1783.700</ele>
        <time>2020-04-06T22:46:01Z</time>
      </trkpt>
      <trkpt lat="35.505387950" lon="-107.154252010">
        <ele>1783.900</ele>
        <time>2020-04-06T22:46:05Z</time>
      </trkpt>
      <trkpt lat="35.505368960" lon="-107.154209530">
        <ele>1784.300</ele>
        <time>2020-04-06T22:46:09Z</time>
      </trkpt>
      <trkpt lat="35.505337490" lon="-107.154180950">
        <ele>1784.700</ele>
        <time>2020-04-06T22:46:13Z</time>
      </trkpt>
      <trkpt lat="35.505304320" lon="-107.154145220">
        <ele>1786.000</ele>
        <time>2020-04-06T22:46:17Z</time>
      </trkpt>
      <trkpt lat="35.505282080" lon="-107.154102150">
        <ele>1784.800</ele>
        <time>2020-04-06T22:46:21Z</time>
      </trkpt>
      <trkpt lat="35.505270630" lon="-107.154048830">
        <ele>1784.600</ele>
        <time>2020-04-06T22:46:25Z</time>
      </trkpt>
      <trkpt lat="35.505257530" lon="-107.154003380">
        <ele>1784.900</ele>
        <time>2020-04-06T22:46:29Z</time>
      </trkpt>
      <trkpt lat="35.505245030" lon="-107.153957740">
        <ele>1783.900</ele>
        <time>2020-04-06T22:46:33Z</time>
      </trkpt>
      <trkpt lat="35.505239530" lon="-107.153908550">
        <ele>1783.900</ele>
        <time>2020-04-06T22:46:37Z</time>
      </trkpt>
      <trkpt lat="35.505225070" lon="-107.153864430">
        <ele>1784.000</ele>
        <time>2020-04-06T22:46:41Z</time>
      </trkpt>
      <trkpt lat="35.505200580" lon="-107.153819890">
        <ele>1784.600</ele>
        <time>2020-04-06T22:46:46Z</time>
      </trkpt>
      <trkpt lat="35.505181010" lon="-107.153777270">
        <ele>1784.300</ele>
        <time>2020-04-06T22:46:50Z</time>
      </trkpt>
      <trkpt lat="35.505167700" lon="-107.153732640">
        <ele>1784.600</ele>
        <time>2020-04-06T22:46:54Z</time>
      </trkpt>
      <trkpt lat="35.505150880" lon="-107.153688450">
        <ele>1784.300</ele>
        <time>2020-04-06T22:46:58Z</time>
      </trkpt>
      <trkpt lat="35.505130200" lon="-107.153639040">
        <ele>1783.500</ele>
        <time>2020-04-06T22:47:03Z</time>
      </trkpt>
      <trkpt lat="35.505113520" lon="-107.153596040">
        <ele>1782.600</ele>
        <time>2020-04-06T22:47:07Z</time>
      </trkpt>
      <trkpt lat="35.505105620" lon="-107.153552140">
        <ele>1781.700</ele>
        <time>2020-04-06T22:47:11Z</time>
      </trkpt>
      <trkpt lat="35.505089840" lon="-107.153508820">
        <ele>1782.400</ele>
        <time>2020-04-06T22:47:15Z</time>
      </trkpt>
      <trkpt lat="35.505072850" lon="-107.153462390">
        <ele>1782.600</ele>
        <time>2020-04-06T22:47:19Z</time>
      </trkpt>
      <trkpt lat="35.505075690" lon="-107.153417100">
        <ele>1782.500</ele>
        <time>2020-04-06T22:47:23Z</time>
      </trkpt>
      <trkpt lat="35.505073930" lon="-107.153363470">
        <ele>1782.900</ele>
        <time>2020-04-06T22:47:27Z</time>
      </trkpt>
      <trkpt lat="35.505073080" lon="-107.153311420">
        <ele>1782.900</ele>
        <time>2020-04-06T22:47:32Z</time>
      </trkpt>
      <trkpt lat="35.505073440" lon="-107.153260800">
        <ele>1783.100</ele>
        <time>2020-04-06T22:47:37Z</time>
      </trkpt>
      <trkpt lat="35.505089420" lon="-107.153206770">
        <ele>1783.300</ele>
        <time>2020-04-06T22:47:42Z</time>
      </trkpt>
      <trkpt lat="35.505094120" lon="-107.153158300">
        <ele>1782.300</ele>
        <time>2020-04-06T22:47:46Z</time>
      </trkpt>
      <trkpt lat="35.505096890" lon="-107.153112630">
        <ele>1782.200</ele>
        <time>2020-04-06T22:47:50Z</time>
      </trkpt>
      <trkpt lat="35.505103260" lon="-107.153060600">
        <ele>1782.900</ele>
        <time>2020-04-06T22:47:55Z</time>
      </trkpt>
      <trkpt lat="35.505124150" lon="-107.153018410">
        <ele>1783.400</ele>
        <time>2020-04-06T22:47:59Z</time>
      </trkpt>
      <trkpt lat="35.505128240" lon="-107.152973630">
        <ele>1784.300</ele>
        <time>2020-04-06T22:48:03Z</time>
      </trkpt>
      <trkpt lat="35.505141950" lon="-107.152924250">
        <ele>1782.700</ele>
        <time>2020-04-06T22:48:07Z</time>
      </trkpt>
      <trkpt lat="35.505156750" lon="-107.152874680">
        <ele>1782.300</ele>
        <time>2020-04-06T22:48:11Z</time>
      </trkpt>
      <trkpt lat="35.505157620" lon="-107.152819530">
        <ele>1782.400</ele>
        <time>2020-04-06T22:48:16Z</time>
      </trkpt>
      <trkpt lat="35.505164580" lon="-107.152775390">
        <ele>1783.000</ele>
        <time>2020-04-06T22:48:20Z</time>
      </trkpt>
      <trkpt lat="35.505183780" lon="-107.152735270">
        <ele>1782.800</ele>
        <time>2020-04-06T22:48:24Z</time>
      </trkpt>
      <trkpt lat="35.505208430" lon="-107.152701950">
        <ele>1783.000</ele>
        <time>2020-04-06T22:48:28Z</time>
      </trkpt>
      <trkpt lat="35.505233110" lon="-107.152664860">
        <ele>1783.600</ele>
        <time>2020-04-06T22:48:32Z</time>
      </trkpt>
      <trkpt lat="35.505268660" lon="-107.152625120">
        <ele>1783.900</ele>
        <time>2020-04-06T22:48:37Z</time>
      </trkpt>
      <trkpt lat="35.505290100" lon="-107.152585050">
        <ele>1783.600</ele>
        <time>2020-04-06T22:48:41Z</time>
      </trkpt>
      <trkpt lat="35.505306460" lon="-107.152541710">
        <ele>1784.000</ele>
        <time>2020-04-06T22:48:45Z</time>
      </trkpt>
      <trkpt lat="35.505321950" lon="-107.152491360">
        <ele>1782.800</ele>
        <time>2020-04-06T22:48:50Z</time>
      </trkpt>
      <trkpt lat="35.505346680" lon="-107.152451580">
        <ele>1782.500</ele>
        <time>2020-04-06T22:48:54Z</time>
      </trkpt>
      <trkpt lat="35.505372890" lon="-107.152416180">
        <ele>1783.400</ele>
        <time>2020-04-06T22:48:58Z</time>
      </trkpt>
      <trkpt lat="35.505394500" lon="-107.152372940">
        <ele>1783.400</ele>
        <time>2020-04-06T22:49:02Z</time>
      </trkpt>
      <trkpt lat="35.505414810" lon="-107.152331900">
        <ele>1782.900</ele>
        <time>2020-04-06T22:49:06Z</time>
      </trkpt>
      <trkpt lat="35.505430710" lon="-107.152290320">
        <ele>1782.300</ele>
        <time>2020-04-06T22:49:10Z</time>
      </trkpt>
      <trkpt lat="35.505456970" lon="-107.152248640">
        <ele>1781.600</ele>
        <time>2020-04-06T22:49:14Z</time>
      </trkpt>
      <trkpt lat="35.505477300" lon="-107.152200420">
        <ele>1780.500</ele>
        <time>2020-04-06T22:49:18Z</time>
      </trkpt>
      <trkpt lat="35.505500070" lon="-107.152150450">
        <ele>1780.200</ele>
        <time>2020-04-06T22:49:22Z</time>
      </trkpt>
      <trkpt lat="35.505522410" lon="-107.152111290">
        <ele>1779.600</ele>
        <time>2020-04-06T22:49:25Z</time>
      </trkpt>
      <trkpt lat="35.505529440" lon="-107.152065830">
        <ele>1780.100</ele>
        <time>2020-04-06T22:49:29Z</time>
      </trkpt>
      <trkpt lat="35.505522070" lon="-107.152017030">
        <ele>1778.800</ele>
        <time>2020-04-06T22:49:34Z</time>
      </trkpt>
      <trkpt lat="35.505532170" lon="-107.151969150">
        <ele>1778.600</ele>
        <time>2020-04-06T22:49:52Z</time>
      </trkpt>
      <trkpt lat="35.505548990" lon="-107.151928290">
        <ele>1778.300</ele>
        <time>2020-04-06T22:49:56Z</time>
      </trkpt>
      <trkpt lat="35.505572770" lon="-107.151889250">
        <ele>1777.900</ele>
        <time>2020-04-06T22:50:00Z</time>
      </trkpt>
      <trkpt lat="35.505595970" lon="-107.151855430">
        <ele>1777.600</ele>
        <time>2020-04-06T22:50:04Z</time>
      </trkpt>
      <trkpt lat="35.505609740" lon="-107.151813390">
        <ele>1777.700</ele>
        <time>2020-04-06T22:50:08Z</time>
      </trkpt>
      <trkpt lat="35.505618320" lon="-107.151761770">
        <ele>1778.000</ele>
        <time>2020-04-06T22:50:13Z</time>
      </trkpt>
      <trkpt lat="35.505638050" lon="-107.151723880">
        <ele>1777.800</ele>
        <time>2020-04-06T22:50:18Z</time>
      </trkpt>
      <trkpt lat="35.505661650" lon="-107.151681060">
        <ele>1778.800</ele>
        <time>2020-04-06T22:50:23Z</time>
      </trkpt>
      <trkpt lat="35.505680680" lon="-107.151641990">
        <ele>1779.100</ele>
        <time>2020-04-06T22:50:28Z</time>
      </trkpt>
      <trkpt lat="35.505681900" lon="-107.151594720">
        <ele>1777.100</ele>
        <time>2020-04-06T22:50:32Z</time>
      </trkpt>
      <trkpt lat="35.505704030" lon="-107.151546080">
        <ele>1777.200</ele>
        <time>2020-04-06T22:50:36Z</time>
      </trkpt>
      <trkpt lat="35.505708000" lon="-107.151493470">
        <ele>1776.500</ele>
        <time>2020-04-06T22:50:41Z</time>
      </trkpt>
      <trkpt lat="35.505709250" lon="-107.151447850">
        <ele>1776.600</ele>
        <time>2020-04-06T22:50:45Z</time>
      </trkpt>
      <trkpt lat="35.505719070" lon="-107.151402830">
        <ele>1776.000</ele>
        <time>2020-04-06T22:50:49Z</time>
      </trkpt>
      <trkpt lat="35.505736050" lon="-107.151361950">
        <ele>1776.000</ele>
        <time>2020-04-06T22:50:53Z</time>
      </trkpt>
      <trkpt lat="35.505749900" lon="-107.151314700">
        <ele>1776.100</ele>
        <time>2020-04-06T22:50:58Z</time>
      </trkpt>
      <trkpt lat="35.505752090" lon="-107.151268590">
        <ele>1775.500</ele>
        <time>2020-04-06T22:51:03Z</time>
      </trkpt>
      <trkpt lat="35.505757200" lon="-107.151223970">
        <ele>1775.700</ele>
        <time>2020-04-06T22:51:07Z</time>
      </trkpt>
      <trkpt lat="35.505761970" lon="-107.151178530">
        <ele>1775.500</ele>
        <time>2020-04-06T22:51:12Z</time>
      </trkpt>
      <trkpt lat="35.505770850" lon="-107.151131690">
        <ele>1775.000</ele>
        <time>2020-04-06T22:51:17Z</time>
      </trkpt>
      <trkpt lat="35.505770390" lon="-107.151086550">
        <ele>1775.900</ele>
        <time>2020-04-06T22:51:22Z</time>
      </trkpt>
      <trkpt lat="35.505780910" lon="-107.151041890">
        <ele>1777.500</ele>
        <time>2020-04-06T22:51:27Z</time>
      </trkpt>
      <trkpt lat="35.505791550" lon="-107.150995490">
        <ele>1777.200</ele>
        <time>2020-04-06T22:51:33Z</time>
      </trkpt>
      <trkpt lat="35.505805330" lon="-107.150945680">
        <ele>1776.800</ele>
        <time>2020-04-06T22:51:40Z</time>
      </trkpt>
      <trkpt lat="35.505815950" lon="-107.150898880">
        <ele>1776.900</ele>
        <time>2020-04-06T22:51:45Z</time>
      </trkpt>
      <trkpt lat="35.505828810" lon="-107.150849380">
        <ele>1776.900</ele>
        <time>2020-04-06T22:51:49Z</time>
      </trkpt>
      <trkpt lat="35.505834500" lon="-107.150802350">
        <ele>1775.600</ele>
        <time>2020-04-06T22:51:53Z</time>
      </trkpt>
      <trkpt lat="35.505842880" lon="-107.150758130">
        <ele>1775.000</ele>
        <time>2020-04-06T22:51:57Z</time>
      </trkpt>
      <trkpt lat="35.505864630" lon="-107.150717850">
        <ele>1774.600</ele>
        <time>2020-04-06T22:52:01Z</time>
      </trkpt>
      <trkpt lat="35.505880090" lon="-107.150677270">
        <ele>1775.400</ele>
        <time>2020-04-06T22:52:20Z</time>
      </trkpt>
      <trkpt lat="35.505859030" lon="-107.150631160">
        <ele>1775.800</ele>
        <time>2020-04-06T22:52:26Z</time>
      </trkpt>
      <trkpt lat="35.505839450" lon="-107.150591690">
        <ele>1776.700</ele>
        <time>2020-04-06T22:52:31Z</time>
      </trkpt>
      <trkpt lat="35.505843580" lon="-107.150545400">
        <ele>1776.900</ele>
        <time>2020-04-06T22:52:36Z</time>
      </trkpt>
      <trkpt lat="35.505844030" lon="-107.150493470">
        <ele>1777.500</ele>
        <time>2020-04-06T22:52:41Z</time>
      </trkpt>
      <trkpt lat="35.505840880" lon="-107.150446440">
        <ele>1776.600</ele>
        <time>2020-04-06T22:52:45Z</time>
      </trkpt>
      <trkpt lat="35.505839720" lon="-107.150397540">
        <ele>1776.500</ele>
        <time>2020-04-06T22:52:49Z</time>
      </trkpt>
      <trkpt lat="35.505843000" lon="-107.150344510">
        <ele>1778.500</ele>
        <time>2020-04-06T22:52:54Z</time>
      </trkpt>
      <trkpt lat="35.505844960" lon="-107.150295470">
        <ele>1778.000</ele>
        <time>2020-04-06T22:52:59Z</time>
      </trkpt>
      <trkpt lat="35.505842380" lon="-107.150244620">
        <ele>1777.300</ele>
        <time>2020-04-06T22:53:04Z</time>
      </trkpt>
      <trkpt lat="35.505838810" lon="-107.150192980">
        <ele>1778.000</ele>
        <time>2020-04-06T22:53:09Z</time>
      </trkpt>
      <trkpt lat="35.505830730" lon="-107.150148000">
        <ele>1776.700</ele>
        <time>2020-04-06T22:53:14Z</time>
      </trkpt>
      <trkpt lat="35.505821670" lon="-107.150097140">
        <ele>1776.500</ele>
        <time>2020-04-06T22:53:18Z</time>
      </trkpt>
      <trkpt lat="35.505826710" lon="-107.150044020">
        <ele>1776.600</ele>
        <time>2020-04-06T22:53:23Z</time>
      </trkpt>
      <trkpt lat="35.505817820" lon="-107.149991700">
        <ele>1778.000</ele>
        <time>2020-04-06T22:53:28Z</time>
      </trkpt>
      <trkpt lat="35.505784650" lon="-107.149972300">
        <ele>1777.700</ele>
        <time>2020-04-06T22:53:35Z</time>
      </trkpt>
      <trkpt lat="35.505775310" lon="-107.149920170">
        <ele>1777.100</ele>
        <time>2020-04-06T22:54:07Z</time>
      </trkpt>
      <trkpt lat="35.505775790" lon="-107.149871850">
        <ele>1776.300</ele>
        <time>2020-04-06T22:54:11Z</time>
      </trkpt>
      <trkpt lat="35.505743540" lon="-107.149830740">
        <ele>1776.900</ele>
        <time>2020-04-06T22:54:15Z</time>
      </trkpt>
      <trkpt lat="35.505713940" lon="-107.149791750">
        <ele>1778.100</ele>
        <time>2020-04-06T22:54:22Z</time>
      </trkpt>
      <trkpt lat="35.505693760" lon="-107.149748370">
        <ele>1779.500</ele>
        <time>2020-04-06T22:54:26Z</time>
      </trkpt>
      <trkpt lat="35.505679880" lon="-107.149707590">
        <ele>1779.800</ele>
        <time>2020-04-06T22:54:31Z</time>
      </trkpt>
      <trkpt lat="35.505673660" lon="-107.149659190">
        <ele>1779.600</ele>
        <time>2020-04-06T22:54:36Z</time>
      </trkpt>
      <trkpt lat="35.505673520" lon="-107.149607460">
        <ele>1778.800</ele>
        <time>2020-04-06T22:54:41Z</time>
      </trkpt>
      <trkpt lat="35.505674980" lon="-107.149554800">
        <ele>1779.300</ele>
        <time>2020-04-06T22:54:46Z</time>
      </trkpt>
      <trkpt lat="35.505686120" lon="-107.149511960">
        <ele>1779.100</ele>
        <time>2020-04-06T22:54:50Z</time>
      </trkpt>
      <trkpt lat="35.505686710" lon="-107.149463830">
        <ele>1779.000</ele>
        <time>2020-04-06T22:54:54Z</time>
      </trkpt>
      <trkpt lat="35.505699400" lon="-107.149419370">
        <ele>1779.300</ele>
        <time>2020-04-06T22:54:58Z</time>
      </trkpt>
      <trkpt lat="35.505711800" lon="-107.149377860">
        <ele>1779.300</ele>
        <time>2020-04-06T22:55:02Z</time>
      </trkpt>
      <trkpt lat="35.505725190" lon="-107.149330460">
        <ele>1779.200</ele>
        <time>2020-04-06T22:55:07Z</time>
      </trkpt>
      <trkpt lat="35.505735240" lon="-107.149286680">
        <ele>1777.300</ele>
        <time>2020-04-06T22:55:12Z</time>
      </trkpt>
      <trkpt lat="35.505740530" lon="-107.149237240">
        <ele>1777.100</ele>
        <time>2020-04-06T22:55:16Z</time>
      </trkpt>
      <trkpt lat="35.505728980" lon="-107.149191480">
        <ele>1777.000</ele>
        <time>2020-04-06T22:55:20Z</time>
      </trkpt>
      <trkpt lat="35.505707490" lon="-107.149149690">
        <ele>1777.600</ele>
        <time>2020-04-06T22:55:24Z</time>
      </trkpt>
      <trkpt lat="35.505690600" lon="-107.149103710">
        <ele>1777.500</ele>
        <time>2020-04-06T22:55:29Z</time>
      </trkpt>
      <trkpt lat="35.505683160" lon="-107.149054720">
        <ele>1776.200</ele>
        <time>2020-04-06T22:55:34Z</time>
      </trkpt>
      <trkpt lat="35.505667790" lon="-107.149014460">
        <ele>1775.400</ele>
        <time>2020-04-06T22:56:43Z</time>
      </trkpt>
      <trkpt lat="35.505653460" lon="-107.148963700">
        <ele>1776.300</ele>
        <time>2020-04-06T22:57:07Z</time>
      </trkpt>
      <trkpt lat="35.505637100" lon="-107.148914190">
        <ele>1776.800</ele>
        <time>2020-04-06T22:57:12Z</time>
      </trkpt>
      <trkpt lat="35.505628990" lon="-107.148869010">
        <ele>1777.300</ele>
        <time>2020-04-06T22:57:16Z</time>
      </trkpt>
      <trkpt lat="35.505654240" lon="-107.148834740">
        <ele>1777.500</ele>
        <time>2020-04-06T22:57:23Z</time>
      </trkpt>
      <trkpt lat="35.505689960" lon="-107.148853690">
        <ele>1779.000</ele>
        <time>2020-04-06T22:57:29Z</time>
      </trkpt>
      <trkpt lat="35.505725570" lon="-107.148871080">
        <ele>1778.200</ele>
        <time>2020-04-06T22:57:36Z</time>
      </trkpt>
      <trkpt lat="35.505763820" lon="-107.148879320">
        <ele>1779.100</ele>
        <time>2020-04-06T22:57:41Z</time>
      </trkpt>
      <trkpt lat="35.505807180" lon="-107.148884210">
        <ele>1780.700</ele>
        <time>2020-04-06T22:57:46Z</time>
      </trkpt>
      <trkpt lat="35.505844120" lon="-107.148876800">
        <ele>1782.200</ele>
        <time>2020-04-06T22:57:51Z</time>
      </trkpt>
      <trkpt lat="35.505881150" lon="-107.148886650">
        <ele>1784.300</ele>
        <time>2020-04-06T22:57:57Z</time>
      </trkpt>
      <trkpt lat="35.505915760" lon="-107.148903250">
        <ele>1785.900</ele>
        <time>2020-04-06T22:58:02Z</time>
      </trkpt>
      <trkpt lat="35.505954860" lon="-107.148917490">
        <ele>1786.300</ele>
        <time>2020-04-06T22:58:07Z</time>
      </trkpt>
      <trkpt lat="35.505994750" lon="-107.148943530">
        <ele>1788.000</ele>
        <time>2020-04-06T22:58:37Z</time>
      </trkpt>
      <trkpt lat="35.506030380" lon="-107.148950410">
        <ele>1787.900</ele>
        <time>2020-04-06T22:58:42Z</time>
      </trkpt>
      <trkpt lat="35.506067000" lon="-107.148958790">
        <ele>1788.400</ele>
        <time>2020-04-06T22:58:50Z</time>
      </trkpt>
      <trkpt lat="35.506086570" lon="-107.148999590">
        <ele>1789.500</ele>
        <time>2020-04-06T22:58:55Z</time>
      </trkpt>
      <trkpt lat="35.506109870" lon="-107.149034210">
        <ele>1789.300</ele>
        <time>2020-04-06T22:58:59Z</time>
      </trkpt>
      <trkpt lat="35.506144570" lon="-107.149059880">
        <ele>1788.800</ele>
        <time>2020-04-06T22:59:03Z</time>
      </trkpt>
      <trkpt lat="35.506183740" lon="-107.149081570">
        <ele>1790.200</ele>
        <time>2020-04-06T22:59:08Z</time>
      </trkpt>
      <trkpt lat="35.506188230" lon="-107.149133050">
        <ele>1789.800</ele>
        <time>2020-04-06T22:59:13Z</time>
      </trkpt>
      <trkpt lat="35.506174540" lon="-107.149180230">
        <ele>1789.800</ele>
        <time>2020-04-06T22:59:17Z</time>
      </trkpt>
      <trkpt lat="35.506163340" lon="-107.149223170">
        <ele>1789.900</ele>
        <time>2020-04-06T22:59:21Z</time>
      </trkpt>
      <trkpt lat="35.506150040" lon="-107.149273500">
        <ele>1792.600</ele>
        <time>2020-04-06T22:59:26Z</time>
      </trkpt>
      <trkpt lat="35.506138230" lon="-107.149318300">
        <ele>1790.600</ele>
        <time>2020-04-06T22:59:30Z</time>
      </trkpt>
      <trkpt lat="35.506122690" lon="-107.149359680">
        <ele>1790.200</ele>
        <time>2020-04-06T22:59:34Z</time>
      </trkpt>
      <trkpt lat="35.506111120" lon="-107.149410590">
        <ele>1789.200</ele>
        <time>2020-04-06T22:59:39Z</time>
      </trkpt>
      <trkpt lat="35.506096840" lon="-107.149462120">
        <ele>1789.900</ele>
        <time>2020-04-06T22:59:44Z</time>
      </trkpt>
      <trkpt lat="35.506085440" lon="-107.149504730">
        <ele>1791.200</ele>
        <time>2020-04-06T22:59:48Z</time>
      </trkpt>
      <trkpt lat="35.506082980" lon="-107.149548910">
        <ele>1790.800</ele>
        <time>2020-04-06T22:59:52Z</time>
      </trkpt>
      <trkpt lat="35.506091520" lon="-107.149595050">
        <ele>1790.900</ele>
        <time>2020-04-06T22:59:56Z</time>
      </trkpt>
      <trkpt lat="35.506109530" lon="-107.149640350">
        <ele>1789.800</ele>
        <time>2020-04-06T23:00:00Z</time>
      </trkpt>
      <trkpt lat="35.506118070" lon="-107.149685790">
        <ele>1789.500</ele>
        <time>2020-04-06T23:00:04Z</time>
      </trkpt>
      <trkpt lat="35.506118660" lon="-107.149736090">
        <ele>1788.700</ele>
        <time>2020-04-06T23:00:09Z</time>
      </trkpt>
      <trkpt lat="35.506114410" lon="-107.149786460">
        <ele>1789.300</ele>
        <time>2020-04-06T23:00:14Z</time>
      </trkpt>
      <trkpt lat="35.506112070" lon="-107.149832530">
        <ele>1790.400</ele>
        <time>2020-04-06T23:00:18Z</time>
      </trkpt>
      <trkpt lat="35.506116970" lon="-107.149876510">
        <ele>1791.500</ele>
        <time>2020-04-06T23:00:22Z</time>
      </trkpt>
      <trkpt lat="35.506131870" lon="-107.149925610">
        <ele>1791.600</ele>
        <time>2020-04-06T23:00:33Z</time>
      </trkpt>
      <trkpt lat="35.506159420" lon="-107.149955890">
        <ele>1791.200</ele>
        <time>2020-04-06T23:00:38Z</time>
      </trkpt>
      <trkpt lat="35.506183260" lon="-107.149952320">
        <ele>1792.600</ele>
        <time>2020-04-06T23:01:44Z</time>
      </trkpt>
    </trkseg>
  </trk>
</gpx>
